[[{"header":{"parameterUnit":"m.s-1","parameterCategory":1,"la1":31.0,"la2":29.5877,"lo1":-88.7671,"lo2":-86.6584,"dy":0.0162,"dx":0.0185,"nx":115,"ny":88,"refTime":"2023-09-26T06:00:00:Z","depth":0,"parameterNumber":2,"parameterNumberName":"U-component_of_WINDS"},"data":[0.0,0.0,0.0,0.0,0.0,0.0,0.0,0.0,0.0,0.0,0.0,0.0,0.0,0.0,0.0,0.0,0.0,0.0,0.0,0.0,0.0,0.0,0.0,0.0,0.0,0.0,0.0,0.0,0.0,0.0,0.0,0.0,0.0,0.0,0.0,0.0,0.0,0.0,0.0,0.0,0.0,0.0,0.0,0.0,0.0,0.0,0.0,0.0,0.0,0.0,0.0,0.0,0.0,0.0,0.0,0.0,0.0,0.0,0.0,0.0,0.0,0.0,0.0,0.0,0.0,0.0,0.0,0.0,0.0,0.0,0.0,0.0,0.0,0.0,0.0,0.0,0.0,0.0,0.0,0.0,0.0,0.0,0.0,0.0,0.0,0.0,0.0,0.0,0.0,0.0,0.0,0.0,0.0,0.0,0.0,0.0,0.0,0.0,0.0,0.0,0.0,0.0,0.0,0.0,0.0,0.0,0.0,0.0,0.0,0.0,0.0,0.0,0.0,0.0,0.0,0.0,0.0,0.0,0.0,0.0,0.0,0.0,0.0,0.0,0.0,0.0,0.0,0.0,0.0,0.0,0.0,0.0,0.0,0.0,0.0,0.0,0.0,0.0,0.0,0.0,0.0,0.0,0.0,0.0,0.0,0.0,0.0,0.0,0.0,0.0,0.0,0.0,0.0,0.0,0.0,0.0,0.0,0.0,0.0,0.0,0.0,0.0,0.0,0.0,0.0,0.0,0.0,0.0,0.0,0.0,0.0,0.0,0.0,0.0,0.0,0.0,0.0,0.0,0.0,0.0,0.0,0.0,0.0,0.0,0.0,0.0,0.0,0.0,0.0,0.0,0.0,0.0,0.0,0.0,0.0,0.0,0.0,0.0,0.0,0.0,0.0,0.0,0.0,0.0,0.0,0.0,0.0,0.0,0.0,0.0,0.0,0.0,0.0,0.0,0.0,0.0,0.0,0.0,0.0,0.0,0.0,0.0,0.0,0.0,0.0,0.0,0.0,0.0,0.0,0.0,0.0,0.0,0.0,0.0,0.0,0.0,0.0,0.0,0.0,0.0,0.0,0.0,0.0,0.0,0.0,0.0,0.0,0.0,0.0,0.0,0.0,0.0,0.0,0.0,0.0,0.0,0.0,0.0,0.0,0.0,0.0,0.0,0.0,0.0,0.0,0.0,0.0,0.0,0.0,0.0,0.0,0.0,0.0,0.0,0.0,0.0,0.0,0.0,0.0,0.0,0.0,0.0,0.0,0.0,0.0,0.0,0.0,0.0,0.0,0.0,0.0,0.0,0.0,0.0,0.0,0.0,0.0,0.0,0.0,0.0,0.0,0.0,0.0,0.0,0.0,0.0,0.0,0.0,0.0,0.0,0.0,0.0,0.0,0.0,0.0,0.0,0.0,0.0,0.0,0.0,0.0,0.0,0.0,0.0,0.0,0.0,0.0,0.0,0.0,0.0,0.0,0.0,0.0,0.0,0.0,0.0,0.0,0.0,0.0,0.0,0.0,0.0,0.0,0.0,0.0,0.0,0.0,0.0,0.0,0.0,0.0,0.0,0.0,0.0,0.0,0.0,0.0,0.0,0.0,0.0,0.0,0.0,0.0,0.0,0.0,0.0,0.0,0.0,0.0,0.0,0.0,0.0,0.0,0.0,0.0,0.0,0.0,0.0,0.0,0.0,0.0,0.0,0.0,0.0,0.0,0.0,0.0,0.0,0.0,0.0,0.0,0.0,0.0,0.0,0.0,0.0,0.0,0.0,0.0,0.0,0.0,0.0,0.0,0.0,0.0,0.0,0.0,0.0,0.0,0.0,0.0,0.0,0.0,0.0,0.0,0.0,0.0,0.0,0.0,0.0,0.0,0.0,0.0,0.0,0.0,0.0,0.0,0.0,0.0,0.0,0.0,0.0,0.0,0.0,0.0,0.0,0.0,0.0,0.0,0.0,0.0,0.0,0.0,0.0,0.0,0.0,0.0,0.0,0.0,0.0,0.0,0.0,0.0,0.0,0.0,0.0,0.0,0.0,0.0,0.0,0.0,0.0,0.0,0.0,0.0,0.0,0.0,0.0,0.0,0.0,0.0,0.0,0.0,0.0,0.0,0.0,0.0,0.0,0.0,0.0,0.0,0.0,0.0,0.0,0.0,0.0,0.0,0.0,0.0,0.0,0.0,0.0,0.0,0.0,0.0,0.0,0.0,0.0,0.0,0.0,0.0,0.0,0.0,0.0,0.0,0.0,0.0,0.0,0.0,0.0,0.0,0.0,0.0,0.0,0.0,0.0,0.0,0.0,0.0,0.0,0.0,0.0,0.0,0.0,0.0,0.0,0.0,0.0,0.0,0.0,0.0,0.0,0.0,0.0,0.0,0.0,0.0,0.0,0.0,0.0,0.0,0.0,0.0,0.0,0.0,0.0,0.0,0.0,0.0,0.0,0.0,0.0,0.0,0.0,0.0,0.0,0.0,0.0,0.0,0.0,0.0,0.0,0.0,0.0,0.0,0.0,0.0,0.0,0.0,0.0,0.0,0.0,0.0,0.0,0.0,0.0,0.0,0.0,0.0,0.0,0.0,0.0,0.0,0.0,0.0,0.0,0.0,0.0,0.0,0.0,0.0,0.0,0.0,0.0,0.0,0.0,0.0,0.0,0.0,0.0,0.0,0.0,0.0,0.0,0.0,0.0,0.0,0.0,0.0,0.0,0.0,0.0,0.0,0.0,0.0,0.0,0.0,0.0,0.0,0.0,0.0,0.0,0.0,0.0,0.0,0.0,0.0,0.0,0.0,0.0,0.0,0.0,0.0,0.0,0.0,0.0,0.0,0.0,0.0,0.0,0.0,0.0,0.0,0.0,0.0,0.0,0.0,0.0,0.0,0.0,0.0,0.0,0.0,0.0,0.0,0.0,0.0,0.0,0.0,0.0,0.0,0.0,0.0,0.0,0.0,0.0,0.0,0.0,0.0,0.0,0.0,0.0,0.0,0.0,0.0,0.0,0.0,0.0,0.0,0.0,0.0,0.0,0.0,0.0,0.0,0.0,0.0,0.0,0.0,0.0,0.0,0.0,0.0,0.0,0.0,0.0,0.0,0.0,0.0,0.0,0.0,0.0,0.0,0.0,0.0,0.0,0.0,0.0,0.0,0.0,0.0,0.0,0.0,0.0,0.0,0.0,0.0,0.0,0.0,0.0,0.0,0.0,0.0,0.0,0.0,0.0,0.0,0.0,0.0,0.0,0.0,0.0,0.0,0.0,0.0,0.0,0.0,0.0,0.0,0.0,0.0,0.0,0.0,0.0,0.0,0.0,0.0,0.0,0.0,0.0,0.0,0.0,0.0,0.0,0.0,0.0,0.0,0.0,0.0,0.0,0.0,0.0,0.0,0.0,0.0,0.0,0.0,0.0,0.0,0.0,0.0,0.0,0.0,0.0,0.0,0.0,0.0,0.0,0.0,0.0,0.0,0.0,0.0,0.0,0.0,0.0,0.0,0.0,0.0,0.0,0.0,0.0,0.0,0.0,0.0,0.0,0.0,0.0,0.0,0.0,0.0,0.0,0.0,0.0,0.0,0.0,0.0,0.0,0.0,0.0,0.0,0.0,0.0,0.0,0.0,0.0,0.0,0.0,0.0,0.0,0.0,0.0,0.0,0.0,0.0,0.0,0.0,0.0,0.0,0.0,0.0,0.0,0.0,0.0,0.0,0.0,0.0,0.0,0.0,0.0,0.0,0.0,0.0,0.0,0.0,0.0,0.0,0.0,0.0,0.0,0.0,0.0,0.0,0.0,0.0,0.0,0.0,0.0,0.0,0.0,0.0,0.0,0.0,0.0,0.0,0.0,0.0,0.0,0.0,0.0,0.0,0.0,0.0,0.0,0.0,0.0,0.0,0.0,0.0,0.0,0.0,0.0,0.0,0.0,0.0,0.0,0.0,0.0,0.0,0.0,0.0,0.0,0.0,0.0,0.0,0.0,0.0,0.0,0.0,0.0,0.0,0.0,0.0,0.0,0.0,0.0,0.0,0.0,0.0,0.0,0.0,0.0,0.0,0.0,0.0,0.0,0.0,0.0,0.0,0.0,0.0,0.0,0.0,0.0,0.0,0.0,0.0,0.0,0.0,0.0,0.0,0.0,0.0,0.0,0.0,0.0,0.0,0.0,0.0,0.0,0.0,0.0,0.0,0.0,0.0,0.0,0.0,0.0,0.0,0.0,0.0,0.0,0.0,0.0,0.0,0.0,0.0,0.0,0.0,0.0,0.0,0.0,0.0,0.0,0.0,0.0,0.7229,0.0,0.0,0.0,0.0,0.0,0.0,0.0,0.0,0.0,0.0,0.0,0.0,0.0,0.0,0.0,0.0,0.0,0.0,0.0,0.0,0.0,0.0,0.0,0.0,0.0,0.0,0.0,0.0,0.0,0.0,0.0,0.0,0.0,0.0,0.0,0.0,0.0,0.0,0.0,0.0,0.0,0.0,0.0,0.0,0.0,0.0,0.0,0.0,0.0,0.0,0.0,0.0,0.0,0.0,0.0,0.0,0.0,0.0,0.0,0.0,0.0,0.0,0.0,0.0,0.0,0.0,0.0,0.0,0.0,0.0,0.0,0.0,0.0,0.0,0.0,0.0,0.0,0.0,0.0,0.0,0.0,0.0,0.0,0.0,0.0,0.0,0.0,0.0,0.0,0.0,0.0,0.0,0.0,0.0,0.0,0.0,0.0,0.0,0.0,0.0,0.0,0.0,0.0,0.0,0.0,0.0,0.0,0.0,0.0,0.0,0.9138,0.8978,0.8871,0.8566,0.8048,0.0,0.0,0.0,0.0,0.0,0.0,0.0,0.0,0.0,0.0,0.0,0.0,0.0,0.0,0.0,0.0,0.0,0.0,0.0,0.0,0.0,0.0,0.0,0.0,0.0,0.0,0.0,0.0,0.0,0.0,0.0,0.0,0.0,0.0,0.0,0.0,0.0,0.0,0.0,0.0,0.0,0.0,0.0,0.0,0.0,0.0,0.0,0.0,0.0,0.0,0.0,0.0,0.0,0.0,0.0,0.0,0.0,0.0,0.0,0.0,0.0,0.0,0.0,0.0,0.0,0.0,0.0,0.0,0.0,0.0,0.0,0.0,0.0,0.0,0.0,0.0,0.0,0.0,0.0,0.0,0.0,0.0,0.0,0.0,0.0,0.0,0.0,0.0,0.0,0.0,0.0,0.0,0.0,0.0,0.0,0.0,0.0,0.0,0.0,0.0,0.0,0.0,0.0,0.0,0.0,0.0,0.0,0.0,0.0,0.0,0.0,0.0,0.9219,0.9136,0.8997,0.0,0.0,0.0,0.0,0.0,0.0,0.0,0.0,0.0,0.0,0.0,0.0,0.0,0.0,0.0,0.0,0.0,0.0,0.0,0.0,0.0,0.0,0.0,0.0,0.0,0.0,0.0,0.0,0.0,0.0,0.0,0.0,0.0,0.0,0.0,0.0,0.0,0.0,0.0,0.0,0.0,0.0,0.0,0.0,0.0,0.0,0.0,0.0,0.0,0.0,0.0,0.0,0.0,0.0,0.0,0.0,0.0,0.0,0.0,0.0,0.0,0.0,0.0,0.0,0.0,0.0,0.0,0.0,0.0,0.0,0.0,0.0,0.0,0.0,0.0,0.0,0.0,0.0,0.0,0.0,0.0,0.0,0.0,0.0,0.0,0.0,0.0,0.0,0.0,0.0,0.0,0.0,0.0,0.0,0.0,0.0,0.0,0.0,0.0,0.0,0.0,0.0,0.0,0.0,0.0,0.0,0.0,0.0,0.0,0.0,0.9339,1.0399,1.0412,0.0,0.9599,0.0,0.0,0.0,0.0,0.0,0.0,0.0,0.0,0.0,0.0,0.0,0.0,0.0,0.0,0.0,0.0,0.0,0.0,0.0,0.0,0.0,0.0,0.0,0.0,0.0,0.0,0.0,0.0,0.0,0.0,0.0,0.0,0.0,0.0,0.0,0.0,0.0,0.0,0.0,0.0,0.0,0.0,0.0,0.0,0.0,0.0,0.0,0.0,0.0,0.0,0.0,0.0,0.0,0.0,0.0,0.0,0.0,0.0,0.0,0.0,0.0,0.0,0.0,0.0,0.0,0.0,0.0,0.0,0.0,0.0,0.0,0.0,0.0,0.0,0.0,0.0,0.0,0.0,0.0,0.0,0.0,0.0,0.0,0.0,0.0,0.0,0.0,0.0,0.0,0.0,0.0,0.0,0.0,0.0,0.0,0.0,0.0,0.0,0.0,0.0,0.0,0.0,0.0,0.0,0.0,0.0,0.0,0.0,0.0,0.0,0.9445,1.0289,0.9978,0.9793,0.0,0.0,0.0,0.0,0.0,0.0,0.0,0.0,0.0,0.0,0.0,0.0,0.0,0.0,0.0,0.0,0.0,0.0,0.0,0.0,0.0,0.0,0.0,0.0,0.0,0.0,0.0,0.0,0.0,0.0,0.0,0.0,0.0,0.0,0.0,0.0,0.0,0.0,0.0,0.0,0.0,0.0,0.0,0.0,0.0,0.0,0.0,0.0,0.0,0.0,0.0,0.0,0.0,0.0,0.0,0.0,0.0,0.0,0.0,0.0,0.0,0.0,0.0,0.0,0.0,0.0,0.0,0.0,0.0,0.0,0.0,0.0,0.0,0.0,0.0,0.0,0.0,0.0,0.0,0.0,0.0,0.0,0.0,0.0,0.0,0.0,0.0,0.0,0.0,0.0,0.0,0.0,0.0,0.0,0.0,0.0,0.0,0.0,0.0,0.0,0.0,0.0,0.0,0.0,0.0,0.0,0.0,0.0,0.0,0.0,0.9511,0.9804,1.0512,0.9826,0.958,0.9927,0.0,0.0,0.0,0.0,0.0,0.0,0.0,0.0,0.0,0.0,0.0,0.0,0.0,0.0,0.0,0.0,0.0,0.0,0.0,0.0,0.0,0.0,0.0,0.0,0.0,0.0,0.0,0.0,0.0,0.0,0.0,0.0,0.0,0.0,0.0,0.0,0.0,0.0,0.0,0.0,0.0,0.0,0.0,0.0,0.0,0.0,0.0,0.0,0.0,0.0,0.0,0.0,0.0,0.0,0.0,0.0,0.0,0.0,0.0,0.0,0.0,0.0,0.0,0.0,0.0,0.0,0.0,0.0,0.0,0.0,0.0,0.0,0.0,0.0,0.0,0.0,0.0,0.0,0.0,0.0,0.0,0.0,0.0,0.0,0.0,0.0,0.0,0.0,0.0,0.0,0.0,0.0,0.0,0.0,0.0,0.0,0.0,0.0,0.0,0.0,0.0,0.0,0.0,0.0,0.0,0.0,0.0,0.0,1.1591,1.0621,1.0621,1.1681,1.0434,0.9953,0.0,0.0,0.0,0.0,0.0,0.0,0.0,0.0,0.0,0.0,0.0,0.0,0.0,0.0,0.0,0.0,0.0,0.0,0.0,0.0,0.0,0.0,0.0,0.0,0.0,0.0,0.0,0.0,0.0,0.0,0.0,0.0,0.0,0.0,0.0,0.0,0.0,0.0,0.0,0.0,0.0,0.0,0.0,0.0,0.0,0.0,0.0,0.0,0.0,0.0,0.0,0.0,0.0,0.0,0.0,0.0,0.0,0.0,0.0,0.0,0.0,0.0,0.0,0.0,0.0,0.0,0.0,0.0,0.0,0.0,0.0,0.0,0.0,0.0,0.0,0.0,0.0,0.0,0.0,0.0,0.0,0.0,0.0,0.0,0.0,0.0,0.0,0.0,0.0,0.0,0.0,0.0,0.0,0.0,0.0,0.0,0.0,0.0,0.0,0.0,0.0,0.0,0.0,0.0,0.0,0.0,0.0,0.0,0.0,0.9888,1.0032,1.0408,1.1015,1.0004,0.97,0.0,0.0,0.0,0.0,0.0,0.0,0.0,0.0,0.0,0.0,0.0,0.0,0.0,0.0,0.0,0.0,0.0,0.0,0.0,0.0,0.0,0.0,0.0,0.0,0.0,0.0,0.0,0.0,0.0,0.0,0.0,0.0,0.0,0.0,0.0,0.0,0.0,0.0,0.0,0.0,0.0,0.0,0.0,0.0,0.0,0.0,0.0,0.0,0.0,0.0,0.0,0.0,0.0,0.0,0.0,0.0,0.0,0.0,0.0,0.0,0.0,0.0,0.0,0.0,0.0,0.0,0.0,0.0,0.0,0.0,0.0,0.0,0.0,0.0,0.0,0.0,0.0,0.0,0.0,0.0,0.0,0.0,0.0,0.0,0.0,0.0,0.0,0.0,0.0,0.0,0.0,0.0,0.0,0.0,0.0,0.0,0.0,0.0,0.0,0.0,0.0,0.0,0.0,0.0,0.0,0.0,0.0,0.0,0.0,0.9498,0.0,1.0324,1.0675,0.9883,0.9502,0.0,0.0,0.0,0.0,0.0,0.0,0.0,0.0,0.0,0.0,0.0,0.0,0.0,0.0,0.0,0.0,0.0,0.0,0.0,0.0,0.0,0.0,0.0,0.0,0.0,0.0,0.0,0.0,0.0,0.0,0.0,0.0,0.0,0.0,0.0,0.0,0.0,0.0,0.0,0.0,0.0,0.0,0.0,0.0,0.0,0.0,0.0,0.0,0.0,0.0,0.0,0.0,0.0,0.0,0.0,0.0,0.0,0.0,0.0,0.0,0.0,0.0,0.0,0.0,0.0,0.0,0.0,0.0,0.0,0.0,0.0,0.0,0.0,0.0,0.0,0.0,0.0,0.0,0.0,0.0,0.0,0.0,0.0,0.0,0.0,0.0,0.0,0.0,0.0,0.0,0.0,0.0,0.0,0.0,0.0,0.0,0.0,0.0,0.0,0.0,0.0,0.0,0.0,0.0,0.0,0.0,0.0,0.0,0.9483,1.0859,1.0467,1.0479,1.0962,1.0154,0.9418,0.0,0.0,0.0,0.0,0.0,0.0,0.0,0.0,0.0,0.0,0.0,0.0,0.0,0.0,0.0,0.0,0.0,0.0,0.0,0.0,0.0,0.0,0.0,0.0,0.0,0.0,0.0,0.0,0.0,0.0,0.0,0.0,0.0,0.0,0.0,0.0,0.0,0.0,0.0,0.0,0.0,0.0,0.0,0.0,0.0,0.0,0.0,0.0,0.0,0.0,0.0,0.0,0.0,0.0,0.0,0.0,0.0,0.0,0.0,0.0,0.0,0.0,0.0,0.0,0.0,0.0,0.0,0.0,0.0,0.0,0.0,0.0,0.0,0.0,0.0,0.0,0.0,0.0,0.0,0.0,0.0,0.0,0.0,0.0,0.0,0.0,0.0,0.0,0.0,0.0,0.0,0.0,0.0,0.0,0.0,0.0,0.0,0.0,0.0,0.0,0.0,0.0,0.0,0.0,0.0,0.0,0.0,0.0,0.0,1.007,1.0346,1.0934,1.1793,1.0245,0.9752,0.0,0.0,0.0,0.0,0.0,0.0,0.0,0.0,0.0,0.0,0.0,0.0,0.0,0.0,0.0,0.0,0.0,0.0,0.0,0.0,0.0,0.0,0.0,0.0,0.0,0.0,0.0,0.0,0.0,0.0,0.0,0.0,0.0,0.0,0.0,0.0,0.0,0.0,0.0,0.0,0.0,0.0,0.0,0.0,0.0,0.0,0.0,0.0,0.0,0.0,0.0,0.0,0.0,0.0,0.0,0.0,0.0,0.0,0.0,0.0,0.0,0.0,0.0,0.0,0.0,0.0,0.0,0.0,0.0,0.0,0.0,0.0,0.0,0.0,0.0,0.0,0.0,0.0,0.0,0.0,0.0,0.0,0.0,0.0,0.0,0.0,0.0,0.0,0.0,0.0,0.0,0.0,0.0,0.0,0.0,0.0,0.0,0.0,0.0,0.0,0.0,0.0,0.0,0.0,0.0,0.0,0.0,0.0,0.0,1.0286,1.0504,1.0983,1.1798,1.0555,1.0083,1.0507,0.0,0.0,0.0,0.0,0.0,0.0,0.0,0.0,0.0,0.0,0.0,0.0,0.0,0.0,0.0,0.0,0.0,0.0,0.0,0.0,0.0,0.0,0.0,0.0,0.0,0.0,0.0,0.0,0.0,0.0,0.0,0.0,0.0,0.0,0.0,0.0,0.0,0.0,0.0,0.0,0.0,0.0,0.0,0.0,0.0,0.0,0.0,0.0,0.0,0.0,0.0,0.0,0.0,0.0,0.0,0.0,0.0,0.0,0.0,0.0,0.0,0.0,0.0,0.0,0.0,0.0,0.0,0.0,0.0,0.0,0.0,0.0,0.0,0.0,0.0,0.0,0.0,0.0,0.0,0.0,0.0,0.0,0.0,0.0,0.0,0.0,0.0,0.0,0.0,0.0,0.0,0.0,0.0,0.0,0.0,0.0,0.0,0.0,0.0,0.0,0.0,0.0,0.0,0.0,0.0,0.0,0.0,0.0,1.1308,1.1,1.0995,1.1278,1.1094,1.0497,0.0,0.0,0.0,0.0,0.0,0.0,0.0,0.0,0.0,0.0,0.0,0.0,0.0,0.0,0.0,0.0,0.0,0.0,0.0,0.0,0.0,0.0,0.0,0.0,0.0,0.0,0.0,0.0,0.0,0.0,0.0,0.0,0.0,0.0,0.0,0.0,0.0,0.0,0.0,0.0,0.0,0.0,0.0,0.0,0.0,0.0,0.0,0.0,0.0,0.0,0.0,0.0,0.0,0.0,0.0,0.0,0.0,0.0,0.0,0.0,0.0,0.0,0.0,0.0,0.0,0.0,0.0,0.0,0.0,0.0,0.0,0.0,0.0,0.0,0.0,0.0,0.0,0.0,0.0,0.0,0.0,0.0,0.0,0.0,0.0,0.0,0.0,0.0,0.0,0.0,0.0,0.0,0.0,0.0,0.0,0.0,0.0,0.0,0.0,0.0,0.0,0.0,0.0,0.0,0.0,0.0,0.0,0.0,0.0,1.1574,1.2983,1.3816,1.39,1.2228,1.1269,0.0,0.0,0.0,0.0,0.0,0.0,0.0,0.0,0.0,0.0,0.0,0.0,0.0,0.0,0.0,0.0,0.0,0.0,0.0,0.0,0.0,0.0,0.0,0.0,0.0,0.0,0.0,0.0,0.0,0.0,0.0,0.0,0.0,0.0,0.0,0.0,0.0,0.0,0.0,0.0,0.0,0.0,0.0,0.0,0.0,0.0,0.0,0.0,0.0,0.0,0.0,0.0,0.0,0.0,0.0,0.0,0.0,0.0,0.0,0.0,0.0,0.0,0.0,0.0,0.0,0.0,0.0,0.0,0.0,0.0,0.0,0.0,0.0,0.0,0.0,0.0,0.0,0.0,0.0,0.0,0.0,0.0,0.0,0.0,0.0,0.0,0.0,0.0,0.0,0.0,0.0,0.0,0.0,0.0,0.0,0.0,0.0,0.0,0.0,0.0,0.0,0.0,0.0,0.0,0.0,0.0,0.0,0.0,1.1351,1.161,1.3505,1.4602,1.4836,1.3574,1.2498,0.0,0.0,0.0,0.0,0.0,0.0,0.0,0.0,0.0,0.0,0.0,0.0,0.0,0.0,0.0,0.0,0.0,0.0,0.0,0.0,0.0,0.0,0.0,0.0,0.0,0.0,0.0,0.0,0.0,0.0,0.0,0.0,0.0,0.0,0.0,0.0,0.0,0.0,0.0,0.0,0.0,0.0,0.0,0.0,0.0,0.0,0.0,0.0,0.0,0.0,0.0,0.0,0.0,0.0,0.0,0.0,0.0,0.0,0.0,0.0,0.0,0.0,0.0,0.0,0.0,0.0,0.0,0.0,0.0,0.0,0.0,0.0,0.0,0.0,0.0,0.0,0.0,0.0,0.0,0.0,0.0,0.0,0.0,0.0,0.0,0.0,0.0,0.0,0.0,0.0,0.0,0.0,0.0,0.0,0.0,0.0,0.0,0.0,0.0,0.0,0.0,0.0,0.0,0.0,0.0,0.0,0.0,0.0,1.1457,1.1807,1.3432,1.446,1.4823,1.4698,1.3642,0.0,0.0,0.0,0.0,0.0,0.0,0.0,0.0,0.0,0.0,0.0,0.0,0.0,0.0,0.0,0.0,0.0,0.0,0.0,0.0,0.0,0.0,0.0,0.0,0.0,0.0,0.0,0.0,0.0,0.0,0.0,0.0,0.0,0.0,0.0,0.0,0.0,0.0,0.0,0.0,0.0,0.0,0.0,0.0,0.0,0.0,0.0,0.0,0.0,0.0,0.0,0.0,0.0,0.0,0.0,0.0,0.0,0.0,0.0,0.0,0.0,0.0,0.0,0.0,0.0,0.0,0.0,0.0,0.0,0.0,0.0,0.0,0.0,0.0,0.0,0.0,0.0,0.0,0.0,0.0,0.0,0.0,0.0,0.0,0.0,0.0,0.0,0.0,0.0,0.0,0.0,0.0,0.0,0.0,0.0,0.0,0.0,0.0,0.0,0.0,0.0,0.0,0.0,0.0,0.0,0.0,0.0,0.0,1.2184,1.3183,1.5112,1.6197,1.6324,1.3963,1.233,0.0,0.0,0.0,0.0,0.0,0.0,0.0,0.0,0.0,0.0,0.0,0.0,0.0,0.0,0.0,0.0,0.0,0.0,0.0,0.0,0.0,0.0,0.0,0.0,0.0,0.0,0.0,0.0,0.0,0.0,0.0,0.0,0.0,0.0,0.0,0.0,0.0,0.0,0.0,0.0,0.0,0.0,0.0,0.0,0.0,0.0,0.0,0.0,0.9752,0.0,0.0,0.0,0.0,0.0,0.0,0.0,0.0,0.0,0.0,0.0,0.0,0.0,0.0,0.0,0.0,0.0,0.0,0.0,0.0,0.0,0.0,0.0,0.0,0.0,0.0,0.0,0.0,0.0,0.0,0.0,0.0,0.0,0.0,0.0,0.0,0.0,0.0,0.0,0.0,0.0,0.0,0.0,0.0,0.0,0.0,0.0,0.0,0.0,0.0,0.0,0.0,0.0,0.0,0.0,0.0,0.0,0.0,0.0,1.2293,1.3417,1.5144,1.6013,1.5759,1.4068,1.295,0.0,0.0,0.0,0.0,0.0,0.0,0.0,0.0,0.0,0.0,0.0,0.0,0.0,0.0,0.0,0.0,0.0,0.0,0.0,0.0,0.0,0.0,0.0,0.0,0.0,0.0,0.0,0.0,0.0,0.0,0.0,0.0,0.0,0.0,0.0,0.0,0.0,0.0,0.0,0.0,0.0,0.0,0.0,0.0,0.0,0.0,0.0,0.0,0.0,0.0,0.0,0.0,0.0,0.0,0.0,0.0,0.0,0.0,0.0,0.0,0.0,0.0,0.0,0.0,0.0,0.0,0.0,0.0,0.0,0.0,0.0,0.0,0.0,0.0,0.0,0.0,0.0,0.0,0.0,0.0,0.0,0.0,0.0,0.0,0.0,0.0,0.0,0.0,0.0,0.0,0.0,0.0,0.0,0.0,0.0,0.0,0.0,0.0,0.0,0.0,0.0,0.0,0.0,0.0,0.0,0.0,0.0,1.1235,1.2062,1.3273,1.4503,1.5022,1.4759,1.4583,1.4169,1.3478,0.0,0.0,0.0,0.0,0.0,0.0,0.0,0.0,0.0,0.0,0.0,0.0,0.0,0.0,0.0,0.0,0.0,0.0,0.0,0.0,0.0,0.0,0.0,0.0,0.0,0.0,0.0,0.0,0.0,0.0,0.0,0.0,0.0,0.0,0.0,0.0,0.0,0.0,0.986,1.0519,0.0,0.0,0.0,0.0,0.0,0.0,0.0,0.0,1.0517,0.0,0.0,0.0,0.0,0.0,0.0,0.0,0.0,0.0,0.0,0.0,0.0,0.0,0.0,0.0,0.0,0.0,0.0,0.0,0.0,0.0,0.0,0.0,0.0,0.0,0.0,0.0,0.0,0.0,0.0,0.0,0.0,0.0,0.0,0.0,0.0,0.0,0.0,0.0,0.0,0.0,0.0,0.0,0.0,0.0,0.0,0.0,0.0,0.0,0.0,0.0,0.0,0.0,0.0,0.0,0.0,1.0697,1.0644,1.1545,1.3487,1.3951,1.4394,1.4942,1.5228,1.4563,1.2837,0.0,0.0,0.0,0.0,0.0,0.0,0.0,0.0,0.0,0.0,0.0,0.0,0.0,0.0,0.0,0.0,0.0,0.0,0.0,0.0,0.0,0.0,0.0,0.0,0.0,0.0,0.0,0.0,0.0,0.0,0.0,0.0,0.0,0.0,0.0,0.0,0.0,0.0,0.0,1.1882,1.2368,0.0,0.0,0.0,0.0,0.0,0.0,0.0,0.0,1.0581,0.0,0.0,0.0,0.0,0.0,0.0,0.0,0.0,0.0,0.0,0.0,0.0,0.0,0.0,0.0,0.0,0.0,0.0,0.0,0.0,0.0,0.0,0.0,0.0,0.0,0.0,0.0,0.0,0.0,0.0,0.0,0.0,0.0,0.0,0.0,0.0,0.0,0.0,0.0,0.0,0.0,0.0,0.0,0.0,0.0,0.0,0.0,0.0,0.0,0.0,0.0,0.0,0.0,0.0,0.0,1.0877,1.0868,1.1618,1.3249,1.3843,1.4163,1.4211,1.4246,1.364,0.0,0.0,0.0,0.0,0.0,0.0,0.0,0.0,0.0,0.0,0.0,0.0,0.0,0.0,0.0,0.0,0.0,0.0,0.0,0.0,0.0,0.0,0.0,0.0,0.0,0.0,0.0,0.0,0.0,0.0,0.0,0.0,0.0,0.0,0.0,0.0,0.0,0.0,0.0,0.0,1.231,1.273,1.2583,0.0,0.0,0.0,0.0,0.0,0.0,1.1279,1.1072,0.0,0.0,0.0,0.0,0.0,0.0,0.0,0.0,0.0,0.0,0.0,0.0,0.0,0.0,0.0,0.0,0.0,0.0,0.0,0.0,0.0,0.0,0.0,0.0,0.0,0.0,0.0,0.0,0.0,0.0,0.0,0.0,0.0,0.0,0.0,0.0,0.0,0.0,0.0,0.0,0.0,0.0,0.0,0.0,0.0,0.0,0.0,0.0,0.0,0.0,0.0,0.0,0.0,0.0,0.0,1.1065,1.1002,1.1476,1.2525,1.3309,1.3424,1.2934,1.27,1.2329,0.0,0.0,0.0,0.0,0.0,0.0,0.0,0.0,0.0,0.0,0.0,0.0,0.0,0.0,0.0,0.0,0.0,0.0,0.0,0.0,0.0,0.0,0.0,0.0,0.0,0.0,0.0,0.0,0.0,0.0,0.0,0.0,0.0,0.0,0.0,0.0,0.0,0.0,0.0,0.0,0.0,1.3266,1.3079,1.2703,0.0,0.0,0.0,0.0,1.2256,1.2265,0.0,0.0,0.0,0.0,0.0,0.0,0.0,0.0,0.0,0.0,0.0,0.0,0.0,0.0,0.0,0.0,0.0,0.0,0.0,0.0,0.0,0.0,0.0,0.0,0.0,0.0,0.0,0.0,0.0,0.0,0.0,0.0,0.0,0.0,0.0,0.0,0.0,0.0,0.0,0.0,0.0,0.0,0.0,0.0,0.0,0.0,0.0,0.0,0.0,0.0,0.0,0.0,0.0,0.0,0.0,0.0,1.0709,1.0365,1.045,1.1019,1.1164,1.1133,1.0933,1.1057,1.0983,0.0,0.0,0.0,0.0,0.0,0.0,0.0,0.0,0.0,0.0,0.0,0.0,0.0,0.0,0.0,0.0,0.0,0.0,0.0,0.0,0.0,0.0,0.0,0.0,0.0,0.0,0.0,0.0,0.0,0.0,0.0,0.0,0.0,0.0,0.0,0.0,0.0,0.0,0.0,0.0,0.0,1.4839,1.4063,1.4095,1.39,0.0,0.0,1.342,1.3808,1.4477,0.0,0.0,0.0,0.0,0.0,0.0,0.0,0.0,0.0,0.0,0.0,0.0,0.0,0.0,0.0,0.0,0.0,0.0,0.0,0.0,0.0,0.0,0.0,0.0,0.0,0.0,0.0,0.0,0.0,0.0,0.0,0.0,0.0,0.0,0.0,0.0,0.0,0.0,0.0,0.0,0.0,0.0,0.0,0.0,0.0,0.0,0.0,0.0,0.0,0.0,0.0,0.0,0.0,0.0,0.0,0.9958,1.0276,0.9946,0.9945,1.0274,1.0428,1.0347,1.004,0.9481,0.9458,0.0,0.0,0.0,0.0,0.0,0.0,0.0,0.0,0.0,0.0,0.0,0.0,0.0,0.0,0.0,0.0,0.0,0.0,0.0,0.0,0.0,0.0,0.0,0.0,0.0,0.0,0.0,0.0,0.0,0.0,0.0,0.0,0.0,0.0,0.0,0.0,0.0,0.0,0.0,0.0,0.0,0.0,1.4638,1.4852,0.0,0.0,0.0,1.4683,1.4816,0.0,0.0,0.0,0.0,0.0,0.0,0.0,0.0,0.0,0.0,0.0,0.0,0.0,0.0,0.0,0.0,0.0,0.0,0.0,0.0,0.0,0.0,0.0,0.0,0.0,0.0,0.0,0.0,0.0,0.0,0.0,0.0,0.0,0.0,0.0,0.0,0.0,0.0,0.0,0.0,0.0,0.0,0.0,0.0,0.0,0.0,0.0,0.0,0.0,0.0,0.0,0.0,0.0,0.0,0.0,0.0,0.0,1.0136,0.9628,0.952,0.9822,0.9975,0.986,0.942,0.8418,0.0,0.0,0.0,0.0,0.0,0.0,0.0,0.0,0.0,0.0,0.0,0.0,0.0,0.0,0.0,0.0,0.0,0.0,0.0,0.0,0.0,0.0,0.0,0.0,0.0,0.0,0.0,0.8147,0.0,0.0,0.0,0.0,0.0,0.0,0.0,0.0,0.0,0.0,0.0,0.0,0.0,0.0,1.4923,1.5173,1.5641,1.5845,0.0,0.0,1.5805,1.5738,1.5882,1.5574,0.0,0.0,0.0,0.0,0.0,0.0,0.0,0.0,0.0,0.0,0.0,0.0,0.0,0.0,0.0,0.0,0.0,0.0,0.0,0.0,0.0,0.0,0.0,0.0,0.0,0.0,0.0,0.0,0.0,0.0,0.0,0.0,0.0,0.0,0.0,0.0,0.0,0.0,0.0,0.0,0.0,0.0,0.0,0.0,0.0,0.0,0.0,0.0,0.0,0.0,0.0,0.0,0.0,0.0,0.0,1.0494,0.9368,0.905,0.9594,0.9507,0.9303,0.8947,0.8187,0.8336,0.0,0.0,0.0,0.0,0.0,0.0,0.0,0.0,0.0,0.0,0.0,0.0,0.0,0.0,0.0,0.0,0.0,0.0,0.0,0.0,0.0,0.0,0.0,0.0,0.0,0.0,0.0,0.0,0.0,0.0,0.0,0.0,0.0,0.0,0.0,0.0,0.0,0.0,0.0,0.0,0.0,1.5728,1.5741,1.6727,1.7354,0.0,0.0,1.6966,1.666,1.7729,1.7689,1.4914,0.0,0.0,0.0,0.0,0.0,0.0,0.0,0.0,0.0,0.0,0.0,0.0,0.0,0.0,0.0,0.0,0.0,0.0,0.0,0.0,0.0,0.0,0.0,0.0,0.0,0.0,0.0,0.0,0.0,0.0,0.0,0.0,0.0,0.0,0.0,0.0,0.0,0.0,0.0,0.0,0.0,0.0,0.0,0.0,0.0,0.0,0.0,0.0,0.0,0.0,0.0,0.0,0.0,0.9809,1.0324,0.9243,0.8913,0.9335,0.9301,0.9144,0.8912,0.8094,0.7986,0.0,0.0,0.0,0.0,0.0,0.0,0.0,0.0,0.0,0.0,0.0,0.0,0.0,0.0,0.0,0.0,0.0,0.0,0.0,0.0,0.0,0.0,0.0,0.0,0.0,0.0,0.0,0.0,0.8984,0.9095,0.9176,0.0,0.0,0.0,0.0,0.0,0.0,0.0,0.0,0.0,0.0,1.4456,1.5138,1.6117,0.0,0.0,1.7437,1.7528,1.7073,1.7301,1.6927,1.5106,1.4594,0.0,0.0,0.0,0.0,0.0,0.0,0.0,0.0,0.0,0.0,0.0,0.0,0.0,0.0,0.0,0.0,0.0,0.0,0.0,0.0,0.0,0.0,0.0,0.0,0.0,0.0,0.0,0.0,0.0,0.0,0.0,0.0,0.0,0.0,0.0,0.0,0.0,0.0,0.0,0.0,0.0,0.0,0.0,0.0,0.0,0.0,0.0,0.0,0.0,0.0,0.0,0.0,0.9795,1.0025,0.9156,0.8872,0.9247,0.9165,0.9001,0.8764,0.8058,0.7834,0.0,0.0,0.0,0.0,0.0,0.0,0.0,0.0,0.0,0.0,0.0,0.0,0.0,0.0,0.0,0.0,0.0,0.0,0.0,0.0,0.0,0.0,0.0,0.0,0.0,0.0,0.0,0.0,0.9404,0.9536,0.9608,0.0,0.0,0.0,0.0,0.0,0.0,0.0,0.0,0.0,0.0,1.3322,1.4301,1.5405,1.6309,1.6859,1.7471,1.7769,1.7367,1.6765,1.5963,1.4764,0.0,0.0,0.0,0.0,0.0,0.0,0.0,0.0,0.0,0.0,0.0,0.0,0.0,0.0,0.0,0.0,0.0,0.0,0.0,0.0,0.0,0.0,0.0,0.0,0.0,0.0,0.0,0.0,0.0,0.0,1.2344,0.0,0.0,0.0,0.0,0.0,0.0,0.0,0.0,0.0,0.0,0.0,0.0,0.0,0.0,0.0,0.0,0.0,0.0,0.0,0.0,0.0,0.0,0.9672,0.96,0.9015,0.8927,0.9347,0.9068,0.8811,0.8513,0.8052,0.7918,0.8199,0.0,0.0,0.0,0.0,0.0,0.0,0.0,0.0,0.0,0.0,0.0,0.0,0.0,0.0,0.0,0.0,0.0,0.0,0.0,0.0,0.0,0.0,0.0,0.0,0.0,0.0,0.8803,0.92,0.962,0.0,0.0,0.0,0.0,0.0,0.0,0.0,0.0,0.0,0.0,1.159,1.2658,1.3315,1.4826,1.5939,1.6396,1.7075,1.7542,1.7489,1.643,1.5142,0.0,0.0,0.0,0.0,0.0,0.0,0.0,0.0,0.0,0.0,0.0,0.0,0.0,0.0,0.0,0.0,0.0,0.0,0.0,0.0,0.0,0.0,0.0,0.0,0.0,0.0,0.0,1.2771,1.2752,0.0,0.0,0.0,0.0,0.0,0.0,0.0,0.0,0.0,0.0,0.0,1.1444,1.096,0.0,0.0,0.0,0.0,0.0,0.0,0.0,0.0,0.0,0.0,0.0,0.0,0.9212,0.9251,0.9003,0.8953,0.9247,0.9158,0.8988,0.8764,0.835,0.8042,0.7858,0.0,0.0,0.0,0.0,0.0,0.0,0.0,0.0,0.0,0.0,0.0,0.0,0.0,0.0,0.0,0.0,0.0,0.0,0.0,0.0,0.0,0.0,0.0,0.0,0.0,1.0118,0.0,0.0,0.0,0.0,0.0,0.0,0.0,0.0,0.0,0.0,0.0,0.9914,1.0114,1.0587,1.1085,1.1495,1.2486,1.3402,0.0,0.0,0.0,0.0,0.0,0.0,0.0,0.0,0.0,0.0,0.0,0.0,0.0,0.0,1.1227,1.1421,1.1731,1.2064,1.2372,0.0,0.0,0.0,0.0,0.0,0.0,0.0,0.0,0.0,0.0,0.0,0.0,0.0,0.0,1.2723,0.0,1.2579,0.0,0.0,0.0,0.0,0.0,0.0,0.0,0.0,1.1331,1.1262,1.1425,1.0866,1.0739,0.0,1.0805,1.082,0.0,0.0,0.0,0.0,0.0,0.0,0.0,0.0,0.8783,0.8658,0.8765,0.8899,0.9097,0.9104,0.8981,0.875,0.8296,0.7923,0.7611,0.7704,0.7647,0.0,0.0,0.0,0.0,0.0,0.0,0.0,0.0,0.0,0.0,0.0,0.0,0.0,0.0,0.0,0.0,0.0,0.0,0.0,0.0,0.0,0.0,0.0,1.0128,0.0,0.0,0.0,0.0,0.0,0.0,0.0,0.0,0.0,1.074,0.9917,0.9323,0.9448,0.9568,0.9727,1.0017,0.0,0.0,0.0,0.0,0.0,0.0,0.0,1.2203,1.2021,1.1875,1.189,1.2149,1.188,1.1737,1.2073,0.0,0.0,1.1428,1.1756,1.2074,1.2384,1.2434,1.2529,1.3103,1.2812,1.2686,0.0,0.0,0.0,0.0,0.0,0.0,0.0,0.0,1.2053,1.2405,0.0,1.2333,0.0,0.0,0.0,0.0,0.0,1.1315,0.0,0.0,1.0689,1.0623,1.0455,1.0335,1.0135,0.9923,0.9963,1.0004,1.0094,1.014,0.0,0.0,0.0,0.0,0.0,0.0,0.8446,0.789,0.8418,0.8757,0.8906,0.8912,0.877,0.8492,0.7943,0.7587,0.7419,0.7612,0.7793,0.7951,0.8961,0.0,0.0,0.0,0.0,0.0,0.0,0.0,0.0,0.0,0.0,0.0,0.0,0.0,0.0,0.0,0.0,0.0,0.0,0.0,0.0,0.9272,0.0,0.0,0.0,0.0,0.0,0.0,0.0,0.0,0.0,0.0,1.0084,0.9488,0.8871,0.8576,0.0,0.0,0.0,0.0,1.0707,1.0906,1.1819,1.2637,1.3084,1.2192,1.1431,1.1399,0.0,0.0,1.171,1.1249,1.1042,1.1693,1.1571,1.1216,1.111,1.1667,1.2156,1.2367,1.2119,1.2101,1.2713,1.2186,1.1541,1.2711,0.0,0.0,0.0,0.0,1.2886,1.2792,1.2705,1.2552,1.2418,1.232,1.2173,0.0,0.0,0.0,0.0,0.0,0.0,1.1931,1.1594,1.1764,1.1631,1.1187,1.1144,1.0906,1.0558,1.0292,0.999,0.9599,0.9398,0.9657,1.0394,0.0,0.0,0.0,0.0,0.8014,0.819,0.8513,0.8757,0.8906,0.8912,0.8791,0.8519,0.8342,0.8036,0.7556,0.7792,0.7698,0.7268,0.8191,0.0,0.0,0.0,0.0,0.0,0.0,0.0,0.0,0.0,0.0,0.0,0.0,0.0,0.0,0.0,0.0,0.0,0.0,0.0,0.9058,0.8586,0.8433,0.0,0.0,0.0,0.0,0.0,0.0,0.0,0.0,0.0,1.0004,0.9187,0.862,0.0,0.0,0.8477,0.8783,0.8998,0.9275,0.9659,1.0092,0.0,1.0875,1.0729,1.0609,1.066,1.0885,1.1261,1.1833,1.1755,1.1801,1.2286,1.2254,1.2197,1.2132,1.1993,1.1892,1.1807,1.1862,1.2051,1.2379,1.2304,1.2247,1.2517,1.2298,1.2743,1.3028,1.322,1.3098,1.2955,1.2759,1.2555,1.2429,1.2372,1.2145,1.2302,1.2647,1.2406,0.0,0.0,0.0,1.2055,1.2001,1.1954,1.1888,1.1681,1.1421,1.1158,1.0863,1.0521,1.0087,0.9551,0.9291,0.9399,0.9793,0.0,0.0,0.8421,0.8074,0.8022,0.8294,0.856,0.8757,0.8818,0.8764,0.8669,0.8492,0.837,0.814,0.777,0.7858,0.7695,0.7217,0.7974,0.8293,0.0,0.0,0.0,0.0,0.0,0.0,0.0,0.0,0.0,0.0,0.0,0.9487,0.99,0.0,0.0,0.0,0.9358,0.8937,0.8376,0.8117,0.0,0.0,0.0,0.0,0.0,0.0,0.0,0.9041,0.8808,0.8785,0.9296,0.886,0.8648,0.9117,0.877,0.8533,0.8743,0.0,0.8708,0.9022,0.9178,0.939,0.9776,0.998,1.0186,1.0508,1.0871,1.1272,1.1714,1.1874,1.2028,1.228,1.2442,1.249,1.249,1.2304,1.2142,1.1994,1.2116,1.2312,1.2564,1.2735,1.2865,1.2337,1.2342,1.3564,1.3746,1.3262,1.3453,1.3122,1.2385,1.2393,1.2548,1.2742,1.2288,1.2384,1.2979,1.2382,0.0,1.2279,1.1606,1.15,1.1811,1.1618,1.1666,1.1871,1.1297,1.0987,1.0983,1.0676,1.029,0.9852,0.972,0.9347,0.8764,0.8499,0.8262,0.8067,0.8201,0.8315,0.8355,0.8581,0.8689,0.8669,0.8554,0.8492,0.8453,0.8182,0.802,0.7993,0.7864,0.774,0.7607,0.805,0.8239,0.8007,0.0,0.0,0.0,0.0,0.0,0.0,0.0,0.0,0.0,0.0,0.0,0.0,0.0,0.0,0.0,0.8706,0.0,0.7473,0.7797,0.0,0.0,0.0,0.7638,0.7009,0.7087,0.7229,0.7416,0.0,0.0,0.8294,0.8554,0.8845,0.9145,0.8927,0.875,0.8926,0.8804,0.875,0.8933,0.8954,0.9113,0.9553,0.9824,1.017,1.064,1.0926,1.1169,1.1438,1.1695,1.1857,1.2052,1.2207,1.2345,1.2353,1.2572,1.275,1.2621,1.2604,1.271,1.2946,1.3027,1.3076,1.2247,1.2352,1.2505,1.2592,1.2718,1.3054,1.3178,1.315,1.315,1.2938,1.2621,1.2523,1.2347,1.21,1.205,1.2142,1.2295,1.2121,1.201,1.1948,1.1807,1.1559,1.1232,1.1077,1.0977,1.0919,1.075,1.0548,1.0324,1.0042,0.9731,0.9401,0.9211,0.8893,0.8417,0.8335,0.8438,0.875,0.8737,0.8655,0.8564,0.8412,0.8282,0.8144,0.8181,0.8106,0.7875,0.781,0.7692,0.7464,0.7558,0.7508,0.7218,0.7112,0.0,0.0,0.0,0.0,0.0,0.0,0.0,0.0,0.0,0.8504,0.9009,0.0,0.8524,0.0,0.7952,0.7582,0.7412,0.7509,0.0,0.0,0.7514,0.7599,0.7464,0.754,0.7641,0.7706,0.8099,0.8391,0.8457,0.8818,0.9097,0.9193,0.8893,0.8818,0.9198,0.9021,0.8906,0.9097,0.93,0.9476,0.9589,1.0019,1.0369,1.0553,1.0927,1.1244,1.1335,1.1697,1.2028,1.2207,1.2385,1.254,1.267,1.2759,1.2783,1.2783,1.2742,1.2759,1.2856,1.2864,1.288,1.2162,1.2272,1.208,1.2201,1.2521,1.2925,1.3303,1.3638,1.3604,1.3427,1.3043,1.2987,1.2792,1.2523,1.2499,1.2605,1.2767,1.2506,1.2351,1.2233,1.1853,1.1464,1.1086,1.0949,1.0842,1.0806,1.0725,1.0643,1.0487,1.0231,0.9967,0.9677,0.9618,0.9381,0.8994,0.8798,0.8818,0.9028,0.8748,0.8517,0.8285,0.8075,0.799,0.7987,0.7935,0.7834,0.7726,0.7651,0.7532,0.7285,0.7272,0.7197,0.6984,0.6923,0.6897,0.0,0.0,0.0,0.0,0.0,0.0,0.0,0.0,0.0,0.0,0.0,0.7953,0.796,0.7745,0.757,0.757,0.7509,0.7498,0.7498,0.7604,0.7692,0.7692,0.7882,0.8011,0.8018,0.8315,0.8532,0.8581,0.8859,0.9062,0.9055,0.8995,0.9022,0.9247,0.9184,0.9164,0.9267,0.9424,0.9538,0.96,0.9878,1.0139,1.0332,1.0741,1.1118,1.1277,1.1692,1.2085,1.224,1.2482,1.2653,1.2767,1.2799,1.2799,1.2799,1.2799,1.2799,1.2799,1.2799,1.2799,1.2132,1.2121,1.198,1.2192,1.2574,1.2865,1.3306,1.3831,1.3831,1.375,1.3561,1.3441,1.3402,1.3394,1.3196,1.3186,1.3324,1.2746,1.2458,1.245,1.1779,1.1349,1.1122,1.085,1.0698,1.0744,1.0698,1.0656,1.0514,1.0378,1.013,0.9798,0.9764,0.9697,0.951,0.9245,0.9134,0.9122,0.8678,0.8286,0.8007,0.7714,0.7689,0.7869,0.7509,0.7378,0.7449,0.7322,0.7204,0.7056,0.7063,0.7083,0.7141,0.7033,0.7026,0.0,0.706,0.0,0.0,0.0,0.0,0.0,0.0,0.0,0.0,0.7326,0.7539,0.7787,0.7814,0.7821,0.781,0.7746,0.7692,0.7712,0.7821,0.7902,0.7936,0.8172,0.8335,0.8349,0.8478,0.8594,0.8723,0.8858,0.8967,0.9007,0.9172,0.9254,0.9282,0.9315,0.9362,0.9424,0.9408,0.9507,0.9587,0.9618,0.9735,1.007,1.0456,1.0853,1.1225,1.1648,1.2071,1.2281,1.2523,1.2653,1.2775,1.2799,1.2799,1.2799,1.2799,1.2799,1.2799,1.2799,1.2799,1.2288,1.2227,1.1698,1.2066,1.288,1.259,1.2846,1.3508,1.3508,1.3484,1.3459,1.3419,1.3402,1.3384,1.3178,1.3137,1.3126,1.2574,1.2148,1.1866,1.1445,1.111,1.079,1.0717,1.0752,1.086,1.0745,1.0671,1.0644,1.0527,1.0198,0.974,0.9661,0.9472,0.9125,0.0,0.0,0.0,0.8329,0.8054,0.7985,0.7641,0.7407,0.7343,0.707,0.0,0.6706,0.664,0.6631,0.6692,0.6797,0.0,0.0,0.0,0.0,0.0,0.0,0.0,0.0,0.0,0.0,0.0,0.7502,0.7482,0.7509,0.7543,0.7624,0.7794,0.7814,0.7837,0.7959,0.8092,0.8219,0.8328,0.8336,0.8404,0.852,0.8486,0.8486,0.8615,0.873,0.8831,0.8824,0.9102,0.9264,0.9207,0.9429,0.9517,0.9481,0.9311,0.9328,0.9539,0.9557,0.9571,0.9605,0.9707,0.9781,0.9909,1.0158,1.0571,1.1071,1.1541,1.2028,1.2411,1.2661,1.2759,1.2799,1.2799,1.2799,1.2799,1.2799,1.2799,1.2799,1.2799,1.2799,1.2291,0.0,1.1721,1.1915,0.0,1.237,1.2612,1.3144,1.3485,1.3671,1.3628,1.3365,1.3263,1.3229,1.2882,1.2708,1.27,1.2237,1.1846,1.1596,1.1237,1.0925,1.0717,1.0717,1.0732,1.0799,1.0558,1.0459,1.0412,1.0071,0.98,0.9536,0.9469,0.9374,0.9182,0.8863,0.86,0.8347,0.8125,0.7892,0.7651,0.7444,0.7278,0.7191,0.6948,0.0,0.0,0.0,0.0,0.0,0.0,0.0,0.0,0.733,0.0,0.7567,0.7597,0.7631,0.7699,0.7682,0.7773,0.7923,0.7997,0.797,0.7804,0.795,0.8065,0.8133,0.8208,0.8282,0.8338,0.8445,0.8407,0.8182,0.8135,0.8086,0.7934,0.7883,0.7895,0.799,0.8075,0.8142,0.8187,0.8385,0.8507,0.8513,0.8568,0.8617,0.867,0.9065,0.9449,0.9591,0.968,0.9683,0.9697,0.9812,0.9869,0.9937,1.0239,1.0602,1.09,1.1458,1.2011,1.2266,1.2547,1.2799,1.2799,1.2799,1.2799,1.2799,1.2799,1.2799,1.2799,1.2799,1.2799,1.2352,1.2284,1.1807,1.1847,1.2179,1.2217,1.2432,1.2858,0.0,0.0,0.0,1.3193,1.3013,1.2935,1.2338,1.2064,1.1995,1.1621,1.1289,1.1016,1.0786,1.0571,1.0326,1.0352,1.0319,1.0319,1.0054,0.9921,0.9915,0.9429,0.9174,0.9142,0.9062,0.8994,0.8951,0.8657,0.8245,0.7836,0.7872,0.7664,0.7227,0.7089,0.7073,0.7072,0.683,0.6706,0.6697,0.6709,0.6732,0.6756,0.6756,0.696,0.7331,0.7254,0.7322,0.7617,0.7674,0.7773,0.7932,0.7867,0.7905,0.8046,0.8164,0.821,0.8105,0.8357,0.8466,0.8388,0.8455,0.8461,0.838,0.8353,0.8216,0.7738,0.7699,0.7555,0.7248,0.7192,0.7309,0.7316,0.7383,0.7403,0.7564,0.7673,0.7649,0.7633,0.7739,0.7641,0.7802,0.8582,0.9155,0.9187,0.9223,0.9398,0.9485,0.949,0.9674,0.9562,0.9936,1.0347,1.0547,1.1023,1.1458,1.1575,1.2154,1.2454,1.2601,1.27,1.2766,1.2799,1.2799,1.2799,1.2799,1.2799,1.2799,1.2589,1.2433,1.1949,1.2061,1.2483,1.218,1.2312,1.2821,1.3091,1.3099,1.2931,1.2714,1.2585,1.2549,1.1495,1.1026,1.1061,1.0518,0.9847,0.9205,0.9634,0.9534,0.8889,0.8884,0.8884,0.8889,0.8856,0.8823,0.8817,0.8717,0.8497,0.8144,0.7996,0.7696,0.7294,0.7255,0.7184,0.7073,0.7342,0.7286,0.6877,0.6618,0.6522,0.658,0.6412,0.6309,0.6379,0.6368,0.6459,0.6623,0.6628,0.6802,0.7198,0.7198,0.7409,0.7832,0.7955,0.8197,0.8521,0.8211,0.7708,0.7104,0.7171,0.7674,0.8521,0.8533,0.8322,0.7872,0.7808,0.7564,0.7126,0.7181,0.7298,0.7354,0.7326,0.7304,0.734,0.7286,0.7241,0.7301,0.752,0.745,0.7357,0.7547,0.7523,0.7581,0.7317,0.773,0.767,0.8033,0.813,0.8136,0.8195,0.8268,0.8384,0.8348,0.8516,0.8368,0.855,0.8869,0.9242,0.9474,0.9817,1.0353,1.1014,1.153,1.1843,1.2404,1.2568,1.2634,1.2601,1.2667,1.2667,1.2733,1.2766,1.2244,1.174,1.1439,1.1168,1.0915,1.087,1.1116,1.1491,1.1389,1.1847,1.2584,1.2249,1.1809,1.131,1.0537,0.9986,0.965,0.9353,0.9064,0.8738,0.8979,0.8917,0.8623,0.8623,0.8623,0.8584,0.839,0.8323,0.8318,0.8061,0.7837,0.7677,0.7574,0.7377,0.7079,0.7055,0.6933,0.6704,0.6957,0.6998,0.6741,0.6589,0.6465,0.6341,0.6239,0.6139,0.6078,0.6159,0.6215,0.6339,0.6344,0.6495,0.6844,0.6821,0.6909,0.7287,0.7346,0.7455,0.7603,0.7543,0.741,0.715,0.7204,0.7498,0.8052,0.7989,0.7794,0.751,0.7539,0.7505,0.7223,0.7212,0.7168,0.7017,0.688,0.6698,0.6583,0.6453,0.6289,0.6084,0.6052,0.5953,0.559,0.5635,0.5705,0.5671,0.5745,0.5847,0.5855,0.5831,0.6369,0.7666,0.8022,0.8049,0.8028,0.8183,0.8253,0.8259,0.8318,0.8437,0.8728,0.8827,0.9152,0.9564,1.0174,1.0671,1.0942,1.1314,1.1578,1.1644,1.1644,1.1776,1.2107,1.2536,1.2766,1.1535,1.0824,1.07,1.0173,0.9516,0.978,1.0023,1.0125,0.9981,1.0597,1.1586,1.1261,1.0679,1.0057,0.9518,0.8929,0.846,0.8393,0.8282,0.8123,0.8284,0.8256,0.8156,0.8117,0.8123,0.8089,0.7856,0.7755,0.7679,0.7308,0.7167,0.7208,0.7154,0.7062,0.6983,0.6882,0.6706,0.6419,0.658,0.6607,0.6501,0.6453,0.6353,0.6186,0.613,0.6037,0.6016,0.6066,0.6109,0.6179,0.6133,0.6244,0.651,0.6433,0.6526,0.6756,0.6826,0.6798,0.6746,0.6866,0.7005,0.6973,0.7043,0.7093,0.7159,0.7099,0.7106,0.7169,0.7248,0.7276,0.7053,0.7022,0.6891,0.6414,0.6136,0.581,0.5413,0.5267,0.5045,0.4657,0.4593,0.4428,0.3991,0.3873,0.4049,0.4141,0.4,0.3997,0.4013,0.4048,0.5052,0.6425,0.7223,0.708,0.7213,0.7261,0.7384,0.7656,0.772,0.7759,0.7941,0.8312,0.8551,0.8617,0.9178,0.9676,0.9908,1.0346,1.0651,1.0817,1.0883,1.0949,1.1446,1.2074,1.2609,1.0297,1.0092,0.9861,0.9599,0.9329,0.9668,0.9627,0.941,0.9735,0.9697,0.94,0.9236,0.9105,0.8939,0.8284,0.7888,0.7786,0.7796,0.7405,0.6857,0.7316,0.7283,0.6786,0.6723,0.6686,0.6757,0.6723,0.6757,0.6753,0.6644,0.6535,0.6427,0.6336,0.6323,0.6302,0.6191,0.6087,0.6051,0.5992,0.5963,0.5876,0.5863,0.5932,0.6094,0.6025,0.6109,0.628,0.618,0.6175,0.6337,0.6252,0.6181,0.6228,0.6322,0.6463,0.6664,0.6855,0.692,0.6764,0.6681,0.6327,0.5852,0.5843,0.5893,0.5936,0.5999,0.6246,0.6517,0.6611,0.6355,0.6022,0.5814,0.5515,0.5084,0.4927,0.464,0.4172,0.3968,0.3938,0.391,0.3968,0.3954,0.3844,0.3805,0.3896,0.3789,0.3779,0.3836,0.3902,0.3945,0.4026,0.4552,0.464,0.4669,0.4804,0.4652,0.5245,0.5663,0.5741,0.6049,0.6518,0.6719,0.6819,0.7111,0.7646,0.8279,0.8911,0.9715,1.018,1.0153,1.0352,1.0684,1.085,1.138,1.1982,0.9705,0.9117,0.9021,0.86,0.8015,0.8109,0.782,0.7312,0.7892,0.7797,0.7136,0.6796,0.7222,0.8148,0.783,0.7476,0.7015,0.6977,0.6825,0.6522,0.6786,0.6753,0.6522,0.6489,0.6489,0.6489,0.6489,0.6489,0.6489,0.6489,0.644,0.6325,0.6276,0.6259,0.6255,0.6174,0.6129,0.6129,0.6012,0.5922,0.5867,0.584,0.5855,0.5903,0.5814,0.5822,0.59,0.5831,0.5827,0.59,0.573,0.5619,0.5668,0.553,0.5479,0.5589,0.5631,0.5444,0.505,0.4996,0.4697,0.4105,0.4104,0.4148,0.4148,0.4174,0.43,0.4517,0.4942,0.5139,0.4881,0.4339,0.3872,0.3764,0.3823,0.3809,0.3656,0.3755,0.3766,0.3401,0.3362,0.3235,0.2965,0.2866,0.2887,0.2875,0.2925,0.3015,0.3033,0.3003,0.3043,0.3054,0.3047,0.3437,0.4001,0.4283,0.4434,0.4638,0.4739,0.494,0.5141,0.5208,0.5275,0.5439,0.5941,0.6276,0.6376,0.7545,0.8384,0.8684,0.9649,1.0114,1.0114,1.0651,1.1214,0.8218,0.7595,0.7502,0.7055,0.6373,0.6373,0.6043,0.561,0.6116,0.601,0.5492,0.5027,0.5497,0.6558,0.6834,0.6702,0.6527,0.6489,0.6489,0.6489,0.6489,0.6489,0.6489,0.6489,0.6489,0.6489,0.6489,0.6489,0.6489,0.6489,0.6452,0.6357,0.6296,0.6329,0.6341,0.6276,0.6194,0.6206,0.6101,0.598,0.5834,0.5578,0.557,0.5784,0.5639,0.5503,0.5503,0.5391,0.5362,0.5355,0.5034,0.4852,0.4871,0.4533,0.4304,0.4298,0.4211,0.3988,0.355,0.3522,0.3358,0.3025,0.2979,0.2987,0.2987,0.2987,0.2987,0.3108,0.3387,0.3643,0.3858,0.3272,0.2863,0.2768,0.2873,0.2942,0.2818,0.3078,0.3041,0.266,0.2664,0.2618,0.2235,0.2166,0.2221,0.2223,0.2206,0.2189,0.2189,0.2255,0.2255,0.2189,0.2221,0.2623,0.3497,0.3595,0.3763,0.3998,0.4,0.4099,0.4233,0.4333,0.4333,0.4836,0.4672,0.4806,0.5342,0.6079,0.6581,0.6882,0.7812,0.8911,0.8817,0.9649,1.028,0.5198,0.5175,0.5029,0.498,0.481,0.481,0.4774,0.4662,0.481,0.4774,0.4657,0.4238,0.411,0.4225,0.4724,0.5485,0.6325,0.6317,0.6288,0.6292,0.6359,0.6455,0.6489,0.6489,0.6422,0.6221,0.6183,0.625,0.6317,0.6388,0.6485,0.641,0.62,0.6266,0.624,0.608,0.6162,0.6056,0.596,0.5878,0.5517,0.4934,0.5015,0.5602,0.5486,0.52,0.5193,0.4923,0.4742,0.4814,0.4211,0.3883,0.3828,0.3387,0.3134,0.3099,0.3004,0.2891,0.2835,0.2776,0.2748,0.2754,0.2691,0.2895,0.271,0.2683,0.2716,0.2927,0.2102,0.2069,0.2775,0.271,0.2464,0.2038,0.203,0.1792,0.123,0.1623,0.1607,0.1675,0.1935,0.2078,0.2072,0.2167,0.2147,0.215,0.2188,0.2189,0.2189,0.2189,0.2189,0.2189,0.2189,0.2223,0.2322,0.2625,0.2793,0.3028,0.3329,0.343,0.3931,0.43,0.4233,0.4199,0.4068,0.4202,0.4638,0.4973,0.5275,0.5711,0.6447,0.7183,0.7483,0.8717,0.935,0.4197,0.4096,0.4027,0.3951,0.3935,0.3935,0.3641,0.3207,0.3714,0.3607,0.3163,0.2731,0.2942,0.3532,0.2967,0.3337,0.4339,0.4403,0.4392,0.4391,0.4394,0.4394,0.4394,0.4394,0.4406,0.4409,0.437,0.437,0.437,0.437,0.437,0.4403,0.435,0.435,0.4392,0.4328,0.4298,0.4243,0.4221,0.4118,0.3997,0.3704,0.3737,0.3997,0.3909,0.3816,0.3816,0.3673,0.3615,0.3636,0.3208,0.2966,0.2936,0.2582,0.2373,0.2341,0.2331,0.2111,0.1714,0.1653,0.1439,0.1071,0.1045,0.0,0.1081,0.1089,0.1064,0.0,0.0,0.0762,0.0,0.1071,0.0,0.0815,0.092,0.0961,0.0833,0.0965,0.1165,0.1208,0.135,0.1462,0.1567,0.1678,0.1818,0.1851,0.2021,0.2155,0.2189,0.2189,0.2189,0.2189,0.2189,0.2189,0.2189,0.2223,0.2324,0.2423,0.2591,0.2658,0.2995,0.3127,0.306,0.3161,0.3161,0.3228,0.3533,0.3933,0.4202,0.5004,0.5744,0.5979,0.6246,0.7417,0.7984,0.2906,0.2844,0.2779,0.2768,0.277,0.277,0.2442,0.2006,0.2515,0.2442,0.1927,0.151,0.1809,0.2276,0.1526,0.1441,0.2235,0.2845,0.3205,0.321,0.3212,0.3206,0.3197,0.3206,0.3217,0.3236,0.3194,0.3194,0.3194,0.3194,0.3194,0.3228,0.3194,0.3194,0.3194,0.3194,0.3178,0.3154,0.315,0.3062,0.2889,0.2666,0.248,0.2331,0.2152,0.2321,0.2773,0.2741,0.2681,0.2618,0.2251,0.1912,0.1696,0.1481,0.1357,0.1357,0.1326,0.1145,0.0777,0.0684,0.0499,0.0,0.0,0.0,0.0,0.0,0.0,0.0,0.0,0.0,0.0,0.0,0.0,0.0,0.0226,0.0357,0.0358,0.062,0.0887,0.1027,0.1102,0.1109,0.1111,0.1313,0.1414,0.1447,0.1784,0.1987,0.2021,0.2155,0.2189,0.2189,0.2189,0.2189,0.2189,0.2189,0.2189,0.2289,0.2322,0.2256,0.2189,0.2189,0.2189,0.2189,0.2189,0.2189,0.2425,0.2894,0.353,0.4333,0.4705,0.4906,0.5409,0.6012,0.6615,0.1231,0.1244,0.1204,0.1277,0.1277,0.1277,0.1204,0.1204,0.1241,0.124,0.1129,0.0792,0.0711,0.0633,0.0385,0.0,0.0586,0.2063,0.2838,0.2868,0.2904,0.2923,0.2898,0.2852,0.2826,0.2862,0.3062,0.3062,0.2892,0.2858,0.2892,0.3026,0.2892,0.2758,0.3094,0.2858,0.2993,0.2887,0.2818,0.2768,0.2539,0.1872,0.1428,0.1047,0.0537,0.091,0.2319,0.2099,0.188,0.1849,0.1357,0.071,0.0,0.0,0.0,0.0,0.0,0.0,0.0,0.0,0.0,0.0,0.0,0.0,0.0,0.0,0.0,0.0,0.0,0.0,0.0,0.0,0.0,0.0,0.0,0.0,0.0,0.03,0.0639,0.0908,0.0976,0.1077,0.1077,0.1077,0.1077,0.1144,0.138,0.1616,0.1649,0.1851,0.2088,0.2155,0.2122,0.2054,0.2122,0.2189,0.2189,0.2223,0.2223,0.2189,0.2189,0.2189,0.2189,0.2189,0.2189,0.2189,0.2189,0.2591,0.2524,0.3096,0.3432,0.3869,0.4303,0.4839,0.5476,0.0368,0.0365,0.0365,0.0365,0.0365,0.0365,0.0365,0.0,0.0,0.0,0.0364,0.0252,0.0178,0.0,0.0,0.0,0.0,0.0742,0.0,0.0,0.0,0.0,0.0,0.0,0.1002,0.0981,0.1019,0.0,0.0,0.0,0.1009,0.1009,0.0,0.1009,0.0,0.1009,0.0976,0.1009,0.1009,0.094,0.0801,0.0,0.0,0.0325,0.0097,0.0288,0.0732,0.0687,0.0617,0.0,0.0432,0.0216,0.0,0.0,0.0,0.0,0.0,0.0,0.0,0.0,0.0,0.0,0.0,0.0,0.0,0.0,0.0,0.0,0.0,0.0,0.0,0.0,0.0,0.0,0.0,0.0,0.0,0.0,0.0202,0.0303,0.0337,0.0337,0.0404,0.0505,0.0707,0.0741,0.101,0.1245,0.1279,0.138,0.1548,0.1717,0.175,0.1918,0.2021,0.2122,0.2189,0.2189,0.2189,0.2189,0.2189,0.2189,0.2189,0.2189,0.2189,0.2189,0.2189,0.2189,0.2189,0.2189,0.2692,0.2961,0.3129,0.3667,0.4437,0.0,0.0,0.0,0.0,0.0,0.0,0.0,0.0,0.0,0.0,0.0,0.0,0.0,0.0,0.0,0.0,0.0,0.0,0.0,0.0,0.0,0.0,0.0,0.0,0.0,0.0,0.0,0.0,0.0,0.0,0.0,0.0,0.0,0.0,0.0,0.0,0.0,0.0,0.0,0.0,0.0,0.0,0.0,0.0,0.0,0.0,0.0,0.0,0.0,0.0,0.0,0.0,0.0,0.0,0.0,0.0,0.0,0.0,0.0,0.0,0.0,0.0,0.0,0.0,0.0,0.0,0.0,0.0,0.0,0.0,0.0,0.0,0.0,0.0,0.0,0.0,0.0,0.0,0.0,0.0,0.0,0.0,0.0,0.0135,0.0303,0.037,0.064,0.0875,0.0909,0.101,0.1212,0.138,0.1548,0.1717,0.1918,0.2054,0.2189,0.2189,0.2189,0.2189,0.2189,0.2189,0.2189,0.2189,0.2189,0.2189,0.2189,0.2189,0.2189,0.2189,0.2189,0.2391,0.2692,0.2997,0.3566,0.0,0.0,0.0,0.0,0.0,0.0,0.0,0.0,0.0,0.0,0.0,0.0,0.0,0.0,0.0,0.0,0.0,0.0,0.0,0.0,0.0,0.0,0.0,0.0,0.0,0.0,0.0,0.0,0.0,0.0,0.0,0.0,0.0,0.0,0.0,0.0,0.0,0.0,0.0,0.0,0.0,0.0,0.0,0.0,0.0,0.0,0.0,0.0,0.0,0.0,0.0,0.0,0.0,0.0,0.0,0.0,0.0,0.0,0.0,0.0,0.0,0.0,0.0,0.0,0.0,0.0,0.0,0.0,0.0,0.0,0.0,0.0,0.0,0.0,0.0,0.0,0.0,0.0,0.0,0.0,0.0,0.0,0.0,0.0,0.0,0.0101,0.0303,0.0438,0.0539,0.0673,0.0943,0.1111,0.1212,0.1481,0.1683,0.1851,0.2021,0.2189,0.2189,0.2189,0.2189,0.2189,0.2189,0.2189,0.2189,0.2189,0.2189,0.2189,0.2189,0.2189,0.2189,0.2189,0.2357,0.266,0.2828,0.0,0.0,0.0,0.0,0.0,0.0,0.0,0.0,0.0,0.0,0.0,0.0,0.0,0.0,0.0,0.0,0.0,0.0,0.0,0.0,0.0,0.0,0.0,0.0,0.0,0.0,0.0,0.0,0.0,0.0,0.0,0.0,0.0,0.0,0.0,0.0,0.0,0.0,0.0,0.0,0.0,0.0,0.0,0.0,0.0,0.0,0.0,0.0,0.0,0.0,0.0,0.0,0.0,0.0,0.0,0.0,0.0,0.0,0.0,0.0,0.0,0.0,0.0,0.0,0.0,0.0,0.0,0.0,0.0,0.0,0.0,0.0,0.0,0.0,0.0,0.0,0.0,0.0,0.0,0.0,0.0,0.0,0.0,0.0,0.0,0.0,0.0,0.0,0.0,0.0269,0.0505,0.0606,0.0774,0.1144,0.1414,0.1616,0.1851,0.2122,0.2189,0.2189,0.2189,0.2189,0.2189,0.2189,0.2189,0.2189,0.2189,0.2189,0.2189,0.2189,0.2189,0.2189,0.2189,0.2391,0.2425,0.0,0.0,0.0,0.0,0.0,0.0,0.0,0.0,0.0,0.0,0.0,0.0,0.0,0.0,0.0,0.0,0.0,0.0,0.0,0.0,0.0,0.0,0.0,0.0,0.0,0.0,0.0,0.0,0.0,0.0,0.0,0.0,0.0,0.0,0.0,0.0,0.0,0.0,0.0,0.0,0.0,0.0,0.0,0.0,0.0,0.0,0.0,0.0,0.0,0.0,0.0,0.0,0.0,0.0,0.0,0.0,0.0,0.0,0.0,0.0,0.0,0.0,0.0,0.0,0.0,0.0,0.0,0.0,0.0,0.0,0.0,0.0,0.0,0.0,0.0,0.0,0.0,0.0,0.0,0.0,0.0,0.0,0.0,0.0,0.0,0.0,0.0,0.0,0.0,0.0,0.0,0.0,0.0,0.0774,0.1043,0.1245,0.1515,0.1818,0.2122,0.2122,0.2155,0.2155,0.2189,0.2189,0.2189,0.2189,0.2189,0.2189,0.2189,0.2189,0.2189,0.2189,0.2189,0.2189,0.2189,0.0,0.0,0.0,0.0,0.0,0.0,0.0,0.0,0.0,0.0,0.0,0.0,0.0,0.0,0.0,0.0,0.0,0.0,0.0,0.0,0.0,0.0,0.0,0.0,0.0,0.0,0.0,0.0,0.0,0.0,0.0,0.0,0.0,0.0,0.0,0.0,0.0,0.0,0.0,0.0,0.0,0.0,0.0,0.0,0.0,0.0,0.0,0.0,0.0,0.0,0.0,0.0,0.0,0.0,0.0,0.0,0.0,0.0,0.0,0.0,0.0,0.0,0.0,0.0,0.0,0.0,0.0,0.0,0.0,0.0,0.0,0.0,0.0,0.0,0.0,0.0,0.0,0.0,0.0,0.0,0.0,0.0,0.0,0.0,0.0,0.0,0.0,0.0,0.0,0.0,0.0,0.0,0.0,0.0438,0.064,0.0808,0.1144,0.1481,0.1851,0.1987,0.2021,0.2088,0.2155,0.2189,0.2189,0.2189,0.2189,0.2189,0.2189,0.2189,0.2189,0.2189,0.2189,0.2189,0.2189,0.0,0.0,0.0,0.0,0.0,0.0,0.0,0.0,0.0,0.0,0.0,0.0,0.0,0.0,0.0,0.0,0.0,0.0,0.0,0.0,0.0,0.0,0.0,0.0,0.0,0.0,0.0,0.0,0.0,0.0,0.0,0.0,0.0,0.0,0.0,0.0,0.0,0.0,0.0,0.0,0.0,0.0,0.0,0.0,0.0,0.0,0.0,0.0,0.0,0.0,0.0,0.0,0.0,0.0,0.0,0.0,0.0,0.0,0.0,0.0,0.0,0.0,0.0,0.0,0.0,0.0,0.0,0.0,0.0,0.0,0.0,0.0,0.0,0.0,0.0,0.0,0.0,0.0,0.0,0.0,0.0,0.0,0.0,0.0,0.0,0.0,0.0,0.0,0.0,0.0,0.0,0.0,0.0,0.0,0.0438,0.0606,0.0842,0.1144,0.1515,0.175,0.1784,0.1987,0.2054,0.2155,0.2189,0.2189,0.2189,0.2189,0.2189,0.2189,0.2189,0.2189,0.2189,0.2189,0.2189,0.0,0.0,0.0,0.0,0.0,0.0,0.0,0.0,0.0,0.0,0.0,0.0,0.0,0.0,0.0,0.0,0.0,0.0,0.0,0.0,0.0,0.0,0.0,0.0,0.0,0.0,0.0,0.0,0.0,0.0,0.0,0.0,0.0,0.0,0.0,0.0,0.0,0.0,0.0,0.0,0.0,0.0,0.0,0.0,0.0,0.0,0.0,0.0,0.0,0.0,0.0,0.0,0.0,0.0,0.0,0.0,0.0,0.0,0.0,0.0,0.0,0.0,0.0,0.0,0.0,0.0,0.0,0.0,0.0,0.0,0.0,0.0,0.0,0.0,0.0,0.0,0.0,0.0,0.0,0.0,0.0,0.0,0.0,0.0,0.0,0.0,0.0,0.0,0.0,0.0,0.0,0.0,0.0,0.0,0.0,0.0404,0.0606,0.0842,0.1111,0.1313,0.138,0.1683,0.1953,0.2054,0.2155,0.2189,0.2189,0.2189,0.2189,0.2189,0.2189,0.2189,0.2189,0.2189,0.2189,0.0,0.0,0.0,0.0,0.0,0.0,0.0,0.0,0.0,0.0,0.0,0.0,0.0,0.0,0.0,0.0,0.0,0.0,0.0,0.0,0.0,0.0,0.0,0.0,0.0,0.0,0.0,0.0,0.0,0.0,0.0,0.0,0.0,0.0,0.0,0.0,0.0,0.0,0.0,0.0,0.0,0.0,0.0,0.0,0.0,0.0,0.0,0.0,0.0,0.0,0.0,0.0,0.0,0.0,0.0,0.0,0.0,0.0,0.0,0.0,0.0,0.0,0.0,0.0,0.0,0.0,0.0,0.0,0.0,0.0,0.0,0.0,0.0,0.0,0.0,0.0,0.0,0.0,0.0,0.0,0.0,0.0,0.0,0.0,0.0,0.0,0.0,0.0,0.0,0.0,0.0,0.0,0.0,0.0,0.0,0.0,0.0,0.0539,0.0774,0.0909,0.1043,0.1313,0.1649,0.1953,0.2088,0.2122,0.2189,0.2189,0.2189,0.2189,0.2189,0.2189,0.2189,0.2189,0.2189,0.0,0.0,0.0,0.0,0.0,0.0,0.0,0.0,0.0,0.0,0.0,0.0,0.0,0.0,0.0,0.0,0.0,0.0,0.0,0.0,0.0,0.0,0.0,0.0,0.0,0.0,0.0,0.0,0.0,0.0,0.0,0.0,0.0,0.0,0.0,0.0,0.0,0.0,0.0,0.0,0.0,0.0,0.0,0.0,0.0,0.0,0.0,0.0,0.0,0.0,0.0,0.0,0.0,0.0,0.0,0.0,0.0,0.0,0.0,0.0,0.0,0.0,0.0,0.0,0.0,0.0,0.0,0.0,0.0,0.0,0.0,0.0,0.0,0.0,0.0,0.0,0.0,0.0,0.0,0.0,0.0,0.0,0.0,0.0,0.0,0.0,0.0,0.0,0.0,0.0,0.0,0.0,0.0,0.0,0.0,0.0,0.0,0.0,0.0404,0.0539,0.0707,0.0976,0.1279,0.1515,0.1851,0.2088,0.2122,0.2155,0.2189,0.2189,0.2189,0.2189,0.2189,0.2189,0.2189,0.0,0.0,0.0,0.0,0.0,0.0,0.0,0.0,0.0,0.0,0.0,0.0,0.0,0.0,0.0,0.0,0.0,0.0,0.0,0.0,0.0,0.0,0.0,0.0,0.0,0.0,0.0,0.0,0.0,0.0,0.0,0.0,0.0,0.0,0.0,0.0,0.0,0.0,0.0,0.0,0.0,0.0,0.0,0.0,0.0,0.0,0.0,0.0,0.0,0.0,0.0,0.0,0.0,0.0,0.0,0.0,0.0,0.0,0.0,0.0,0.0,0.0,0.0,0.0,0.0,0.0,0.0,0.0,0.0,0.0,0.0,0.0,0.0,0.0,0.0,0.0,0.0,0.0,0.0,0.0,0.0,0.0,0.0,0.0,0.0,0.0,0.0,0.0,0.0,0.0,0.0,0.0,0.0,0.0,0.0,0.0,0.0,0.0,0.0,0.0,0.037,0.064,0.0774,0.0943,0.1346,0.1784,0.1953,0.1953,0.2088,0.2189,0.2155,0.2155,0.2189,0.2189,0.2189,0.0,0.0,0.0,0.0,0.0,0.0,0.0,0.0,0.0,0.0,0.0,0.0,0.0,0.0,0.0,0.0,0.0,0.0,0.0,0.0,0.0,0.0,0.0,0.0,0.0,0.0,0.0,0.0,0.0,0.0,0.0,0.0,0.0,0.0,0.0,0.0,0.0,0.0,0.0,0.0,0.0,0.0,0.0,0.0,0.0,0.0,0.0,0.0,0.0,0.0,0.0,0.0,0.0,0.0,0.0,0.0,0.0,0.0,0.0,0.0,0.0,0.0,0.0,0.0,0.0,0.0,0.0,0.0,0.0,0.0,0.0,0.0,0.0,0.0,0.0,0.0,0.0,0.0,0.0,0.0,-0.0067,0.0,0.0,0.0,0.0,0.0,0.0,0.0,0.0,0.0,0.0,0.0,0.0,0.0,0.0,0.0,0.0,0.0,0.0,0.0,0.0,0.0269,0.0,0.0,0.0875,0.1279,0.1515,0.1717,0.1784,0.1851,0.2021,0.2122,0.2155,0.2189,0.2189,0.0,0.0,0.0,0.0,0.0,0.0,0.0,0.0,0.0,0.0,0.0,0.0,0.0,0.0,0.0,0.0,0.0,0.0,0.0,0.0,0.0,0.0,0.0,0.0,0.0,0.0,0.0,0.0,0.0,0.0,0.0,0.0,0.0,0.0,0.0,0.0,0.0,0.0,0.0,0.0,0.0,0.0,0.0,0.0,0.0,0.0,0.0,0.0,0.0,0.0,0.0,0.0,0.0,0.0,0.0,0.0,0.0,0.0,0.0,0.0,0.0,0.0,0.0,0.0,0.0,0.0,0.0,0.0,0.0,0.0,0.0,0.0,0.0,0.0,0.0,0.0,0.0,0.0,0.0,-0.0337,-0.037,-0.0269,0.0,0.0,0.0,0.0,0.0,0.0,0.0,0.0,0.0,0.0,0.0,0.0,0.0,0.0,0.0,0.0,0.0,0.0,0.0,0.0,0.0,0.0,0.0,0.0,0.101,0.1212,0.1346,0.1515,0.1683,0.1918,0.2155,0.2155,0.2122,0.0,0.0,0.0,0.0,0.0,0.0,0.0,0.0,0.0,0.0,0.0,0.0,0.0,0.0,0.0,0.0,0.0,0.0,0.0,0.0,0.0,0.0,0.0,0.0,0.0,0.0,0.0,0.0,0.0,0.0,0.0,0.0,0.0,0.0,0.0,0.0,0.0,0.0,0.0,0.0,0.0,0.0,0.0,0.0,0.0,0.0,0.0,0.0,0.0,0.0,0.0,0.0,0.0,0.0,0.0,0.0,0.0,0.0,0.0,0.0,0.0,0.0,0.0,0.0,0.0,0.0,0.0,0.0,0.0,0.0,0.0,0.0,0.0,0.0,0.0,0.0,0.0,0.0,-0.0404,-0.0539,-0.0673,-0.064,-0.064,0.0,0.0,0.0,0.0,0.0,0.0,0.0,0.0,0.0,0.0,0.0,0.0,0.0,0.0,0.0,0.0,0.0,0.0,0.0,0.0,0.0,0.0,0.0,0.0,0.0808,0.1111,0.1212,0.1313,0.1548,0.1784,0.1851,0.1851,0.0,0.0,0.0,0.0,0.0,0.0,0.0,0.0,0.0,0.0,0.0,0.0,0.0,0.0,0.0,0.0,0.0,0.0,0.0,0.0,0.0,0.0,0.0,0.0,0.0,-0.0182,0.0,0.0,0.0,0.0,0.0,0.0,0.0,0.0,0.0,0.0,0.0,0.0,0.0,0.0,0.0,0.0,0.0,0.0,0.0,0.0,0.0,0.0,0.0,0.0,0.0,0.0,0.0,0.0,0.0,0.0,0.0,0.0,0.0,0.0,0.0,0.0,0.0,0.0,0.0,0.0,0.0,0.0,0.0,0.0,0.0,0.0,0.0,0.0,0.0,0.0,-0.0135,-0.037,-0.0707,-0.0976,-0.1144,-0.1313,-0.1313,-0.1346,0.0,0.0,0.0,-0.064,-0.0438,-0.0202,0.0,0.0,0.0,0.0,0.0,0.0,0.0,0.0,0.0,0.0,0.0,0.0,0.0,0.0,0.0,0.0,0.0,0.0,0.0842,0.0909,0.0976,0.1144,0.1313,0.1414,0.1515,0.0,0.0,0.0,0.0,0.0,0.0,0.0,0.0,0.0,0.0,0.0,0.0,0.0,0.0,0.0,0.0,0.0,0.0,0.0,0.0,0.0,0.0,0.0,0.0,-0.0365,-0.0584,-0.0729,-0.0875,-0.1094,-0.1312,-0.0839,0.0,0.0,0.0,0.0,0.0,0.0,0.0,0.0,0.0,0.0,0.0,0.0,0.0,0.0,0.0,0.0,0.0,0.0,0.0,0.0,0.0,0.0,0.0,0.0,0.0,0.0,0.0,0.0,0.0,0.0,0.0,0.0,0.0,0.0,0.0,0.0,0.0,0.0,0.0,0.0,0.0,0.0,0.0,0.0,0.0,-0.037,-0.0572,-0.0909,-0.1346,-0.1582,-0.1683,-0.1784,-0.1784,-0.1683,-0.1481,-0.1178,-0.0976,-0.0505,-0.0269,-0.0135,0.0,0.0,0.0,0.0,0.0,0.0,0.0,0.0,0.0,0.0,0.0,0.0,0.0,0.0,0.0,0.0,0.0,0.0303,0.0471,0.064,0.0774,0.101,0.1178,0.1212,0.0,0.0,0.0,0.0,0.0,0.0,0.0,0.0,0.0,-0.0328,-0.0766,-0.1203,-0.1385,-0.1386,-0.1422,-0.1422,-0.1422,0.0,-0.1349,-0.1422,0.0,-0.1422,-0.1422,-0.1349,-0.1532,-0.1605,-0.164,-0.1677,-0.1895,-0.2078,-0.1895,-0.1494,-0.1422,0.0,0.0,-0.1277,-0.1312,-0.1202,-0.1015,-0.0902,-0.1178,-0.0461,-0.0419,-0.1304,-0.048,-0.0644,0.0,0.0,0.0,-0.064,-0.064,-0.0505,-0.0337,-0.0303,-0.0236,-0.0101,0.0,0.0,0.0,0.0,0.0,0.0,0.0,0.0,0.0,0.0,0.0,0.0,0.0,0.0,0.0,0.0,0.0,0.0,-0.0168,-0.0337,-0.0606,-0.0842,-0.1144,-0.1582,-0.1851,-0.2021,-0.2088,-0.2155,-0.2021,-0.1851,-0.1548,-0.1212,-0.0774,-0.037,-0.0236,-0.0135,-0.0135,-0.0303,-0.0337,-0.0471,-0.064,-0.0572,-0.0505,-0.0404,-0.0269,0.0,0.0,0.0,-0.0404,0.0,0.0,0.0,-0.0135,0.0168,0.0303,0.0337,0.0606,0.0875,0.0909,-0.0365,-0.0365,-0.0584,-0.0401,-0.0036,-0.0255,-0.0365,-0.0401,0.0,-0.0985,-0.1567,-0.2078,-0.2296,-0.2296,-0.226,-0.2223,-0.215,-0.215,-0.2223,-0.2187,-0.215,-0.2296,-0.2296,-0.226,-0.2187,-0.2442,-0.2478,-0.2478,-0.2662,-0.277,-0.2806,-0.2879,-0.2915,-0.2806,-0.2223,-0.2296,-0.2296,-0.215,-0.1929,-0.1743,-0.2015,-0.1394,-0.0888,-0.1843,-0.1209,-0.1026,-0.1187,-0.1081,-0.1043,-0.101,-0.101,-0.0909,-0.0774,-0.064,-0.0539,-0.0404,-0.0303,-0.0303,-0.0303,0.0,0.0,0.0,0.0,0.0,0.0,0.0,0.0,0.0,0.0,0.0,0.0,0.0,0.0,-0.0202,-0.0303,-0.0505,-0.0943,-0.1245,-0.1515,-0.1818,-0.2021,-0.2155,-0.2155,-0.2189,-0.2155,-0.1987,-0.1683,-0.1346,-0.0943,-0.0572,-0.0337,-0.0269,-0.0202,-0.0438,-0.0673,-0.0572,-0.0438,-0.0337,-0.0337,-0.0471,-0.0539,-0.0875,-0.0943,-0.0606,-0.0505,-0.064,-0.0572,-0.0438,-0.0269,-0.0034,0.0067,0.0135,0.0202,0.0471,0.0572,-0.1166,-0.1276,-0.1895,-0.1349,-0.0292,-0.0875,-0.1166,-0.1276,-0.1859,-0.2223,-0.2296,-0.2442,-0.2515,-0.2515,-0.2697,-0.2697,-0.2697,-0.2588,-0.2588,-0.266,-0.277,-0.2515,-0.2515,-0.266,-0.2915,-0.2881,-0.3063,-0.3281,-0.3464,-0.368,-0.3862,-0.4007,-0.4007,-0.3753,-0.2478,-0.2333,-0.2333,-0.2333,-0.2369,-0.2403,-0.2503,-0.2232,-0.1966,-0.2194,-0.1885,-0.1694,-0.1744,-0.1561,-0.1453,-0.1415,-0.1313,-0.1212,-0.1077,-0.1077,-0.101,-0.0943,-0.0976,-0.101,-0.101,-0.037,0.0,0.0,0.0,0.0,0.0,0.0,0.0,0.0,0.0,0.0,0.0,0.0,0.0,-0.0438,-0.0572,-0.0808,-0.1245,-0.1582,-0.1851,-0.1953,-0.2088,-0.2189,-0.2189,-0.2189,-0.2189,-0.2054,-0.1818,-0.1481,-0.1111,-0.0943,-0.0707,-0.0673,-0.064,-0.0808,-0.0943,-0.0471,-0.0269,-0.0168,-0.0337,-0.0741,-0.0774,-0.0875,-0.0808,-0.0572,-0.0774,-0.1043,-0.0808,-0.0505,-0.0303,-0.0101,-0.0101,-0.0034,0.0,0.0101,0.0236,-0.1932,-0.1968,-0.2187,-0.2005,-0.1604,-0.1822,-0.1932,-0.2078,-0.2698,-0.3099,-0.3245,-0.3609,-0.3898,-0.3898,-0.3789,-0.3791,-0.3826,-0.3898,-0.3898,-0.3826,-0.3753,-0.3898,-0.3826,-0.3716,-0.3862,-0.4046,-0.4119,-0.4046,-0.4301,-0.441,-0.4483,-0.4556,-0.4556,-0.441,-0.4044,-0.3898,-0.3898,-0.3791,-0.35,-0.3318,-0.3678,-0.2972,-0.2741,-0.3399,-0.283,-0.2552,-0.2652,-0.2323,-0.2071,-0.199,-0.1885,-0.1649,-0.1481,-0.1447,-0.1346,-0.1178,-0.1111,-0.1111,-0.1077,-0.0774,-0.0471,-0.0303,-0.0202,-0.0236,0.0,0.0,0.0,-0.0236,-0.0202,-0.0303,0.0,0.0,-0.0572,-0.0875,-0.1077,-0.1279,-0.1582,-0.1851,-0.2088,-0.2122,-0.2189,-0.2189,-0.2189,-0.2189,-0.2189,-0.2189,-0.1987,-0.175,-0.1414,-0.138,-0.1279,-0.1279,-0.1279,-0.1346,-0.1279,-0.0875,-0.0842,-0.0976,-0.1178,-0.1515,-0.1447,-0.1111,-0.1144,-0.1144,-0.1313,-0.1414,-0.1178,-0.0875,-0.0404,-0.0168,-0.0337,-0.0236,0.0,0.0034,0.0067,-0.2735,-0.2735,-0.3025,-0.3134,-0.3097,-0.2842,-0.2842,-0.317,-0.3682,-0.3901,-0.401,-0.4483,-0.4665,-0.4665,-0.4701,-0.4701,-0.4701,-0.4701,-0.4665,-0.4701,-0.4665,-0.4556,-0.4592,-0.4701,-0.4519,-0.4701,-0.4701,-0.4665,-0.4629,-0.4665,-0.4665,-0.4665,-0.4701,-0.4629,-0.4592,-0.4556,-0.4556,-0.441,-0.4119,-0.4083,-0.4189,-0.3891,-0.3592,-0.3891,-0.3752,-0.3398,-0.3445,-0.3201,-0.2769,-0.264,-0.2391,-0.2122,-0.1885,-0.1784,-0.1683,-0.1548,-0.1481,-0.1414,-0.1313,-0.1649,-0.1313,-0.0741,-0.0707,-0.0606,-0.0438,0.0,0.0,-0.0572,-0.0471,-0.0673,-0.0976,-0.0808,-0.0976,-0.1313,-0.1447,-0.1649,-0.1851,-0.2122,-0.2155,-0.2189,-0.2189,-0.2189,-0.2189,-0.2189,-0.2189,-0.2189,-0.2189,-0.1952,-0.175,-0.1683,-0.1616,-0.1548,-0.1481,-0.1414,-0.1414,-0.1346,-0.1447,-0.175,-0.1851,-0.1885,-0.1717,-0.1279,-0.1515,-0.1649,-0.1481,-0.138,-0.1481,-0.1245,-0.0976,-0.0842,-0.0875,-0.0606,-0.0135,-0.0067,-0.0101,-0.3538,-0.3646,-0.4374,-0.4629,-0.4519,-0.3828,-0.3937,-0.4592,-0.4665,-0.4665,-0.4665,-0.4665,-0.4701,-0.4701,-0.4701,-0.4701,-0.4701,-0.4701,-0.4701,-0.4701,-0.4701,-0.4701,-0.4701,-0.4701,-0.4701,-0.4701,-0.4701,-0.4701,-0.4701,-0.4701,-0.4701,-0.4701,-0.4701,-0.4701,-0.4701,-0.4701,-0.4701,-0.4629,-0.4592,-0.4519,-0.4519,-0.4556,-0.4293,-0.4312,-0.4071,-0.3847,-0.3689,-0.3265,-0.3015,-0.2782,-0.2493,-0.2357,-0.2255,-0.2223,-0.2223,-0.2223,-0.2221,-0.2019,-0.1918,-0.2322,-0.2322,-0.1818,-0.1548,-0.1279,-0.1111,-0.1076,-0.1043,-0.1178,-0.1211,-0.1212,-0.1245,-0.1346,-0.1481,-0.1616,-0.1717,-0.1885,-0.2088,-0.2189,-0.2189,-0.2189,-0.2189,-0.2189,-0.2189,-0.2189,-0.2389,-0.249,-0.2524,-0.2389,-0.2154,-0.1818,-0.1717,-0.1548,-0.1447,-0.1313,-0.138,-0.1616,-0.1683,-0.1885,-0.1717,-0.1683,-0.1515,-0.1582,-0.1717,-0.1717,-0.138,-0.1346,-0.1515,-0.1683,-0.175,-0.1616,-0.1245,-0.0875,-0.037,-0.0337,0.0,-0.4337,-0.4374,-0.4592,-0.4701,-0.4665,-0.4444,-0.4519,-0.4665,-0.4701,-0.4701,-0.4701,-0.4701,-0.4701,-0.4701,-0.4701,-0.4701,-0.4701,-0.4701,-0.4701,-0.4701,-0.4701,-0.4701,-0.4701,-0.4701,-0.4701,-0.4701,-0.4701,-0.4701,-0.4701,-0.4701,-0.4701,-0.4701,-0.4701,-0.4701,-0.4701,-0.4701,-0.4701,-0.4701,-0.4701,-0.4701,-0.4701,-0.4701,-0.4592,-0.4509,-0.4428,-0.431,-0.4117,-0.3715,-0.353,-0.3456,-0.3111,-0.2928,-0.2928,-0.2928,-0.2928,-0.2928,-0.2892,-0.2825,-0.2791,-0.2926,-0.306,-0.3094,-0.2959,-0.269,-0.2253,-0.185,-0.1682,-0.1951,-0.2119,-0.2119,-0.2253,-0.2354,-0.2388,-0.2423,-0.2389,-0.2289,-0.2423,-0.2255,-0.2255,-0.2223,-0.2223,-0.2389,-0.2356,-0.249,-0.2658,-0.2825,-0.2858,-0.2791,-0.2591,-0.2255,-0.1918,-0.175,-0.1683,-0.1649,-0.1784,-0.1987,-0.1953,-0.1953,-0.1784,-0.175,-0.1851,-0.1918,-0.1953,-0.1885,-0.1717,-0.1616,-0.1582,-0.175,-0.1918,-0.1616,-0.1279,-0.0943,-0.0673,-0.064,-0.0471,-0.4627,-0.463,-0.4627,-0.4627,-0.4627,-0.4627,-0.4627,-0.4635,-0.4677,-0.4701,-0.4701,-0.4701,-0.4701,-0.4701,-0.4701,-0.4701,-0.4701,-0.4701,-0.4701,-0.4701,-0.4701,-0.4701,-0.4701,-0.4701,-0.4701,-0.4701,-0.4701,-0.4701,-0.4701,-0.4701,-0.4701,-0.4701,-0.4701,-0.4701,-0.4701,-0.4701,-0.4701,-0.4701,-0.4701,-0.4701,-0.4701,-0.4701,-0.4701,-0.4701,-0.4701,-0.4666,-0.4542,-0.4168,-0.3939,-0.3851,-0.3458,-0.323,-0.3194,-0.3194,-0.3329,-0.3329,-0.3396,-0.3497,-0.3564,-0.3765,-0.3967,-0.4135,-0.4205,-0.4168,-0.3765,-0.336,-0.3192,-0.3192,-0.3125,-0.3159,-0.3329,-0.3497,-0.3432,-0.3365,-0.3096,-0.2793,-0.2591,-0.2356,-0.2289,-0.2256,-0.2389,-0.2591,-0.2692,-0.2827,-0.3096,-0.3463,-0.353,-0.3362,-0.3127,-0.2793,-0.2389,-0.2087,-0.2087,-0.2088,-0.2223,-0.229,-0.2188,-0.212,-0.2054,-0.2054,-0.2189,-0.2189,-0.2088,-0.2122,-0.2122,-0.1987,-0.1818,-0.1851,-0.1885,-0.1649,-0.1548,-0.1414,-0.1178,-0.0943,-0.0707,-0.4485,-0.4488,-0.4482,-0.4491,-0.4482,-0.4491,-0.4491,-0.4493,-0.463,-0.4688,-0.4688,-0.4693,-0.4693,-0.4699,-0.4701,-0.4701,-0.4701,-0.4701,-0.4701,-0.4701,-0.4701,-0.4701,-0.4701,-0.4701,-0.4701,-0.4701,-0.4701,-0.4701,-0.4701,-0.4701,-0.4701,-0.4701,-0.4701,-0.4701,-0.4701,-0.4701,-0.4701,-0.4701,-0.4701,-0.4701,-0.4701,-0.4701,-0.4701,-0.4701,-0.4693,-0.4638,-0.4514,-0.4246,-0.3946,-0.3792,-0.3675,-0.3479,-0.3564,-0.3598,-0.3765,-0.3866,-0.4068,-0.4168,-0.437,-0.4571,-0.4739,-0.4839,-0.4906,-0.5141,-0.494,-0.4233,-0.3931,-0.4135,-0.4135,-0.4031,-0.4135,-0.437,-0.4403,-0.4135,-0.3799,-0.353,-0.3295,-0.3026,-0.2759,-0.2726,-0.2827,-0.3026,-0.3362,-0.353,-0.3833,-0.4202,-0.4303,-0.4101,-0.3866,-0.3564,-0.3062,-0.2625,-0.2524,-0.2524,-0.249,-0.2524,-0.2322,-0.2255,-0.2223,-0.2189,-0.2189,-0.2189,-0.2189,-0.2189,-0.2189,-0.2189,-0.2122,-0.2088,-0.2054,-0.2021,-0.1953,-0.1953,-0.1717,-0.1346,-0.0875,-0.4482,-0.4482,-0.4482,-0.4482,-0.4482,-0.4482,-0.448,-0.4482,-0.451,-0.4589,-0.4624,-0.4635,-0.4657,-0.469,-0.4699,-0.4701,-0.4701,-0.4701,-0.4701,-0.4701,-0.4701,-0.4701,-0.4701,-0.4701,-0.4701,-0.4701,-0.4701,-0.4701,-0.4701,-0.4701,-0.4701,-0.4701,-0.4701,-0.4701,-0.4701,-0.4701,-0.4701,-0.4701,-0.4701,-0.4701,-0.4701,-0.4701,-0.4701,-0.4701,-0.4696,-0.4696,-0.4619,-0.4545,-0.4447,-0.4377,-0.4491,-0.4632,-0.4845,-0.4812,-0.491,-0.501,-0.4946,-0.501,-0.5111,-0.5279,-0.5379,-0.5543,-0.5677,-0.5949,-0.5711,-0.4839,-0.4571,-0.494,-0.5111,-0.494,-0.494,-0.5175,-0.5309,-0.4906,-0.4504,-0.4269,-0.4031,-0.3631,-0.3262,-0.3295,-0.3329,-0.3631,-0.3967,-0.4303,-0.4605,-0.4839,-0.5044,-0.5044,-0.4943,-0.4641,-0.3969,-0.3533,-0.3094,-0.3026,-0.2959,-0.2793,-0.2658,-0.2389,-0.2289,-0.2255,-0.2189,-0.2189,-0.2189,-0.2189,-0.2189,-0.2189,-0.2189,-0.2189,-0.2189,-0.2189,-0.2189,-0.2088,-0.2021,-0.1717,-0.1144,-0.4403,-0.4406,-0.4403,-0.4403,-0.4406,-0.4406,-0.4403,-0.4403,-0.4403,-0.4452,-0.4531,-0.4597,-0.463,-0.4668,-0.4688,-0.4701,-0.4701,-0.4701,-0.4701,-0.4701,-0.4701,-0.4701,-0.4701,-0.4701,-0.4701,-0.4701,-0.4701,-0.4701,-0.4701,-0.4701,-0.4701,-0.4701,-0.4701,-0.4701,-0.4701,-0.4701,-0.4701,-0.4701,-0.4701,-0.4701,-0.4701,-0.4701,-0.4701,-0.4701,-0.4701,-0.4701,-0.4755,-0.479,-0.4869,-0.4947,-0.5035,-0.5194,-0.5314,-0.5321,-0.5471,-0.5589,-0.5642,-0.5714,-0.5785,-0.5856,-0.5923,-0.6049,-0.615,-0.6317,-0.6317,-0.5577,-0.5543,-0.5882,-0.5882,-0.5781,-0.5781,-0.5949,-0.5982,-0.5748,-0.5178,-0.4772,-0.4403,-0.3998,-0.3833,-0.3866,-0.4101,-0.4537,-0.4906,-0.5346,-0.558,-0.5681,-0.5882,-0.558,-0.5547,-0.5547,-0.491,-0.444,-0.4068,-0.3732,-0.3698,-0.3362,-0.2995,-0.2726,-0.2389,-0.2255,-0.2189,-0.2189,-0.2189,-0.2189,-0.2189,-0.2189,-0.2189,-0.2189,-0.2189,-0.2189,-0.2189,-0.2189,-0.2088,-0.1987,-0.1548,-0.4311,-0.4305,-0.4308,-0.4308,-0.4308,-0.4308,-0.4311,-0.4311,-0.4311,-0.4365,-0.4455,-0.4518,-0.4589,-0.4638,-0.466,-0.4682,-0.4699,-0.4701,-0.4701,-0.4701,-0.4701,-0.4701,-0.4701,-0.4701,-0.4701,-0.4701,-0.4701,-0.4701,-0.4701,-0.4701,-0.4701,-0.4701,-0.4701,-0.4701,-0.4701,-0.4701,-0.4701,-0.4701,-0.4701,-0.4738,-0.4738,-0.4738,-0.4701,-0.4701,-0.4738,-0.4774,-0.4863,-0.5057,-0.5236,-0.5386,-0.5559,-0.5716,-0.5813,-0.5874,-0.5962,-0.6077,-0.6081,-0.6182,-0.6324,-0.6387,-0.6405,-0.646,-0.6489,-0.6489,-0.6489,-0.6455,-0.6422,-0.6422,-0.6455,-0.6455,-0.6422,-0.6418,-0.6418,-0.6384,-0.5781,-0.5379,-0.4973,-0.4568,-0.4501,-0.4535,-0.4873,-0.5346,-0.5748,-0.6187,-0.6321,-0.6455,-0.6355,-0.6053,-0.5819,-0.5886,-0.5614,-0.5346,-0.5108,-0.4806,-0.4504,-0.3967,-0.3497,-0.2928,-0.2591,-0.2356,-0.2189,-0.2189,-0.2189,-0.2189,-0.2189,-0.2189,-0.2189,-0.2189,-0.2189,-0.2189,-0.2189,-0.2189,-0.2189,-0.2088,-0.1918,-0.4305,-0.4305,-0.4305,-0.4305,-0.4305,-0.4305,-0.4305,-0.4305,-0.4308,-0.4324,-0.4362,-0.4417,-0.4499,-0.4677,-0.4635,-0.4644,-0.4685,-0.469,-0.4699,-0.4701,-0.4701,-0.4701,-0.4701,-0.4701,-0.4701,-0.4701,-0.4701,-0.4701,-0.4701,-0.4701,-0.4701,-0.4701,-0.4701,-0.4701,-0.4701,-0.4701,-0.4701,-0.4738,-0.481,-0.4847,-0.4992,-0.492,-0.4738,-0.4774,-0.4959,-0.5032,-0.5208,-0.5489,-0.5627,-0.5784,-0.5987,-0.6241,-0.6337,-0.6372,-0.6426,-0.641,-0.6448,-0.6473,-0.6582,-0.6553,-0.6529,-0.6509,-0.6501,-0.6489,-0.6489,-0.6489,-0.6489,-0.6489,-0.6489,-0.6489,-0.6489,-0.6489,-0.6489,-0.6489,-0.6116,-0.6083,-0.5915,-0.5547,-0.5346,-0.5413,-0.5547,-0.5886,-0.6183,-0.6422,-0.6422,-0.6489,-0.6489,-0.6221,-0.6221,-0.6221,-0.6221,-0.6083,-0.5915,-0.5714,-0.5312,-0.4571,-0.4034,-0.3362,-0.2726,-0.2389,-0.2189,-0.2189,-0.2189,-0.2189,-0.2189,-0.2189,-0.2189,-0.2189,-0.2189,-0.2189,-0.2189,-0.2189,-0.2189,-0.2155,-0.2021]},{"header":{"parameterUnit":"m.s-1","parameterCategory":1,"la1":31.0,"la2":29.5877,"lo1":-88.7671,"lo2":-86.6584,"dy":0.0162,"dx":0.0185,"nx":115,"ny":88,"refTime":"2023-09-26T06:00:00:Z","depth":0,"parameterNumber":3,"parameterNumberName":"V-component_of_WINDS"},"data":[0.0,0.0,0.0,0.0,0.0,0.0,0.0,0.0,0.0,0.0,0.0,0.0,0.0,0.0,0.0,0.0,0.0,0.0,0.0,0.0,0.0,0.0,0.0,0.0,0.0,0.0,0.0,0.0,0.0,0.0,0.0,0.0,0.0,0.0,0.0,0.0,0.0,0.0,0.0,0.0,0.0,0.0,0.0,0.0,0.0,0.0,0.0,0.0,0.0,0.0,0.0,0.0,0.0,0.0,0.0,0.0,0.0,0.0,0.0,0.0,0.0,0.0,0.0,0.0,0.0,0.0,0.0,0.0,0.0,0.0,0.0,0.0,0.0,0.0,0.0,0.0,0.0,0.0,0.0,0.0,0.0,0.0,0.0,0.0,0.0,0.0,0.0,0.0,0.0,0.0,0.0,0.0,0.0,0.0,0.0,0.0,0.0,0.0,0.0,0.0,0.0,0.0,0.0,0.0,0.0,0.0,0.0,0.0,0.0,0.0,0.0,0.0,0.0,0.0,0.0,0.0,0.0,0.0,0.0,0.0,0.0,0.0,0.0,0.0,0.0,0.0,0.0,0.0,0.0,0.0,0.0,0.0,0.0,0.0,0.0,0.0,0.0,0.0,0.0,0.0,0.0,0.0,0.0,0.0,0.0,0.0,0.0,0.0,0.0,0.0,0.0,0.0,0.0,0.0,0.0,0.0,0.0,0.0,0.0,0.0,0.0,0.0,0.0,0.0,0.0,0.0,0.0,0.0,0.0,0.0,0.0,0.0,0.0,0.0,0.0,0.0,0.0,0.0,0.0,0.0,0.0,0.0,0.0,0.0,0.0,0.0,0.0,0.0,0.0,0.0,0.0,0.0,0.0,0.0,0.0,0.0,0.0,0.0,0.0,0.0,0.0,0.0,0.0,0.0,0.0,0.0,0.0,0.0,0.0,0.0,0.0,0.0,0.0,0.0,0.0,0.0,0.0,0.0,0.0,0.0,0.0,0.0,0.0,0.0,0.0,0.0,0.0,0.0,0.0,0.0,0.0,0.0,0.0,0.0,0.0,0.0,0.0,0.0,0.0,0.0,0.0,0.0,0.0,0.0,0.0,0.0,0.0,0.0,0.0,0.0,0.0,0.0,0.0,0.0,0.0,0.0,0.0,0.0,0.0,0.0,0.0,0.0,0.0,0.0,0.0,0.0,0.0,0.0,0.0,0.0,0.0,0.0,0.0,0.0,0.0,0.0,0.0,0.0,0.0,0.0,0.0,0.0,0.0,0.0,0.0,0.0,0.0,0.0,0.0,0.0,0.0,0.0,0.0,0.0,0.0,0.0,0.0,0.0,0.0,0.0,0.0,0.0,0.0,0.0,0.0,0.0,0.0,0.0,0.0,0.0,0.0,0.0,0.0,0.0,0.0,0.0,0.0,0.0,0.0,0.0,0.0,0.0,0.0,0.0,0.0,0.0,0.0,0.0,0.0,0.0,0.0,0.0,0.0,0.0,0.0,0.0,0.0,0.0,0.0,0.0,0.0,0.0,0.0,0.0,0.0,0.0,0.0,0.0,0.0,0.0,0.0,0.0,0.0,0.0,0.0,0.0,0.0,0.0,0.0,0.0,0.0,0.0,0.0,0.0,0.0,0.0,0.0,0.0,0.0,0.0,0.0,0.0,0.0,0.0,0.0,0.0,0.0,0.0,0.0,0.0,0.0,0.0,0.0,0.0,0.0,0.0,0.0,0.0,0.0,0.0,0.0,0.0,0.0,0.0,0.0,0.0,0.0,0.0,0.0,0.0,0.0,0.0,0.0,0.0,0.0,0.0,0.0,0.0,0.0,0.0,0.0,0.0,0.0,0.0,0.0,0.0,0.0,0.0,0.0,0.0,0.0,0.0,0.0,0.0,0.0,0.0,0.0,0.0,0.0,0.0,0.0,0.0,0.0,0.0,0.0,0.0,0.0,0.0,0.0,0.0,0.0,0.0,0.0,0.0,0.0,0.0,0.0,0.0,0.0,0.0,0.0,0.0,0.0,0.0,0.0,0.0,0.0,0.0,0.0,0.0,0.0,0.0,0.0,0.0,0.0,0.0,0.0,0.0,0.0,0.0,0.0,0.0,0.0,0.0,0.0,0.0,0.0,0.0,0.0,0.0,0.0,0.0,0.0,0.0,0.0,0.0,0.0,0.0,0.0,0.0,0.0,0.0,0.0,0.0,0.0,0.0,0.0,0.0,0.0,0.0,0.0,0.0,0.0,0.0,0.0,0.0,0.0,0.0,0.0,0.0,0.0,0.0,0.0,0.0,0.0,0.0,0.0,0.0,0.0,0.0,0.0,0.0,0.0,0.0,0.0,0.0,0.0,0.0,0.0,0.0,0.0,0.0,0.0,0.0,0.0,0.0,0.0,0.0,0.0,0.0,0.0,0.0,0.0,0.0,0.0,0.0,0.0,0.0,0.0,0.0,0.0,0.0,0.0,0.0,0.0,0.0,0.0,0.0,0.0,0.0,0.0,0.0,0.0,0.0,0.0,0.0,0.0,0.0,0.0,0.0,0.0,0.0,0.0,0.0,0.0,0.0,0.0,0.0,0.0,0.0,0.0,0.0,0.0,0.0,0.0,0.0,0.0,0.0,0.0,0.0,0.0,0.0,0.0,0.0,0.0,0.0,0.0,0.0,0.0,0.0,0.0,0.0,0.0,0.0,0.0,0.0,0.0,0.0,0.0,0.0,0.0,0.0,0.0,0.0,0.0,0.0,0.0,0.0,0.0,0.0,0.0,0.0,0.0,0.0,0.0,0.0,0.0,0.0,0.0,0.0,0.0,0.0,0.0,0.0,0.0,0.0,0.0,0.0,0.0,0.0,0.0,0.0,0.0,0.0,0.0,0.0,0.0,0.0,0.0,0.0,0.0,0.0,0.0,0.0,0.0,0.0,0.0,0.0,0.0,0.0,0.0,0.0,0.0,0.0,0.0,0.0,0.0,0.0,0.0,0.0,0.0,0.0,0.0,0.0,0.0,0.0,0.0,0.0,0.0,0.0,0.0,0.0,0.0,0.0,0.0,0.0,0.0,0.0,0.0,0.0,0.0,0.0,0.0,0.0,0.0,0.0,0.0,0.0,0.0,0.0,0.0,0.0,0.0,0.0,0.0,0.0,0.0,0.0,0.0,0.0,0.0,0.0,0.0,0.0,0.0,0.0,0.0,0.0,0.0,0.0,0.0,0.0,0.0,0.0,0.0,0.0,0.0,0.0,0.0,0.0,0.0,0.0,0.0,0.0,0.0,0.0,0.0,0.0,0.0,0.0,0.0,0.0,0.0,0.0,0.0,0.0,0.0,0.0,0.0,0.0,0.0,0.0,0.0,0.0,0.0,0.0,0.0,0.0,0.0,0.0,0.0,0.0,0.0,0.0,0.0,0.0,0.0,0.0,0.0,0.0,0.0,0.0,0.0,0.0,0.0,0.0,0.0,0.0,0.0,0.0,0.0,0.0,0.0,0.0,0.0,0.0,0.0,0.0,0.0,0.0,0.0,0.0,0.0,0.0,0.0,0.0,0.0,0.0,0.0,0.0,0.0,0.0,0.0,0.0,0.0,0.0,0.0,0.0,0.0,0.0,0.0,0.0,0.0,0.0,0.0,0.0,0.0,0.0,0.0,0.0,0.0,0.0,0.0,0.0,0.0,0.0,0.0,0.0,0.0,0.0,0.0,0.0,0.0,0.0,0.0,0.0,0.0,0.0,0.0,0.0,0.0,0.0,0.0,0.0,0.0,0.0,0.0,0.0,0.0,0.0,0.0,0.0,0.0,0.0,0.0,0.0,0.0,0.0,0.0,0.0,0.0,0.0,0.0,0.0,0.0,0.0,0.0,0.0,0.0,0.0,0.0,0.0,0.0,0.0,0.0,0.0,0.0,0.0,0.0,0.0,0.0,0.0,0.0,0.0,0.0,0.0,0.0,0.0,0.0,0.0,0.0,0.0,0.0,0.0,0.0,0.0,0.0,0.0,0.0,0.0,0.0,0.0,0.0,0.0,0.0,0.0,0.0,0.0,0.0,0.0,0.0,0.0,0.0,0.0,0.0,0.0,0.0,0.0,0.0,0.0,0.0,0.0,0.0,0.0,0.0,0.0,0.0,0.0,0.0,0.0,0.0,0.0,0.0,0.0,0.0,0.0,0.0,0.0,0.0,0.0,0.0,0.0,0.0,0.0,0.0,0.0,0.0,0.0,0.0,0.0,0.0,0.0,0.0,0.0,0.0,0.0,0.0,0.0,0.0,0.0,0.0,0.0,0.0,0.0,0.0,0.0,2.4503,0.0,0.0,0.0,0.0,0.0,0.0,0.0,0.0,0.0,0.0,0.0,0.0,0.0,0.0,0.0,0.0,0.0,0.0,0.0,0.0,0.0,0.0,0.0,0.0,0.0,0.0,0.0,0.0,0.0,0.0,0.0,0.0,0.0,0.0,0.0,0.0,0.0,0.0,0.0,0.0,0.0,0.0,0.0,0.0,0.0,0.0,0.0,0.0,0.0,0.0,0.0,0.0,0.0,0.0,0.0,0.0,0.0,0.0,0.0,0.0,0.0,0.0,0.0,0.0,0.0,0.0,0.0,0.0,0.0,0.0,0.0,0.0,0.0,0.0,0.0,0.0,0.0,0.0,0.0,0.0,0.0,0.0,0.0,0.0,0.0,0.0,0.0,0.0,0.0,0.0,0.0,0.0,0.0,0.0,0.0,0.0,0.0,0.0,0.0,0.0,0.0,0.0,0.0,0.0,0.0,0.0,0.0,0.0,0.0,0.0,2.5191,2.475,2.4373,2.4275,2.4452,0.0,0.0,0.0,0.0,0.0,0.0,0.0,0.0,0.0,0.0,0.0,0.0,0.0,0.0,0.0,0.0,0.0,0.0,0.0,0.0,0.0,0.0,0.0,0.0,0.0,0.0,0.0,0.0,0.0,0.0,0.0,0.0,0.0,0.0,0.0,0.0,0.0,0.0,0.0,0.0,0.0,0.0,0.0,0.0,0.0,0.0,0.0,0.0,0.0,0.0,0.0,0.0,0.0,0.0,0.0,0.0,0.0,0.0,0.0,0.0,0.0,0.0,0.0,0.0,0.0,0.0,0.0,0.0,0.0,0.0,0.0,0.0,0.0,0.0,0.0,0.0,0.0,0.0,0.0,0.0,0.0,0.0,0.0,0.0,0.0,0.0,0.0,0.0,0.0,0.0,0.0,0.0,0.0,0.0,0.0,0.0,0.0,0.0,0.0,0.0,0.0,0.0,0.0,0.0,0.0,0.0,0.0,0.0,0.0,0.0,0.0,0.0,2.5286,2.5316,2.5407,0.0,0.0,0.0,0.0,0.0,0.0,0.0,0.0,0.0,0.0,0.0,0.0,0.0,0.0,0.0,0.0,0.0,0.0,0.0,0.0,0.0,0.0,0.0,0.0,0.0,0.0,0.0,0.0,0.0,0.0,0.0,0.0,0.0,0.0,0.0,0.0,0.0,0.0,0.0,0.0,0.0,0.0,0.0,0.0,0.0,0.0,0.0,0.0,0.0,0.0,0.0,0.0,0.0,0.0,0.0,0.0,0.0,0.0,0.0,0.0,0.0,0.0,0.0,0.0,0.0,0.0,0.0,0.0,0.0,0.0,0.0,0.0,0.0,0.0,0.0,0.0,0.0,0.0,0.0,0.0,0.0,0.0,0.0,0.0,0.0,0.0,0.0,0.0,0.0,0.0,0.0,0.0,0.0,0.0,0.0,0.0,0.0,0.0,0.0,0.0,0.0,0.0,0.0,0.0,0.0,0.0,0.0,0.0,0.0,0.0,2.5658,2.8473,2.851,0.0,2.8794,0.0,0.0,0.0,0.0,0.0,0.0,0.0,0.0,0.0,0.0,0.0,0.0,0.0,0.0,0.0,0.0,0.0,0.0,0.0,0.0,0.0,0.0,0.0,0.0,0.0,0.0,0.0,0.0,0.0,0.0,0.0,0.0,0.0,0.0,0.0,0.0,0.0,0.0,0.0,0.0,0.0,0.0,0.0,0.0,0.0,0.0,0.0,0.0,0.0,0.0,0.0,0.0,0.0,0.0,0.0,0.0,0.0,0.0,0.0,0.0,0.0,0.0,0.0,0.0,0.0,0.0,0.0,0.0,0.0,0.0,0.0,0.0,0.0,0.0,0.0,0.0,0.0,0.0,0.0,0.0,0.0,0.0,0.0,0.0,0.0,0.0,0.0,0.0,0.0,0.0,0.0,0.0,0.0,0.0,0.0,0.0,0.0,0.0,0.0,0.0,0.0,0.0,0.0,0.0,0.0,0.0,0.0,0.0,0.0,0.0,2.5993,2.8222,2.8375,2.8191,0.0,0.0,0.0,0.0,0.0,0.0,0.0,0.0,0.0,0.0,0.0,0.0,0.0,0.0,0.0,0.0,0.0,0.0,0.0,0.0,0.0,0.0,0.0,0.0,0.0,0.0,0.0,0.0,0.0,0.0,0.0,0.0,0.0,0.0,0.0,0.0,0.0,0.0,0.0,0.0,0.0,0.0,0.0,0.0,0.0,0.0,0.0,0.0,0.0,0.0,0.0,0.0,0.0,0.0,0.0,0.0,0.0,0.0,0.0,0.0,0.0,0.0,0.0,0.0,0.0,0.0,0.0,0.0,0.0,0.0,0.0,0.0,0.0,0.0,0.0,0.0,0.0,0.0,0.0,0.0,0.0,0.0,0.0,0.0,0.0,0.0,0.0,0.0,0.0,0.0,0.0,0.0,0.0,0.0,0.0,0.0,0.0,0.0,0.0,0.0,0.0,0.0,0.0,0.0,0.0,0.0,0.0,0.0,0.0,0.0,2.6219,2.7027,2.8931,2.8138,2.748,2.7273,0.0,0.0,0.0,0.0,0.0,0.0,0.0,0.0,0.0,0.0,0.0,0.0,0.0,0.0,0.0,0.0,0.0,0.0,0.0,0.0,0.0,0.0,0.0,0.0,0.0,0.0,0.0,0.0,0.0,0.0,0.0,0.0,0.0,0.0,0.0,0.0,0.0,0.0,0.0,0.0,0.0,0.0,0.0,0.0,0.0,0.0,0.0,0.0,0.0,0.0,0.0,0.0,0.0,0.0,0.0,0.0,0.0,0.0,0.0,0.0,0.0,0.0,0.0,0.0,0.0,0.0,0.0,0.0,0.0,0.0,0.0,0.0,0.0,0.0,0.0,0.0,0.0,0.0,0.0,0.0,0.0,0.0,0.0,0.0,0.0,0.0,0.0,0.0,0.0,0.0,0.0,0.0,0.0,0.0,0.0,0.0,0.0,0.0,0.0,0.0,0.0,0.0,0.0,0.0,0.0,0.0,0.0,0.0,3.1739,2.9182,2.9182,3.2039,2.8668,2.7346,0.0,0.0,0.0,0.0,0.0,0.0,0.0,0.0,0.0,0.0,0.0,0.0,0.0,0.0,0.0,0.0,0.0,0.0,0.0,0.0,0.0,0.0,0.0,0.0,0.0,0.0,0.0,0.0,0.0,0.0,0.0,0.0,0.0,0.0,0.0,0.0,0.0,0.0,0.0,0.0,0.0,0.0,0.0,0.0,0.0,0.0,0.0,0.0,0.0,0.0,0.0,0.0,0.0,0.0,0.0,0.0,0.0,0.0,0.0,0.0,0.0,0.0,0.0,0.0,0.0,0.0,0.0,0.0,0.0,0.0,0.0,0.0,0.0,0.0,0.0,0.0,0.0,0.0,0.0,0.0,0.0,0.0,0.0,0.0,0.0,0.0,0.0,0.0,0.0,0.0,0.0,0.0,0.0,0.0,0.0,0.0,0.0,0.0,0.0,0.0,0.0,0.0,0.0,0.0,0.0,0.0,0.0,0.0,0.0,2.7121,2.7609,2.8594,3.0161,2.8448,2.7727,0.0,0.0,0.0,0.0,0.0,0.0,0.0,0.0,0.0,0.0,0.0,0.0,0.0,0.0,0.0,0.0,0.0,0.0,0.0,0.0,0.0,0.0,0.0,0.0,0.0,0.0,0.0,0.0,0.0,0.0,0.0,0.0,0.0,0.0,0.0,0.0,0.0,0.0,0.0,0.0,0.0,0.0,0.0,0.0,0.0,0.0,0.0,0.0,0.0,0.0,0.0,0.0,0.0,0.0,0.0,0.0,0.0,0.0,0.0,0.0,0.0,0.0,0.0,0.0,0.0,0.0,0.0,0.0,0.0,0.0,0.0,0.0,0.0,0.0,0.0,0.0,0.0,0.0,0.0,0.0,0.0,0.0,0.0,0.0,0.0,0.0,0.0,0.0,0.0,0.0,0.0,0.0,0.0,0.0,0.0,0.0,0.0,0.0,0.0,0.0,0.0,0.0,0.0,0.0,0.0,0.0,0.0,0.0,0.0,2.614,0.0,2.9205,2.9329,2.8201,2.7258,0.0,0.0,0.0,0.0,0.0,0.0,0.0,0.0,0.0,0.0,0.0,0.0,0.0,0.0,0.0,0.0,0.0,0.0,0.0,0.0,0.0,0.0,0.0,0.0,0.0,0.0,0.0,0.0,0.0,0.0,0.0,0.0,0.0,0.0,0.0,0.0,0.0,0.0,0.0,0.0,0.0,0.0,0.0,0.0,0.0,0.0,0.0,0.0,0.0,0.0,0.0,0.0,0.0,0.0,0.0,0.0,0.0,0.0,0.0,0.0,0.0,0.0,0.0,0.0,0.0,0.0,0.0,0.0,0.0,0.0,0.0,0.0,0.0,0.0,0.0,0.0,0.0,0.0,0.0,0.0,0.0,0.0,0.0,0.0,0.0,0.0,0.0,0.0,0.0,0.0,0.0,0.0,0.0,0.0,0.0,0.0,0.0,0.0,0.0,0.0,0.0,0.0,0.0,0.0,0.0,0.0,0.0,0.0,2.6187,2.9885,3.1057,3.1094,3.0222,2.7897,2.592,0.0,0.0,0.0,0.0,0.0,0.0,0.0,0.0,0.0,0.0,0.0,0.0,0.0,0.0,0.0,0.0,0.0,0.0,0.0,0.0,0.0,0.0,0.0,0.0,0.0,0.0,0.0,0.0,0.0,0.0,0.0,0.0,0.0,0.0,0.0,0.0,0.0,0.0,0.0,0.0,0.0,0.0,0.0,0.0,0.0,0.0,0.0,0.0,0.0,0.0,0.0,0.0,0.0,0.0,0.0,0.0,0.0,0.0,0.0,0.0,0.0,0.0,0.0,0.0,0.0,0.0,0.0,0.0,0.0,0.0,0.0,0.0,0.0,0.0,0.0,0.0,0.0,0.0,0.0,0.0,0.0,0.0,0.0,0.0,0.0,0.0,0.0,0.0,0.0,0.0,0.0,0.0,0.0,0.0,0.0,0.0,0.0,0.0,0.0,0.0,0.0,0.0,0.0,0.0,0.0,0.0,0.0,0.0,0.0,2.7761,2.9115,3.0771,3.2455,2.8196,2.6838,0.0,0.0,0.0,0.0,0.0,0.0,0.0,0.0,0.0,0.0,0.0,0.0,0.0,0.0,0.0,0.0,0.0,0.0,0.0,0.0,0.0,0.0,0.0,0.0,0.0,0.0,0.0,0.0,0.0,0.0,0.0,0.0,0.0,0.0,0.0,0.0,0.0,0.0,0.0,0.0,0.0,0.0,0.0,0.0,0.0,0.0,0.0,0.0,0.0,0.0,0.0,0.0,0.0,0.0,0.0,0.0,0.0,0.0,0.0,0.0,0.0,0.0,0.0,0.0,0.0,0.0,0.0,0.0,0.0,0.0,0.0,0.0,0.0,0.0,0.0,0.0,0.0,0.0,0.0,0.0,0.0,0.0,0.0,0.0,0.0,0.0,0.0,0.0,0.0,0.0,0.0,0.0,0.0,0.0,0.0,0.0,0.0,0.0,0.0,0.0,0.0,0.0,0.0,0.0,0.0,0.0,0.0,0.0,0.0,3.0087,3.1621,3.2944,3.3904,2.9911,2.813,2.9015,0.0,0.0,0.0,0.0,0.0,0.0,0.0,0.0,0.0,0.0,0.0,0.0,0.0,0.0,0.0,0.0,0.0,0.0,0.0,0.0,0.0,0.0,0.0,0.0,0.0,0.0,0.0,0.0,0.0,0.0,0.0,0.0,0.0,0.0,0.0,0.0,0.0,0.0,0.0,0.0,0.0,0.0,0.0,0.0,0.0,0.0,0.0,0.0,0.0,0.0,0.0,0.0,0.0,0.0,0.0,0.0,0.0,0.0,0.0,0.0,0.0,0.0,0.0,0.0,0.0,0.0,0.0,0.0,0.0,0.0,0.0,0.0,0.0,0.0,0.0,0.0,0.0,0.0,0.0,0.0,0.0,0.0,0.0,0.0,0.0,0.0,0.0,0.0,0.0,0.0,0.0,0.0,0.0,0.0,0.0,0.0,0.0,0.0,0.0,0.0,0.0,0.0,0.0,0.0,0.0,0.0,0.0,0.0,3.6,3.797,3.7646,3.4903,3.2742,2.9849,0.0,0.0,0.0,0.0,0.0,0.0,0.0,0.0,0.0,0.0,0.0,0.0,0.0,0.0,0.0,0.0,0.0,0.0,0.0,0.0,0.0,0.0,0.0,0.0,0.0,0.0,0.0,0.0,0.0,0.0,0.0,0.0,0.0,0.0,0.0,0.0,0.0,0.0,0.0,0.0,0.0,0.0,0.0,0.0,0.0,0.0,0.0,0.0,0.0,0.0,0.0,0.0,0.0,0.0,0.0,0.0,0.0,0.0,0.0,0.0,0.0,0.0,0.0,0.0,0.0,0.0,0.0,0.0,0.0,0.0,0.0,0.0,0.0,0.0,0.0,0.0,0.0,0.0,0.0,0.0,0.0,0.0,0.0,0.0,0.0,0.0,0.0,0.0,0.0,0.0,0.0,0.0,0.0,0.0,0.0,0.0,0.0,0.0,0.0,0.0,0.0,0.0,0.0,0.0,0.0,0.0,0.0,0.0,0.0,4.2272,4.5,4.4752,4.1318,3.5574,3.2269,0.0,0.0,0.0,0.0,0.0,0.0,0.0,0.0,0.0,0.0,0.0,0.0,0.0,0.0,0.0,0.0,0.0,0.0,0.0,0.0,0.0,0.0,0.0,0.0,0.0,0.0,0.0,0.0,0.0,0.0,0.0,0.0,0.0,0.0,0.0,0.0,0.0,0.0,0.0,0.0,0.0,0.0,0.0,0.0,0.0,0.0,0.0,0.0,0.0,0.0,0.0,0.0,0.0,0.0,0.0,0.0,0.0,0.0,0.0,0.0,0.0,0.0,0.0,0.0,0.0,0.0,0.0,0.0,0.0,0.0,0.0,0.0,0.0,0.0,0.0,0.0,0.0,0.0,0.0,0.0,0.0,0.0,0.0,0.0,0.0,0.0,0.0,0.0,0.0,0.0,0.0,0.0,0.0,0.0,0.0,0.0,0.0,0.0,0.0,0.0,0.0,0.0,0.0,0.0,0.0,0.0,0.0,0.0,4.128,4.5818,4.9965,5.0713,4.7871,4.1468,3.6555,0.0,0.0,0.0,0.0,0.0,0.0,0.0,0.0,0.0,0.0,0.0,0.0,0.0,0.0,0.0,0.0,0.0,0.0,0.0,0.0,0.0,0.0,0.0,0.0,0.0,0.0,0.0,0.0,0.0,0.0,0.0,0.0,0.0,0.0,0.0,0.0,0.0,0.0,0.0,0.0,0.0,0.0,0.0,0.0,0.0,0.0,0.0,0.0,0.0,0.0,0.0,0.0,0.0,0.0,0.0,0.0,0.0,0.0,0.0,0.0,0.0,0.0,0.0,0.0,0.0,0.0,0.0,0.0,0.0,0.0,0.0,0.0,0.0,0.0,0.0,0.0,0.0,0.0,0.0,0.0,0.0,0.0,0.0,0.0,0.0,0.0,0.0,0.0,0.0,0.0,0.0,0.0,0.0,0.0,0.0,0.0,0.0,0.0,0.0,0.0,0.0,0.0,0.0,0.0,0.0,0.0,0.0,0.0,4.4203,4.8023,5.3375,5.5289,5.3451,4.8077,4.1445,0.0,0.0,0.0,0.0,0.0,0.0,0.0,0.0,0.0,0.0,0.0,0.0,0.0,0.0,0.0,0.0,0.0,0.0,0.0,0.0,0.0,0.0,0.0,0.0,0.0,0.0,0.0,0.0,0.0,0.0,0.0,0.0,0.0,0.0,0.0,0.0,0.0,0.0,0.0,0.0,0.0,0.0,0.0,0.0,0.0,0.0,0.0,0.0,0.0,0.0,0.0,0.0,0.0,0.0,0.0,0.0,0.0,0.0,0.0,0.0,0.0,0.0,0.0,0.0,0.0,0.0,0.0,0.0,0.0,0.0,0.0,0.0,0.0,0.0,0.0,0.0,0.0,0.0,0.0,0.0,0.0,0.0,0.0,0.0,0.0,0.0,0.0,0.0,0.0,0.0,0.0,0.0,0.0,0.0,0.0,0.0,0.0,0.0,0.0,0.0,0.0,0.0,0.0,0.0,0.0,0.0,0.0,0.0,4.6072,5.2148,5.5074,5.6026,5.489,4.8295,4.2302,0.0,0.0,0.0,0.0,0.0,0.0,0.0,0.0,0.0,0.0,0.0,0.0,0.0,0.0,0.0,0.0,0.0,0.0,0.0,0.0,0.0,0.0,0.0,0.0,0.0,0.0,0.0,0.0,0.0,0.0,0.0,0.0,0.0,0.0,0.0,0.0,0.0,0.0,0.0,0.0,0.0,0.0,0.0,0.0,0.0,0.0,0.0,0.0,2.6838,0.0,0.0,0.0,0.0,0.0,0.0,0.0,0.0,0.0,0.0,0.0,0.0,0.0,0.0,0.0,0.0,0.0,0.0,0.0,0.0,0.0,0.0,0.0,0.0,0.0,0.0,0.0,0.0,0.0,0.0,0.0,0.0,0.0,0.0,0.0,0.0,0.0,0.0,0.0,0.0,0.0,0.0,0.0,0.0,0.0,0.0,0.0,0.0,0.0,0.0,0.0,0.0,0.0,0.0,0.0,0.0,0.0,0.0,0.0,4.8183,5.4063,5.6765,5.7499,5.611,5.0945,4.5254,0.0,0.0,0.0,0.0,0.0,0.0,0.0,0.0,0.0,0.0,0.0,0.0,0.0,0.0,0.0,0.0,0.0,0.0,0.0,0.0,0.0,0.0,0.0,0.0,0.0,0.0,0.0,0.0,0.0,0.0,0.0,0.0,0.0,0.0,0.0,0.0,0.0,0.0,0.0,0.0,0.0,0.0,0.0,0.0,0.0,0.0,0.0,0.0,0.0,0.0,0.0,0.0,0.0,0.0,0.0,0.0,0.0,0.0,0.0,0.0,0.0,0.0,0.0,0.0,0.0,0.0,0.0,0.0,0.0,0.0,0.0,0.0,0.0,0.0,0.0,0.0,0.0,0.0,0.0,0.0,0.0,0.0,0.0,0.0,0.0,0.0,0.0,0.0,0.0,0.0,0.0,0.0,0.0,0.0,0.0,0.0,0.0,0.0,0.0,0.0,0.0,0.0,0.0,0.0,0.0,0.0,0.0,4.3938,4.9529,5.5023,5.7899,5.8613,5.7068,5.372,4.8317,4.08,0.0,0.0,0.0,0.0,0.0,0.0,0.0,0.0,0.0,0.0,0.0,0.0,0.0,0.0,0.0,0.0,0.0,0.0,0.0,0.0,0.0,0.0,0.0,0.0,0.0,0.0,0.0,0.0,0.0,0.0,0.0,0.0,0.0,0.0,0.0,0.0,0.0,0.0,2.709,2.8803,0.0,0.0,0.0,0.0,0.0,0.0,0.0,0.0,2.8846,0.0,0.0,0.0,0.0,0.0,0.0,0.0,0.0,0.0,0.0,0.0,0.0,0.0,0.0,0.0,0.0,0.0,0.0,0.0,0.0,0.0,0.0,0.0,0.0,0.0,0.0,0.0,0.0,0.0,0.0,0.0,0.0,0.0,0.0,0.0,0.0,0.0,0.0,0.0,0.0,0.0,0.0,0.0,0.0,0.0,0.0,0.0,0.0,0.0,0.0,0.0,0.0,0.0,0.0,0.0,0.0,4.3509,4.4125,4.8087,5.5775,5.715,5.7201,5.601,5.3216,4.8485,4.1906,0.0,0.0,0.0,0.0,0.0,0.0,0.0,0.0,0.0,0.0,0.0,0.0,0.0,0.0,0.0,0.0,0.0,0.0,0.0,0.0,0.0,0.0,0.0,0.0,0.0,0.0,0.0,0.0,0.0,0.0,0.0,0.0,0.0,0.0,0.0,0.0,0.0,0.0,0.0,3.2589,3.3867,0.0,0.0,0.0,0.0,0.0,0.0,0.0,0.0,2.9072,0.0,0.0,0.0,0.0,0.0,0.0,0.0,0.0,0.0,0.0,0.0,0.0,0.0,0.0,0.0,0.0,0.0,0.0,0.0,0.0,0.0,0.0,0.0,0.0,0.0,0.0,0.0,0.0,0.0,0.0,0.0,0.0,0.0,0.0,0.0,0.0,0.0,0.0,0.0,0.0,0.0,0.0,0.0,0.0,0.0,0.0,0.0,0.0,0.0,0.0,0.0,0.0,0.0,0.0,0.0,4.2537,4.5598,5.0076,5.5993,5.6975,5.6937,5.5958,5.203,4.7372,0.0,0.0,0.0,0.0,0.0,0.0,0.0,0.0,0.0,0.0,0.0,0.0,0.0,0.0,0.0,0.0,0.0,0.0,0.0,0.0,0.0,0.0,0.0,0.0,0.0,0.0,0.0,0.0,0.0,0.0,0.0,0.0,0.0,0.0,0.0,0.0,0.0,0.0,0.0,0.0,3.3763,3.4857,3.4454,0.0,0.0,0.0,0.0,0.0,0.0,3.0938,3.0473,0.0,0.0,0.0,0.0,0.0,0.0,0.0,0.0,0.0,0.0,0.0,0.0,0.0,0.0,0.0,0.0,0.0,0.0,0.0,0.0,0.0,0.0,0.0,0.0,0.0,0.0,0.0,0.0,0.0,0.0,0.0,0.0,0.0,0.0,0.0,0.0,0.0,0.0,0.0,0.0,0.0,0.0,0.0,0.0,0.0,0.0,0.0,0.0,0.0,0.0,0.0,0.0,0.0,0.0,0.0,4.1115,4.661,5.1631,5.5919,5.6661,5.6594,5.5746,5.082,4.6114,0.0,0.0,0.0,0.0,0.0,0.0,0.0,0.0,0.0,0.0,0.0,0.0,0.0,0.0,0.0,0.0,0.0,0.0,0.0,0.0,0.0,0.0,0.0,0.0,0.0,0.0,0.0,0.0,0.0,0.0,0.0,0.0,0.0,0.0,0.0,0.0,0.0,0.0,0.0,0.0,0.0,3.6325,3.5811,3.4784,0.0,0.0,0.0,0.0,3.3617,3.3697,0.0,0.0,0.0,0.0,0.0,0.0,0.0,0.0,0.0,0.0,0.0,0.0,0.0,0.0,0.0,0.0,0.0,0.0,0.0,0.0,0.0,0.0,0.0,0.0,0.0,0.0,0.0,0.0,0.0,0.0,0.0,0.0,0.0,0.0,0.0,0.0,0.0,0.0,0.0,0.0,0.0,0.0,0.0,0.0,0.0,0.0,0.0,0.0,0.0,0.0,0.0,0.0,0.0,0.0,0.0,0.0,4.1976,4.5234,4.9694,5.524,5.5649,5.5336,5.45,5.0003,4.553,0.0,0.0,0.0,0.0,0.0,0.0,0.0,0.0,0.0,0.0,0.0,0.0,0.0,0.0,0.0,0.0,0.0,0.0,0.0,0.0,0.0,0.0,0.0,0.0,0.0,0.0,0.0,0.0,0.0,0.0,0.0,0.0,0.0,0.0,0.0,0.0,0.0,0.0,0.0,0.0,0.0,4.07,3.8571,3.8726,3.8256,0.0,0.0,3.6934,3.7874,3.9709,0.0,0.0,0.0,0.0,0.0,0.0,0.0,0.0,0.0,0.0,0.0,0.0,0.0,0.0,0.0,0.0,0.0,0.0,0.0,0.0,0.0,0.0,0.0,0.0,0.0,0.0,0.0,0.0,0.0,0.0,0.0,0.0,0.0,0.0,0.0,0.0,0.0,0.0,0.0,0.0,0.0,0.0,0.0,0.0,0.0,0.0,0.0,0.0,0.0,0.0,0.0,0.0,0.0,0.0,0.0,3.7489,4.1601,4.5808,4.9997,5.3952,5.4122,5.37,5.2883,4.7261,4.2995,0.0,0.0,0.0,0.0,0.0,0.0,0.0,0.0,0.0,0.0,0.0,0.0,0.0,0.0,0.0,0.0,0.0,0.0,0.0,0.0,0.0,0.0,0.0,0.0,0.0,0.0,0.0,0.0,0.0,0.0,0.0,0.0,0.0,0.0,0.0,0.0,0.0,0.0,0.0,0.0,0.0,0.0,4.0149,4.0736,0.0,0.0,0.0,4.0341,4.0708,0.0,0.0,0.0,0.0,0.0,0.0,0.0,0.0,0.0,0.0,0.0,0.0,0.0,0.0,0.0,0.0,0.0,0.0,0.0,0.0,0.0,0.0,0.0,0.0,0.0,0.0,0.0,0.0,0.0,0.0,0.0,0.0,0.0,0.0,0.0,0.0,0.0,0.0,0.0,0.0,0.0,0.0,0.0,0.0,0.0,0.0,0.0,0.0,0.0,0.0,0.0,0.0,0.0,0.0,0.0,0.0,0.0,4.1716,4.6673,5.0596,5.3321,5.3174,5.256,5.1449,4.5557,0.0,0.0,0.0,0.0,0.0,0.0,0.0,0.0,0.0,0.0,0.0,0.0,0.0,0.0,0.0,0.0,0.0,0.0,0.0,0.0,0.0,0.0,0.0,0.0,0.0,0.0,0.0,2.4707,0.0,0.0,0.0,0.0,0.0,0.0,0.0,0.0,0.0,0.0,0.0,0.0,0.0,0.0,4.1001,4.1617,4.2902,4.3534,0.0,0.0,4.3424,4.324,4.3562,4.2718,0.0,0.0,0.0,0.0,0.0,0.0,0.0,0.0,0.0,0.0,0.0,0.0,0.0,0.0,0.0,0.0,0.0,0.0,0.0,0.0,0.0,0.0,0.0,0.0,0.0,0.0,0.0,0.0,0.0,0.0,0.0,0.0,0.0,0.0,0.0,0.0,0.0,0.0,0.0,0.0,0.0,0.0,0.0,0.0,0.0,0.0,0.0,0.0,0.0,0.0,0.0,0.0,0.0,0.0,0.0,4.3398,4.7364,5.1,5.4236,5.3577,5.2423,5.0741,4.6432,4.2391,0.0,0.0,0.0,0.0,0.0,0.0,0.0,0.0,0.0,0.0,0.0,0.0,0.0,0.0,0.0,0.0,0.0,0.0,0.0,0.0,0.0,0.0,0.0,0.0,0.0,0.0,0.0,0.0,0.0,0.0,0.0,0.0,0.0,0.0,0.0,0.0,0.0,0.0,0.0,0.0,0.0,4.3286,4.3322,4.5957,4.7599,0.0,0.0,4.6535,4.5773,4.8793,4.8683,4.1046,0.0,0.0,0.0,0.0,0.0,0.0,0.0,0.0,0.0,0.0,0.0,0.0,0.0,0.0,0.0,0.0,0.0,0.0,0.0,0.0,0.0,0.0,0.0,0.0,0.0,0.0,0.0,0.0,0.0,0.0,0.0,0.0,0.0,0.0,0.0,0.0,0.0,0.0,0.0,0.0,0.0,0.0,0.0,0.0,0.0,0.0,0.0,0.0,0.0,0.0,0.0,0.0,0.0,3.9342,4.1992,4.6871,5.0548,5.2774,5.2582,5.1856,5.0707,4.6052,4.2061,0.0,0.0,0.0,0.0,0.0,0.0,0.0,0.0,0.0,0.0,0.0,0.0,0.0,0.0,0.0,0.0,0.0,0.0,0.0,0.0,0.0,0.0,0.0,0.0,0.0,0.0,0.0,0.0,2.7803,2.8096,2.8398,0.0,0.0,0.0,0.0,0.0,0.0,0.0,0.0,0.0,0.0,4.3439,4.6504,4.7908,0.0,0.0,4.8732,4.8159,4.6828,4.7535,4.6507,4.1434,4.0165,0.0,0.0,0.0,0.0,0.0,0.0,0.0,0.0,0.0,0.0,0.0,0.0,0.0,0.0,0.0,0.0,0.0,0.0,0.0,0.0,0.0,0.0,0.0,0.0,0.0,0.0,0.0,0.0,0.0,0.0,0.0,0.0,0.0,0.0,0.0,0.0,0.0,0.0,0.0,0.0,0.0,0.0,0.0,0.0,0.0,0.0,0.0,0.0,0.0,0.0,0.0,0.0,4.003,4.2265,4.6967,5.0317,5.2274,5.1813,5.1048,4.9861,4.5701,4.201,0.0,0.0,0.0,0.0,0.0,0.0,0.0,0.0,0.0,0.0,0.0,0.0,0.0,0.0,0.0,0.0,0.0,0.0,0.0,0.0,0.0,0.0,0.0,0.0,0.0,0.0,0.0,0.0,2.9104,2.9513,2.9736,0.0,0.0,0.0,0.0,0.0,0.0,0.0,0.0,0.0,0.0,4.4616,4.8278,4.9044,4.9368,4.9843,4.9508,4.882,4.7636,4.6856,4.5235,4.1764,0.0,0.0,0.0,0.0,0.0,0.0,0.0,0.0,0.0,0.0,0.0,0.0,0.0,0.0,0.0,0.0,0.0,0.0,0.0,0.0,0.0,0.0,0.0,0.0,0.0,0.0,0.0,0.0,0.0,0.0,3.1286,0.0,0.0,0.0,0.0,0.0,0.0,0.0,0.0,0.0,0.0,0.0,0.0,0.0,0.0,0.0,0.0,0.0,0.0,0.0,0.0,0.0,0.0,4.1585,4.5043,4.7909,5.0625,5.301,5.1592,4.9971,4.8279,4.5663,4.259,3.8991,0.0,0.0,0.0,0.0,0.0,0.0,0.0,0.0,0.0,0.0,0.0,0.0,0.0,0.0,0.0,0.0,0.0,0.0,0.0,0.0,0.0,0.0,0.0,0.0,0.0,0.0,2.7246,2.8472,2.9773,0.0,0.0,0.0,0.0,0.0,0.0,0.0,0.0,0.0,0.0,4.3926,4.724,4.8113,4.9262,4.9981,4.9997,4.9067,4.8279,4.8215,4.7802,4.6174,0.0,0.0,0.0,0.0,0.0,0.0,0.0,0.0,0.0,0.0,0.0,0.0,0.0,0.0,0.0,0.0,0.0,0.0,0.0,0.0,0.0,0.0,0.0,0.0,0.0,0.0,0.0,3.6254,3.6261,0.0,0.0,0.0,0.0,0.0,0.0,0.0,0.0,0.0,0.0,0.0,4.2065,4.2476,0.0,0.0,0.0,0.0,0.0,0.0,0.0,0.0,0.0,0.0,0.0,0.0,4.177,4.364,4.7991,5.0938,5.2274,5.1774,5.0971,4.9861,4.7355,4.3521,3.8304,0.0,0.0,0.0,0.0,0.0,0.0,0.0,0.0,0.0,0.0,0.0,0.0,0.0,0.0,0.0,0.0,0.0,0.0,0.0,0.0,0.0,0.0,0.0,0.0,0.0,3.1255,0.0,0.0,0.0,0.0,0.0,0.0,0.0,0.0,0.0,0.0,0.0,3.9397,4.2846,4.4741,4.651,4.846,4.894,4.9264,0.0,0.0,0.0,0.0,0.0,0.0,0.0,0.0,0.0,0.0,0.0,0.0,0.0,0.0,4.6877,4.2071,4.1336,4.1728,4.2534,0.0,0.0,0.0,0.0,0.0,0.0,0.0,0.0,0.0,0.0,0.0,0.0,0.0,0.0,4.0428,0.0,4.0432,0.0,0.0,0.0,0.0,0.0,0.0,0.0,0.0,4.2944,4.4858,4.6146,4.6601,4.6631,0.0,4.5773,4.3197,0.0,0.0,0.0,0.0,0.0,0.0,0.0,0.0,4.2341,4.3403,4.7876,5.063,5.1428,5.1467,5.0933,4.9784,4.7048,4.3543,3.9269,3.7657,3.6073,0.0,0.0,0.0,0.0,0.0,0.0,0.0,0.0,0.0,0.0,0.0,0.0,0.0,0.0,0.0,0.0,0.0,0.0,0.0,0.0,0.0,0.0,0.0,3.3258,0.0,0.0,0.0,0.0,0.0,0.0,0.0,0.0,0.0,3.9058,3.996,4.1945,4.5674,4.6127,4.6892,4.8827,0.0,0.0,0.0,0.0,0.0,0.0,0.0,4.5542,4.4377,4.5507,4.6391,4.6041,4.8206,5.0089,5.029,0.0,0.0,4.6266,4.5457,4.5859,4.6625,4.6814,4.7274,4.89,4.9542,5.0179,0.0,0.0,0.0,0.0,0.0,0.0,0.0,0.0,4.2382,4.3622,0.0,4.3277,0.0,0.0,0.0,0.0,0.0,4.2787,0.0,0.0,4.7844,4.9977,4.9454,5.0237,5.0238,4.9603,5.1108,4.9587,4.5295,4.1835,0.0,0.0,0.0,0.0,0.0,0.0,4.3325,4.4462,4.774,4.9822,5.0668,5.0707,4.9899,4.8163,4.5047,4.2889,4.1808,3.9388,3.7879,3.7606,3.5044,0.0,0.0,0.0,0.0,0.0,0.0,0.0,0.0,0.0,0.0,0.0,0.0,0.0,0.0,0.0,0.0,0.0,0.0,0.0,0.0,3.3506,0.0,0.0,0.0,0.0,0.0,0.0,0.0,0.0,0.0,0.0,4.1407,4.2909,4.5112,4.7871,0.0,0.0,0.0,0.0,4.756,4.7594,4.7295,4.7367,4.8096,4.845,4.8074,4.6474,0.0,0.0,4.9131,4.984,5.0326,4.9296,5.1529,5.2766,5.199,5.0786,5.027,5.0902,4.9997,5.0163,5.2828,5.3312,5.3576,5.0052,0.0,0.0,0.0,0.0,4.5313,4.7123,5.0255,4.9649,4.9119,4.862,4.7931,0.0,0.0,0.0,0.0,0.0,0.0,4.634,4.7834,4.9962,5.2196,5.4528,5.4776,5.5143,5.5608,5.4863,5.3251,5.086,4.8631,4.5071,4.0282,0.0,0.0,0.0,0.0,4.4042,4.6154,4.8279,4.9822,5.0668,5.0707,4.9856,4.8159,4.7158,4.5427,4.2854,4.309,4.1916,3.8977,3.8434,0.0,0.0,0.0,0.0,0.0,0.0,0.0,0.0,0.0,0.0,0.0,0.0,0.0,0.0,0.0,0.0,0.0,0.0,0.0,3.5261,3.6022,3.6259,0.0,0.0,0.0,0.0,0.0,0.0,0.0,0.0,0.0,4.5595,4.5926,4.7227,0.0,0.0,4.7769,4.9183,4.8548,4.8138,4.87,4.8652,0.0,4.8803,4.8395,4.8102,4.821,5.04,5.2557,5.4072,5.4569,5.5078,5.5852,5.6738,5.723,5.6925,5.5236,5.3779,5.3398,5.3785,5.4784,5.6272,5.6968,5.7619,5.7801,5.2485,4.9721,4.9485,5.0889,5.0759,5.2447,5.5265,5.4791,5.4379,5.3991,5.3001,5.1119,4.8576,4.7226,0.0,0.0,0.0,4.9852,5.2112,5.2964,5.4899,5.7577,5.7748,5.8078,5.8611,5.7641,5.6132,5.4164,5.2861,4.9506,4.4402,0.0,0.0,4.2335,4.3833,4.5351,4.6889,4.8548,4.9663,5.0168,4.9861,4.9163,4.8163,4.7471,4.6163,4.4205,4.4705,4.3782,4.0931,4.0432,3.933,0.0,0.0,0.0,0.0,0.0,0.0,0.0,0.0,0.0,0.0,0.0,3.4136,3.3489,0.0,0.0,0.0,3.6596,3.7223,3.8274,3.829,0.0,0.0,0.0,0.0,0.0,0.0,0.0,4.1207,4.3293,4.5328,4.7139,4.766,4.8889,5.1543,4.9582,4.8394,4.9745,0.0,4.8918,4.9735,4.9826,4.9905,5.015,5.003,5.0068,5.052,5.212,5.3753,5.5256,5.5861,5.6587,5.7772,5.8376,5.8606,5.8606,5.7886,5.7122,5.6275,5.6848,5.7925,5.9109,5.9752,6.0363,6.4216,6.2942,5.7604,5.539,5.5508,5.6306,5.7266,5.8268,5.8307,5.9033,6.0109,5.781,5.615,5.4852,5.1823,0.0,5.1767,5.2762,5.4104,5.5715,5.6473,5.766,5.9172,5.9325,5.9462,5.9622,5.9598,5.8357,5.6055,5.5126,5.301,4.9861,4.8202,4.6855,4.5898,4.6509,4.7005,4.7235,4.8663,4.9437,4.9481,4.8668,4.8163,4.8091,4.6552,4.5629,4.5475,4.4744,4.3893,4.3004,4.1293,3.994,3.9031,0.0,0.0,0.0,0.0,0.0,0.0,0.0,0.0,0.0,0.0,0.0,0.0,0.0,0.0,0.0,3.9681,0.0,4.1719,4.0228,0.0,0.0,0.0,3.8508,3.95,4.0319,4.1127,4.1927,0.0,0.0,4.6889,4.8509,5.0164,5.1697,5.0466,4.9784,5.0784,5.0091,4.9784,5.0664,5.0779,5.1029,5.1544,5.2368,5.2938,5.2886,5.3704,5.4293,5.4396,5.5021,5.5785,5.6702,5.7428,5.8077,5.8116,5.9307,6.0148,5.9217,5.914,5.9637,6.0905,6.1287,6.1516,6.6896,6.5843,6.3228,6.1378,6.0155,6.0282,6.0855,6.17,6.17,6.0867,5.9376,5.8758,5.7318,5.5293,5.5064,5.5484,5.633,5.6567,5.727,5.824,5.787,5.8279,5.9337,5.9406,6.0139,6.134,6.0775,5.9819,5.855,5.7132,5.5362,5.3318,5.2241,5.0274,4.7582,4.712,4.7855,4.9784,4.9548,4.9721,5.0331,4.9604,4.8834,4.8184,4.7147,4.597,4.4662,4.4436,4.3624,4.2196,4.1664,4.0759,3.9304,3.8846,0.0,0.0,0.0,0.0,0.0,0.0,0.0,0.0,0.0,3.7965,3.7166,0.0,3.9361,0.0,4.0436,4.154,4.1769,4.1395,0.0,0.0,4.1553,4.1894,4.2196,4.2897,4.3474,4.3701,4.5932,4.7586,4.7812,4.9851,5.1428,5.1808,5.0433,5.0168,5.2164,5.1323,5.0668,5.1428,5.159,5.1598,5.1895,5.3086,5.3974,5.3978,5.4621,5.5115,5.5096,5.5779,5.6587,5.7428,5.8268,5.8994,5.9606,6.0186,6.03,6.0141,6.0109,6.0186,6.0644,6.0683,6.0759,6.8102,6.7447,6.5378,6.3884,6.2946,6.2825,6.3265,6.3992,6.4,6.2999,6.1363,6.0936,6.0019,5.8758,5.8803,5.93,6.0064,5.98,5.9872,6.0295,5.9933,5.9849,6.0,5.9985,6.0521,6.1479,6.1018,6.0358,5.9473,5.8209,5.6709,5.5054,5.4549,5.3203,5.101,4.9736,4.9851,5.1202,5.0418,5.022,5.0695,4.9581,4.8724,4.821,4.6634,4.5146,4.3816,4.3393,4.2581,4.1316,4.1239,4.0816,3.9861,3.9515,3.9242,0.0,0.0,0.0,0.0,0.0,0.0,0.0,0.0,0.0,0.0,0.0,4.1033,4.131,4.2305,4.2931,4.2931,4.2585,4.2389,4.2389,4.3124,4.3624,4.3624,4.4701,4.5432,4.547,4.7005,4.8235,4.8663,5.024,5.1395,5.1356,5.0851,5.1005,5.2274,5.2087,5.1972,5.239,5.2441,5.2579,5.2925,5.3788,5.4375,5.4418,5.4936,5.5419,5.5427,5.6059,5.6855,5.774,5.8567,5.937,6.0224,6.0377,6.0377,6.0377,6.0377,6.0377,6.0377,6.0377,6.0377,6.8584,6.8308,6.5634,6.4602,6.4688,6.4312,6.4501,6.507,6.507,6.4688,6.3969,6.3236,6.2884,6.2846,6.2249,6.2371,6.3021,6.2303,6.1923,6.1885,6.1857,6.1421,6.0748,6.0757,6.0864,6.0935,6.0864,6.0435,5.9627,5.8858,5.7632,5.6104,5.5911,5.5527,5.4806,5.3107,5.2135,5.19,5.1342,5.1051,5.1095,4.9401,4.8377,4.815,4.5636,4.3797,4.2794,4.2063,4.1251,4.0404,4.0442,4.0558,4.0627,4.0012,3.9973,0.0,4.0165,0.0,0.0,0.0,0.0,0.0,0.0,0.0,0.0,4.1546,4.262,4.4162,4.4316,4.4355,4.4436,4.3932,4.3624,4.3739,4.4355,4.4816,4.5009,4.6197,4.712,4.7197,4.7928,4.874,4.9471,5.0399,5.1015,5.1246,5.1851,5.2313,5.2308,5.2659,5.2928,5.3274,5.3356,5.3577,5.4198,5.4549,5.4687,5.4666,5.5071,5.5511,5.5637,5.6308,5.7097,5.7931,5.8758,5.9529,6.0262,6.0377,6.0377,6.0377,6.0377,6.0377,6.0377,6.0377,6.0377,6.9468,6.9122,6.5923,6.5301,6.626,6.4207,6.3319,6.3381,6.3381,6.3266,6.3152,6.2961,6.2884,6.2968,6.353,6.3858,6.398,6.3215,6.286,6.2874,6.1562,6.0869,6.0808,6.0781,6.1172,6.1787,6.1133,6.071,6.0556,5.9704,5.877,5.7818,5.7158,5.6794,5.6613,0.0,0.0,0.0,5.2587,5.2906,5.2837,5.0559,4.9014,4.8233,4.5113,0.0,4.1176,4.091,4.0436,3.9595,4.0211,0.0,0.0,0.0,0.0,0.0,0.0,0.0,0.0,0.0,0.0,0.0,4.2547,4.2431,4.2585,4.2777,4.3239,4.4201,4.4316,4.459,4.5282,4.5893,4.6466,4.7081,4.7278,4.7663,4.8317,4.8125,4.8125,4.8856,4.9668,5.0245,5.0524,5.1784,5.2708,5.2718,5.3472,5.3972,5.3939,5.2977,5.2736,5.3928,5.4203,5.428,5.4472,5.5049,5.5472,5.5489,5.5484,5.5844,5.6464,5.7207,5.7984,5.8702,5.9568,6.0186,6.0377,6.0377,6.0377,6.0377,6.0377,6.0377,6.0377,6.0377,6.0377,6.9706,0.0,6.6474,6.5686,0.0,6.4011,6.3048,6.3019,6.3785,6.4145,6.4114,6.3731,6.3592,6.36,6.3671,6.3706,6.3667,6.3321,6.2958,6.2567,6.1759,6.118,6.0781,6.0781,6.1056,6.1441,6.1047,6.0866,6.0794,5.9584,5.8957,5.896,5.814,5.7958,5.8384,5.7168,5.5272,5.2702,5.3172,5.3207,5.2768,5.1141,4.9625,4.8296,4.5804,0.0,0.0,0.0,0.0,0.0,0.0,0.0,0.0,4.2656,0.0,4.3051,4.3085,4.3278,4.3662,4.3705,4.4085,4.4932,4.5355,4.5201,4.4397,4.5086,4.574,4.6124,4.6547,4.6971,4.7437,4.7894,4.8297,4.8732,4.8779,4.9144,4.992,4.977,4.9847,5.0623,5.1163,5.1588,5.2055,5.3131,5.3903,5.3942,5.4289,5.4598,5.455,5.3812,5.3587,5.4395,5.4895,5.5093,5.517,5.5824,5.6329,5.6357,5.6621,5.7031,5.7412,5.81,5.8706,5.9132,5.9831,6.0377,6.0377,6.0377,6.0377,6.0377,6.0377,6.0377,6.0377,6.0377,6.0377,7.0052,6.9667,6.7173,6.6135,6.6114,6.4159,6.3402,6.3556,0.0,0.0,0.0,6.4484,6.4322,6.4298,6.3659,6.3354,6.3367,6.3278,6.2822,6.2077,6.1959,6.152,6.0888,6.0844,6.085,6.085,6.0894,6.0916,6.0877,5.9531,5.9176,5.9615,5.8877,5.865,5.9012,5.8582,5.6866,5.4044,5.3881,5.3477,5.267,5.1664,5.0326,4.8589,4.6927,4.5208,4.3511,4.343,4.3426,4.3423,4.3423,4.3786,4.4557,4.3936,4.3608,4.3756,4.3944,4.4363,4.5128,4.5338,4.6005,4.7289,4.8141,4.7935,4.6407,4.7394,4.8168,4.834,4.8884,4.9239,4.9412,4.9416,4.9597,4.9911,4.9838,5.0177,5.1169,5.1177,5.1397,5.2264,5.2531,5.2883,5.3609,5.4383,5.486,5.4744,5.4847,5.5019,5.5075,5.4959,5.4708,5.4901,5.5489,5.5974,5.6118,5.6711,5.7235,5.7333,5.7824,5.8308,5.851,5.8939,5.9293,5.9549,6.0072,6.0369,6.0418,6.0398,6.0384,6.0377,6.0377,6.0377,6.0377,6.0377,6.0377,7.1398,7.0514,6.7981,6.7327,6.7766,6.5319,6.4658,6.5197,6.4705,6.4025,6.3382,6.4103,6.4367,6.4374,6.4372,6.4375,6.4369,6.3708,6.3064,6.2292,6.1476,6.1057,6.1075,6.1036,6.1036,6.1075,6.108,6.1085,6.1046,6.0824,6.046,5.9839,5.8992,5.7968,5.6838,5.7277,5.6971,5.5843,5.5769,5.5343,5.4529,5.2947,5.1266,4.9565,4.7893,4.6172,4.4506,4.4429,4.4376,4.4312,4.4351,4.468,4.5449,4.5449,4.5653,4.6335,4.7067,4.7858,4.8634,4.94,4.9718,4.9374,5.0035,5.004,4.8951,4.8394,4.8431,4.9179,4.8951,4.8792,4.9529,4.9718,5.0333,5.1509,5.1118,5.1358,5.2852,5.2465,5.2353,5.3212,5.3931,5.4296,5.4506,5.5229,5.5508,5.5027,5.5575,5.6111,5.6592,5.6265,5.5857,5.5895,5.6518,5.7021,5.7162,5.7799,5.8287,5.8388,5.8519,5.8906,5.9402,5.9603,5.9864,6.0448,6.0529,6.0552,6.0572,6.0459,6.0425,6.0412,6.0418,6.0405,6.0405,6.0391,6.0384,7.1023,7.0157,6.8584,6.7876,6.772,6.6065,6.5548,6.5801,6.5422,6.4706,6.381,6.3756,6.3521,6.3135,6.2754,6.2607,6.2699,6.2349,6.2037,6.1689,6.122,6.1032,6.1113,6.1113,6.1113,6.1079,6.1146,6.1155,6.1116,6.0717,6.0549,6.0609,5.9796,5.8757,5.7653,5.7459,5.7238,5.6911,5.6408,5.5734,5.49,5.3659,5.2179,5.0502,4.9255,4.8047,4.6755,4.7178,4.7407,4.7351,4.739,4.7724,4.8504,4.8152,4.8021,4.84,4.8786,4.8967,4.8865,5.0099,5.1106,5.1695,5.2082,5.2317,5.2314,5.1533,5.1009,5.1013,5.1403,5.1763,5.1803,5.1726,5.2245,5.3526,5.2481,5.2425,5.3857,5.3519,5.3381,5.4191,5.4705,5.4912,5.4911,5.5653,5.6352,5.6317,5.7055,5.7751,5.8143,5.791,5.7578,5.7499,5.7766,5.7959,5.8041,5.869,5.9193,5.9232,5.9657,6.0035,6.0427,6.0413,6.0562,6.0815,6.0795,6.071,6.0701,6.0673,6.0623,6.061,6.061,6.0585,6.052,6.0432,6.0384,7.0825,7.0067,6.9019,6.8072,6.7181,6.6432,6.608,6.6025,6.6047,6.5516,6.4475,6.366,6.2968,6.2398,6.1613,6.1346,6.1412,6.1421,6.1357,6.1182,6.1121,6.1164,6.1177,6.1143,6.1182,6.1186,6.1217,6.1229,6.116,6.0616,6.0554,6.0903,6.0162,5.9386,5.8727,5.7873,5.7461,5.7455,5.665,5.5821,5.4929,5.4266,5.3176,5.178,5.0843,5.0067,4.944,4.9631,4.9979,5.0325,5.0173,5.0396,5.0953,5.0569,5.0203,5.0054,5.036,5.0363,4.9976,5.0867,5.2109,5.3414,5.372,5.4107,5.4611,5.4382,5.3751,5.3112,5.3693,5.4122,5.3797,5.3565,5.3936,5.4703,5.3595,5.3317,5.4654,5.4394,5.4258,5.4959,5.5278,5.5488,5.5756,5.6273,5.7005,5.786,5.8574,5.9005,5.9239,5.9276,5.9238,5.9262,5.9091,5.8991,5.9014,5.9677,6.0134,6.0179,6.0683,6.0993,6.1087,6.1077,6.1084,6.1075,6.0953,6.0876,6.0839,6.0806,6.0793,6.0763,6.0752,6.074,6.0648,6.0526,6.0457,7.1844,7.0966,6.9341,6.7761,6.6379,6.6172,6.6139,6.617,6.6123,6.5615,6.483,6.3946,6.353,6.3357,6.2658,6.2276,6.2289,6.2366,6.1981,6.1376,6.1244,6.1248,6.1344,6.1391,6.1355,6.1387,6.1391,6.1387,6.1348,6.1281,6.09,6.0205,5.935,5.8919,5.8725,5.7991,5.7609,5.7573,5.6715,5.5854,5.5039,5.4922,5.4443,5.3482,5.2625,5.2104,5.1847,5.0561,5.0522,5.1841,5.1379,5.1033,5.1185,5.1724,5.1707,5.1051,5.2287,5.346,5.411,5.3687,5.3455,5.3705,5.4453,5.4919,5.5032,5.5615,5.5627,5.4809,5.4089,5.4199,5.4709,5.4181,5.4173,5.5,5.4269,5.4059,5.492,5.5013,5.5015,5.5056,5.5875,5.6541,5.7215,5.757,5.7994,5.8784,5.9137,5.9525,6.0029,6.0183,6.0413,6.0806,6.0643,6.0171,6.0199,6.0799,6.1103,6.1262,6.1373,6.1421,6.1373,6.1352,6.1341,6.1229,6.1164,6.1082,6.0993,6.091,6.0834,6.0878,6.0844,6.0787,6.0757,6.066,6.0584,7.102,6.9837,6.9101,6.7895,6.6472,6.6342,6.6377,6.6435,6.6368,6.6183,6.5825,6.4997,6.4008,6.2951,6.2637,6.2287,6.1869,6.1834,6.1694,6.1412,6.1344,6.1348,6.1412,6.1416,6.1416,6.1416,6.1416,6.1416,6.1416,6.1416,6.095,6.0176,5.971,5.9555,5.9516,5.8739,5.8311,5.8311,5.7499,5.6644,5.5825,5.5278,5.4844,5.4446,5.3631,5.3159,5.3071,5.245,5.2411,5.3071,5.2854,5.2905,5.3372,5.374,5.3823,5.3458,5.3572,5.4062,5.4964,5.4694,5.4721,5.5238,5.563,5.5823,5.5823,5.6173,5.6203,5.5833,5.5444,5.5269,5.5097,5.475,5.4942,5.5576,5.5102,5.4907,5.5779,5.5889,5.6045,5.6617,5.701,5.7526,5.8401,5.8993,5.9422,5.9853,6.0202,6.0706,6.1057,6.1137,6.1252,6.1487,6.133,6.1114,6.1041,6.1257,6.1481,6.1505,6.1497,6.1481,6.1465,6.1459,6.1454,6.14,6.1353,6.132,6.131,6.1177,6.1107,6.1065,6.092,6.0845,6.0845,6.0793,6.0691,7.042,6.9351,6.885,6.7837,6.657,6.657,6.6562,6.6639,6.6555,6.6604,6.6531,6.5706,6.4453,6.3058,6.2715,6.2139,6.1451,6.1416,6.1416,6.1416,6.1416,6.1416,6.1416,6.1416,6.1416,6.1416,6.1416,6.1416,6.1416,6.1416,6.1066,6.0487,6.0218,6.0215,6.0332,5.9396,5.8933,5.905,5.8354,5.7502,5.6693,5.6012,5.562,5.5323,5.4514,5.4056,5.4056,5.3832,5.3835,5.4071,5.4141,5.4432,5.498,5.5283,5.5458,5.538,5.4643,5.4463,5.5081,5.5122,5.5406,5.5973,5.6249,5.6405,5.6405,5.6405,5.6405,5.636,5.6383,5.6053,5.5608,5.5489,5.5786,5.6338,5.5981,5.6134,5.6727,5.6948,5.7419,5.8025,5.8103,5.8496,5.9372,6.0156,6.0741,6.0819,6.1249,6.1719,6.1719,6.1677,6.1677,6.1719,6.1679,6.1624,6.158,6.1536,6.1526,6.1511,6.155,6.1504,6.1495,6.1488,6.1488,6.145,6.1502,6.1492,6.1448,6.1379,6.1327,6.1294,6.1143,6.0993,6.1046,6.092,6.0817,7.0472,7.0161,6.8683,6.7512,6.6702,6.6702,6.6704,6.6673,6.6702,6.6704,6.6595,6.5762,6.487,6.3923,6.3105,6.2298,6.1472,6.1394,6.1437,6.1476,6.1469,6.1419,6.1416,6.1416,6.1423,6.1444,6.1408,6.1401,6.1394,6.1426,6.1377,6.1306,6.0582,6.0575,6.097,5.973,5.9251,5.9811,5.9193,5.8377,5.7627,5.7484,5.6967,5.6245,5.5393,5.495,5.4872,5.423,5.4207,5.5024,5.5034,5.5098,5.518,5.5874,5.628,5.6204,5.5583,5.5159,5.524,5.5282,5.5322,5.5439,5.6029,5.641,5.6419,5.6499,5.6536,5.6447,5.6641,5.6603,5.6494,5.6419,5.643,5.6604,5.723,5.7628,5.7799,5.8337,5.8923,5.9039,5.9109,5.9495,6.0277,6.1094,6.1486,6.1564,6.168,6.1719,6.1719,6.1719,6.1719,6.1719,6.1719,6.1718,6.1675,6.1663,6.1655,6.1644,6.159,6.1584,6.1515,6.149,6.1495,6.1497,6.1545,6.1536,6.1505,6.1479,6.1454,6.1415,6.1342,6.126,6.1224,6.106,6.0967,6.9874,6.8823,6.7654,6.6993,6.672,6.672,6.6697,6.6759,6.6693,6.6738,6.6604,6.5842,6.4933,6.4043,6.3211,6.2372,6.1566,6.1522,6.1836,6.2306,6.2345,6.2345,6.2345,6.2345,6.2031,6.16,6.1525,6.1525,6.1525,6.1525,6.1525,6.1522,6.1252,6.1252,6.1366,6.094,6.0511,6.0202,5.989,5.9349,5.8535,5.7968,5.7496,5.7165,5.6349,5.5885,5.5885,5.5582,5.5625,5.5937,5.5963,5.6015,5.6017,5.6308,5.6473,5.6436,5.6202,5.6054,5.6107,5.6108,5.6114,5.6122,5.6357,5.6562,5.663,5.7021,5.7373,5.7461,5.793,5.8198,5.8086,5.7724,5.7344,5.7494,5.8157,5.8703,5.8744,5.8976,5.9324,5.987,6.0375,6.092,6.1113,6.15,6.1692,6.1691,6.1725,6.172,6.1719,6.1719,6.1719,6.1719,6.1719,6.1719,6.1719,6.1718,6.1714,6.1671,6.1664,6.1661,6.1646,6.16,6.1604,6.1598,6.1598,6.1595,6.1617,6.1554,6.1536,6.1437,6.1411,6.1389,6.1362,6.1232,6.1161,6.9158,6.7674,6.7013,6.6739,6.6778,6.6778,6.6791,6.6845,6.6788,6.6791,6.6652,6.592,6.5014,6.4178,6.3575,6.2874,6.2069,6.2044,6.2457,6.3239,6.3278,6.3161,6.2966,6.3161,6.2691,6.1751,6.1597,6.1597,6.1597,6.1597,6.1597,6.1595,6.1597,6.1597,6.1597,6.1597,6.1285,6.0817,6.0739,6.0313,5.9461,5.8846,5.8267,5.7726,5.7147,5.671,5.6455,5.6418,5.646,5.6424,5.6518,5.653,5.6537,5.6543,5.6546,5.6546,5.6547,5.6707,5.6987,5.7027,5.7146,5.7422,5.7461,5.7461,5.7461,5.7969,5.8281,5.8476,5.8789,5.9219,5.918,5.8867,5.8594,5.8515,5.9101,5.9569,5.9608,5.9801,6.0228,6.0733,6.124,6.1591,6.1709,6.1705,6.1702,6.1702,6.1693,6.1726,6.1725,6.172,6.1719,6.1719,6.1719,6.1719,6.1719,6.1719,6.1719,6.1676,6.1675,6.1716,6.1719,6.1719,6.1719,6.1719,6.1719,6.1719,6.171,6.1651,6.1578,6.1488,6.15,6.1484,6.1442,6.1386,6.1324,6.8387,6.7059,6.6903,6.6863,6.6902,6.6863,6.6903,6.6903,6.6902,6.6863,6.6787,6.5972,6.5152,6.4489,6.4217,6.3789,6.3239,6.3013,6.3413,6.4076,6.4114,6.3761,6.3215,6.3725,6.314,6.1691,6.1643,6.1643,6.1612,6.1613,6.1612,6.1605,6.1612,6.1618,6.1602,6.1613,6.1607,6.1495,6.1459,6.1109,6.0415,6.0205,5.9475,5.8155,5.7927,5.7532,5.6671,5.6563,5.6492,5.6493,5.6546,5.6597,5.6601,5.668,5.668,5.6719,5.668,5.7109,5.7773,5.789,5.8242,5.875,5.9062,5.8906,5.8867,5.9062,5.9219,5.9219,5.9336,5.9375,5.9531,5.9922,6.0,5.9453,5.9922,6.039,6.0547,6.1132,6.1676,6.1634,6.1672,6.1709,6.1709,6.1709,6.1709,6.1708,6.1703,6.1697,6.1697,6.1691,6.1722,6.172,6.1721,6.1723,6.1721,6.1719,6.1719,6.1718,6.1718,6.1719,6.1719,6.1719,6.1719,6.1719,6.1719,6.1719,6.1719,6.1664,6.1667,6.1641,6.1623,6.1597,6.1529,6.1489,6.1436,6.7382,6.6913,6.6913,6.6913,6.6913,6.6913,6.6913,6.6914,6.6914,6.6914,6.6718,6.5976,6.5429,6.5117,6.4609,6.4492,6.4765,6.4761,6.4883,6.5078,6.5117,6.5,6.4726,6.4375,6.3351,6.2023,6.2296,6.2226,6.1758,6.168,6.1671,6.1671,6.168,6.1671,6.168,6.1671,6.1672,6.1671,6.1671,6.1516,6.1206,6.0703,6.0117,5.9608,5.9101,5.8632,5.8316,5.7222,5.6598,5.6601,5.66,5.6601,5.6719,5.7187,5.75,5.7539,5.8086,5.8476,5.8711,5.8789,5.8906,5.918,5.9219,5.9219,5.9297,5.9726,6.0,6.0117,6.0547,6.0937,6.0976,6.1133,6.0898,6.0117,6.0781,6.125,6.125,6.1523,6.1679,6.1718,6.1718,6.1718,6.1717,6.1717,6.1715,6.1714,6.171,6.1706,6.1705,6.1703,6.1699,6.1695,6.1694,6.1689,6.1725,6.1721,6.1719,6.1719,6.1719,6.1719,6.1719,6.1719,6.1719,6.1719,6.1719,6.1719,6.1719,6.1719,6.1719,6.1719,6.166,6.1648,6.1639,6.161,6.152,6.7187,6.6914,6.6914,6.6914,6.6914,6.6914,6.6914,6.6914,6.6914,6.6914,6.6758,6.6328,6.5898,6.5625,6.5351,6.539,6.5664,6.5898,6.5898,6.5742,6.5976,6.5937,6.5547,6.4687,6.3594,6.25,6.2734,6.2539,6.1758,6.1719,6.1719,6.1719,6.1719,6.1719,6.1719,6.1719,6.1719,6.1719,6.1719,6.1719,6.1601,6.1172,6.0703,6.039,5.9883,5.9492,5.918,5.8086,5.7578,5.7578,5.7578,5.7578,5.7617,5.8086,5.8398,5.8476,5.8867,5.9297,5.957,5.9648,5.9805,6.0039,6.0117,6.0156,6.0234,6.0664,6.0859,6.0976,6.1328,6.1719,6.168,6.1719,6.1445,6.0976,6.1328,6.168,6.1719,6.1719,6.1719,6.1719,6.1719,6.1719,6.1719,6.1718,6.1718,6.1717,6.1715,6.1712,6.1712,6.171,6.1707,6.1703,6.1699,6.1695,6.1689,6.1723,6.1719,6.1719,6.1719,6.1719,6.1719,6.1719,6.1719,6.1719,6.1719,6.1719,6.1719,6.1719,6.1719,6.1719,6.1719,6.1711,6.166,6.1685,6.1615,6.7851,6.707,6.6992,6.7031,6.7031,6.6953,6.6914,6.6914,6.6914,6.6914,6.6875,6.6797,6.6406,6.6015,6.6367,6.6328,6.5898,6.625,6.6211,6.5898,6.6094,6.5976,6.5117,6.4531,6.3711,6.2851,6.289,6.25,6.1758,6.1719,6.1719,6.1719,6.1719,6.1719,6.1719,6.1719,6.1719,6.1719,6.1719,6.1719,6.1719,6.168,6.1328,6.0586,6.0508,6.0195,5.9648,5.9414,5.9258,5.918,5.8984,5.8945,5.9101,5.9219,5.9258,5.9258,5.9297,5.9844,6.0312,6.0469,6.0742,6.1328,6.1445,6.1719,6.1484,6.1445,6.1523,6.1562,6.164,6.1719,6.1719,6.1719,6.164,6.168,6.168,6.1719,6.1719,6.1719,6.1719,6.1719,6.1719,6.1719,6.1719,6.1719,6.1719,6.1719,6.1718,6.1717,6.1716,6.1715,6.1711,6.1709,6.1707,6.1701,6.1696,6.1691,6.1725,6.1719,6.1719,6.1719,6.1719,6.1719,6.1719,6.1719,6.1719,6.1719,6.1719,6.1719,6.1719,6.1719,6.1719,6.1719,6.1713,6.17,6.1693,6.957,6.8789,6.8125,6.7851,6.7734,6.7187,6.6914,6.6914,6.6914,6.6914,6.6914,6.6914,6.6758,6.6601,6.6758,6.6758,6.6523,6.6172,6.5898,6.5547,6.5117,6.4531,6.3984,6.414,6.3515,6.2344,6.2695,6.2578,6.1758,6.1719,6.1719,6.1719,6.1719,6.1719,6.1719,6.1719,6.1719,6.1719,6.1719,6.1719,6.1719,6.1719,6.1601,6.1406,6.1328,6.1211,6.1055,6.1055,6.039,5.9297,5.9219,5.9219,5.9336,5.9805,6.0117,6.0156,6.0664,6.1055,6.125,6.1328,6.1484,6.164,6.1719,6.1719,6.1719,6.1719,6.1719,6.1719,6.1719,6.1719,6.1719,6.1719,6.1719,6.1719,6.1719,6.1719,6.1719,6.1719,6.1719,6.1719,6.1719,6.1719,6.1719,6.1719,6.1719,6.1719,6.1719,6.1719,6.1719,6.1718,6.1717,6.1716,6.1714,6.1708,6.1702,6.1697,6.1691,6.1721,6.1719,6.1719,6.1719,6.1719,6.1719,6.1719,6.1719,6.1719,6.1719,6.1719,6.1719,6.1719,6.1719,6.1719,6.1719,6.1711,6.171,6.9883,6.9414,6.8906,6.8515,6.8164,6.7656,6.7226,6.6953,6.6914,6.6914,6.6914,6.6914,6.6914,6.6914,6.6914,6.6914,6.6797,6.6367,6.5976,6.5469,6.4765,6.3906,6.3398,6.3867,6.3398,6.1953,6.2578,6.2461,6.1836,6.1719,6.1719,6.1719,6.1719,6.1719,6.1719,6.1719,6.1719,6.1719,6.1719,6.1719,6.1719,6.1719,6.1719,6.168,6.1719,6.1719,6.168,6.168,6.1211,6.0469,6.0273,6.0234,6.0273,6.0664,6.0976,6.0976,6.1445,6.168,6.1719,6.1719,6.1719,6.1719,6.1719,6.1719,6.1719,6.1719,6.1719,6.1719,6.1719,6.1719,6.1719,6.1719,6.1719,6.1719,6.1719,6.1719,6.1719,6.1719,6.1719,6.1719,6.1719,6.1719,6.1719,6.1719,6.1719,6.1719,6.1719,6.1719,6.1719,6.1719,6.1719,6.1719,6.1719,6.1714,6.171,6.1706,6.17,6.1692,6.1721,6.1721,6.172,6.172,6.1719,6.1719,6.1719,6.1719,6.1719,6.1719,6.1719,6.1719,6.1719,6.1719,6.1719,6.1719,6.1719,6.9805,6.9648,6.9492,6.8984,6.8359,6.8125,6.75,6.6992,6.6914,6.6914,6.6914,6.6914,6.6914,6.6914,6.6914,6.6914,6.6875,6.6601,6.6055,6.539,6.4609,6.3906,6.3476,6.3945,6.3398,6.2305,6.2734,6.2617,6.2226,6.2031,6.1953,6.1992,6.1953,6.1758,6.1758,6.1719,6.1719,6.1719,6.1719,6.1719,6.1719,6.1719,6.1719,6.1719,6.1719,6.1719,6.1719,6.1719,6.1601,6.168,6.1719,6.1562,6.1601,6.168,6.164,6.1601,6.164,6.1719,6.1719,6.1719,6.1719,6.1719,6.1719,6.1719,6.1719,6.1719,6.1719,6.1719,6.1719,6.1719,6.1719,6.1719,6.1719,6.1719,6.1719,6.1719,6.1719,6.1719,6.1719,6.1719,6.1719,6.1719,6.1719,6.1719,6.1719,6.1719,6.1719,6.1719,6.1719,6.1719,6.1719,6.1719,6.1719,6.1717,6.1715,6.1713,6.1708,6.1701,6.1691,6.1726,6.1725,6.1722,6.172,6.1719,6.1719,6.1719,6.1719,6.1719,6.1719,6.1719,6.1719,6.1719,6.1719,6.1719,6.1719,7.207,7.1328,6.9961,6.9297,6.8945,6.7773,6.707,6.6914,6.6914,6.6914,6.6914,6.6914,6.6914,6.6914,6.6914,6.6914,6.6797,6.6289,6.539,6.4609,6.4453,6.4219,6.4062,6.4375,6.375,6.3086,6.3594,6.3515,6.3008,6.3203,6.3359,6.2773,6.2578,6.2383,6.1836,6.1758,6.1719,6.1719,6.1719,6.1719,6.1719,6.1719,6.1719,6.1719,6.1719,6.1719,6.1719,6.1719,6.1719,6.1719,6.1719,6.1719,6.1719,6.1719,6.1719,6.1719,6.1719,6.1719,6.1719,6.1719,6.1719,6.1719,6.1719,6.1719,6.1719,6.1719,6.1719,6.1719,6.1719,6.1719,6.1719,6.1719,6.1719,6.1719,6.1719,6.1719,6.1719,6.1719,6.1719,6.1719,6.1719,6.1719,6.1719,6.1719,6.1719,6.1719,6.1719,6.1719,6.1719,6.1719,6.1719,6.1719,6.1719,6.1719,6.1717,6.1716,6.1713,6.1708,6.17,6.1694,6.1693,6.1726,6.1723,6.172,6.1719,6.1719,6.1719,6.1719,6.1719,6.1719,6.1719,6.1719,6.1719,6.1719,6.1719,7.2422,7.1875,7.0547,6.9805,6.9258,6.8086,6.7265,6.6953,6.6914,6.6914,6.6914,6.6914,6.6914,6.6914,6.6914,6.6914,6.6797,6.6445,6.6015,6.5625,6.5547,6.5547,6.5508,6.539,6.4922,6.3906,6.4023,6.3984,6.3867,6.4023,6.3984,6.3594,6.3242,6.2773,6.2265,6.1914,6.1719,6.1719,6.1719,6.1719,6.1719,6.1719,6.1719,6.1719,6.1719,6.1719,6.1719,6.1719,6.1719,6.1719,6.1719,6.1719,6.1719,6.1719,6.1719,6.1719,6.1719,6.1719,6.1719,6.1719,6.1719,6.1719,6.1719,6.1719,6.1719,6.1719,6.1719,6.1719,6.1719,6.1719,6.1719,6.1719,6.1719,6.1719,6.1719,6.1719,6.1719,6.1719,6.1719,6.1719,6.1719,6.1719,6.1719,6.1719,6.1719,6.1719,6.1719,6.1719,6.1719,6.1719,6.1719,6.1719,6.1719,6.1719,6.1719,6.1717,6.1716,6.1713,6.1709,6.1705,6.1703,6.1696,6.1727,6.1723,6.172,6.1719,6.1719,6.1719,6.1719,6.1719,6.1719,6.1719,6.1719,6.1719,6.1719,7.1953,7.1719,7.0859,7.0039,6.9219,6.832,6.75,6.6953,6.6914,6.6914,6.6914,6.6914,6.6914,6.6914,6.6914,6.6914,6.6875,6.6875,6.664,6.664,6.6601,6.6601,6.664,6.6484,6.6055,6.4805,6.4883,6.4765,6.4609,6.4609,6.4844,6.4453,6.3867,6.3359,6.293,6.2344,6.1875,6.1758,6.1719,6.1719,6.1719,6.1719,6.1719,6.1719,6.1719,6.1719,6.1719,6.1719,6.1719,6.1719,6.1719,6.1719,6.1719,6.1719,6.1719,6.1719,6.1719,6.1719,6.1719,6.1719,6.1719,6.1719,6.1719,6.1719,6.1719,6.1719,6.1719,6.1719,6.1719,6.1719,6.1719,6.1719,6.1719,6.1719,6.1719,6.1719,6.1719,6.1719,6.1719,6.1719,6.1719,6.1719,6.1719,6.1719,6.1719,6.1719,6.1719,6.1719,6.1719,6.1719,6.1719,6.1719,6.1719,6.1719,6.1719,6.1719,6.1719,6.1716,6.1714,6.1712,6.171,6.1705,6.1697,6.1727,6.1722,6.1721,6.1719,6.1719,6.1719,6.1719,6.1719,6.1719,6.1719,6.1719,6.1719,7.1562,7.082,6.9961,6.914,6.8359,6.75,6.707,6.6914,6.6914,6.6914,6.6914,6.6914,6.6914,6.6914,6.6914,6.6914,6.6914,6.6914,6.6914,6.6914,6.6914,6.6914,6.6914,6.6875,6.664,6.6601,6.6328,6.5937,6.5703,6.6055,6.5859,6.5469,6.5117,6.4492,6.3437,6.2812,6.2344,6.1914,6.1758,6.1719,6.1719,6.1719,6.1719,6.1719,6.1719,6.1719,6.1719,6.1719,6.1719,6.1719,6.1719,6.1719,6.1719,6.1719,6.1719,6.1719,6.1719,6.1719,6.1719,6.1719,6.1719,6.1719,6.1719,6.1719,6.1719,6.1719,6.1719,6.1719,6.1719,6.1719,6.1719,6.1719,6.1719,6.1719,6.1719,6.1719,6.1719,6.1719,6.1719,6.1719,6.1719,6.1719,6.1719,6.1719,6.1719,6.1719,6.1719,6.1719,6.1719,6.1719,6.1719,6.1719,6.1719,6.1719,6.1719,6.1719,6.1719,6.1719,6.1717,6.1716,6.1715,6.1711,6.1705,6.17,6.1691,6.1722,6.1721,6.172,6.1719,6.1719,6.1719,6.1719,6.1719,6.1719,6.1719,7.1758,7.125,6.9961,6.918,6.8633,6.7422,6.6914,6.6914,6.6914,6.6914,6.6914,6.6914,6.6914,6.6914,6.6914,6.6914,6.6914,6.6914,6.6914,6.6914,6.6914,6.6914,6.6914,6.6914,6.6914,6.6875,6.6836,6.6719,6.6328,6.664,6.664,6.6289,6.5898,6.5156,6.4297,6.3398,6.289,6.2383,6.1992,6.1758,6.1719,6.1719,6.1719,6.1719,6.1719,6.1719,6.1719,6.1719,6.1719,6.1719,6.1719,6.1719,6.1719,6.1719,6.1719,6.1719,6.1719,6.1719,6.1719,6.1719,6.1719,6.1719,6.1719,6.1719,6.1719,6.1719,6.1719,6.1719,6.1719,6.1719,6.1719,6.1719,6.1719,6.1719,6.1719,6.1719,6.1719,6.1719,6.1719,6.1719,6.1719,6.1719,6.1719,6.1719,6.1719,6.1719,6.1719,6.1719,6.1719,6.1719,6.1719,6.1719,6.1719,6.1719,6.1719,6.1719,6.1719,6.1719,6.1719,6.1719,6.1717,6.1715,6.1714,6.1711,6.1704,6.1693,6.1727,6.1727,6.1722,6.1719,6.172,6.172,6.1719,6.1719,6.1719,7.1797,7.1367,7.0,6.9219,6.8711,6.75,6.6914,6.6914,6.6914,6.6914,6.6914,6.6914,6.6914,6.6914,6.6914,6.6914,6.6914,6.6914,6.6914,6.6914,6.6914,6.6914,6.6914,6.6914,6.6914,6.6914,6.6914,6.6914,6.6797,6.6875,6.6875,6.668,6.6133,6.5742,6.5234,6.4297,6.3594,6.3047,6.2656,6.2226,6.1992,6.1797,6.1719,6.1719,6.1719,6.1719,6.1719,6.1719,6.1719,6.1719,6.1719,6.1719,6.1719,6.1719,6.1719,6.1719,6.1719,6.1719,6.1719,6.1719,6.1719,6.1719,6.1719,6.1719,6.1719,6.1719,6.1719,6.1719,6.1719,6.1719,6.1719,6.1719,6.1719,6.1719,6.1719,6.1719,6.1719,6.1719,6.1719,6.1719,6.1719,6.1719,6.1719,6.1719,6.1719,6.1719,6.1719,6.1719,6.1719,6.1719,6.1719,6.1719,6.1719,6.1719,6.1719,6.1719,6.1719,6.1719,6.1719,6.1719,6.1719,6.1718,6.1719,6.1719,6.1712,6.1705,6.17,6.1695,6.1693,6.1691,6.1725,6.1721,6.172,6.1719,6.1719,7.1094,6.9726,6.957,6.8633,6.7344,6.7031,6.6914,6.6914,6.6914,6.6914,6.6914,6.6914,6.6914,6.6914,6.6914,6.6914,6.6914,6.6914,6.6914,6.6914,6.6914,6.6914,6.6914,6.6914,6.6914,6.6914,6.6914,6.6914,6.6914,6.6914,6.6914,6.6797,6.6719,6.6406,6.5742,6.5195,6.4922,6.4258,6.3984,6.3555,6.2812,6.2109,6.1836,6.1719,6.1719,6.1719,6.1719,6.1719,6.1719,6.1719,6.1719,6.1719,6.1719,6.1719,6.1719,6.1719,6.1719,6.1719,6.1719,6.1719,6.1719,6.1719,6.1719,6.1719,6.1719,6.1719,6.1719,6.1719,6.1719,6.1719,6.1719,6.1719,6.1719,6.1719,6.1719,6.1719,6.1719,6.1719,6.1719,6.1718,6.1717,6.1718,6.1719,6.1719,6.1719,6.1719,6.1719,6.1719,6.1719,6.1719,6.1719,6.1719,6.1719,6.1719,6.1719,6.1719,6.1719,6.1719,6.1719,6.1719,6.1719,6.1719,6.1719,6.1719,6.1719,6.1719,6.171,6.1707,6.1704,6.17,6.1696,6.1689,6.172,6.172,6.1721,7.0117,6.9414,6.9453,6.8789,6.7656,6.7148,6.6914,6.6914,6.6914,6.6914,6.6914,6.6914,6.6914,6.6914,6.6914,6.6914,6.6914,6.6914,6.6914,6.6914,6.6914,6.6914,6.6914,6.6914,6.6914,6.6914,6.6914,6.6914,6.6914,6.6914,6.6914,6.6914,6.6875,6.6758,6.6211,6.582,6.543,6.4961,6.4531,6.3867,6.3125,6.2617,6.2187,6.1758,6.1719,6.1719,6.1719,6.1719,6.1719,6.1719,6.1719,6.1719,6.1719,6.1719,6.1719,6.1719,6.1719,6.1719,6.1719,6.1719,6.1719,6.1719,6.1719,6.1719,6.1719,6.1719,6.1719,6.1719,6.1719,6.1719,6.1719,6.1719,6.1719,6.1719,6.1719,6.1719,6.1719,6.1719,6.1717,6.1716,6.1715,6.1715,6.1715,6.1719,6.1719,6.1719,6.1719,6.1719,6.1719,6.1719,6.1719,6.1719,6.1719,6.1719,6.1719,6.1719,6.1719,6.1719,6.1719,6.1719,6.1719,6.1719,6.1719,6.1719,6.1719,6.1719,6.1719,6.1713,6.1709,6.1707,6.1705,6.1699,6.1693,6.1691,6.1691,6.9219,6.8789,6.9062,6.8672,6.7851,6.7148,6.6914,6.6914,6.6914,6.6914,6.6914,6.6914,6.6914,6.6914,6.6914,6.6914,6.6914,6.6914,6.6914,6.6914,6.6914,6.6914,6.6914,6.6914,6.6914,6.6914,6.6914,6.6914,6.6914,6.6875,6.6875,6.6914,6.6914,6.6875,6.6719,6.6367,6.5976,6.5898,6.5117,6.4414,6.3789,6.3203,6.2656,6.2187,6.1836,6.1719,6.1719,6.1719,6.1719,6.1719,6.1719,6.1719,6.1719,6.1719,6.1719,6.1719,6.1719,6.1719,6.1719,6.1719,6.1719,6.1719,6.1719,6.1719,6.1719,6.1719,6.1719,6.1719,6.1719,6.1719,6.1719,6.1719,6.1719,6.1719,6.1719,6.1719,6.1718,6.1717,6.1715,6.1711,6.1708,6.1705,6.1705,6.1704,6.1719,6.1719,6.1719,6.1715,6.1717,6.1718,6.1719,6.1719,6.1719,6.1719,6.1719,6.1719,6.1719,6.1719,6.1719,6.1719,6.1719,6.1719,6.1719,6.1719,6.1719,6.1719,6.1719,6.1719,6.1713,6.1712,6.1711,6.1708,6.1705,6.1702,6.17,6.8476,6.7148,6.7969,6.7812,6.7031,6.6914,6.6914,6.6914,6.6914,6.6914,6.6875,6.6875,6.6875,6.6875,6.6875,6.6875,6.6914,6.6914,6.6875,6.6875,6.6914,6.6914,6.6875,6.6875,6.6874,6.6911,6.6871,6.6869,6.6866,6.6823,6.687,6.6914,6.6875,6.6875,6.6836,6.668,6.6601,6.6445,6.5859,6.543,6.4805,6.4023,6.3086,6.2734,6.2148,6.1719,6.1719,6.1719,6.1719,6.1719,6.1719,6.1719,6.1719,6.1719,6.1719,6.1719,6.1719,6.1719,6.1719,6.1719,6.1719,6.1719,6.1719,6.1719,6.1719,6.1719,6.1719,6.1719,6.1719,6.1719,6.1719,6.1719,6.1719,6.1719,6.1719,6.1719,6.1717,6.1716,6.1712,6.1704,6.1698,6.1696,6.1693,6.1693,6.1696,6.1701,6.1707,6.1711,6.1717,6.1718,6.1718,6.1719,6.1719,6.1719,6.1719,6.1719,6.1719,6.1719,6.1719,6.1719,6.1719,6.1719,6.1719,6.1719,6.1719,6.1719,6.1719,6.1719,6.1718,6.1717,6.1715,6.1714,6.171,6.1707,6.1707,6.75,6.6953,6.7265,6.7226,6.6914,6.6914,6.6914,6.6914,6.6914,6.6874,6.6831,6.6825,6.6821,6.686,6.686,6.6821,6.686,6.6836,6.6861,6.686,6.6836,6.686,6.686,6.6861,6.6857,6.6856,6.6816,6.6815,6.6809,6.6803,6.6809,6.6819,6.686,6.6836,6.6836,6.6863,6.6823,6.6786,6.6476,6.6166,6.5458,6.5037,6.4061,6.2916,6.2811,6.2184,6.1836,6.1719,6.1719,6.1715,6.1715,6.1717,6.1718,6.1718,6.1718,6.1719,6.1719,6.1719,6.1719,6.1719,6.1719,6.1719,6.1719,6.1719,6.1719,6.1719,6.1719,6.1719,6.1719,6.1719,6.1719,6.1719,6.1719,6.1719,6.1718,6.1718,6.1716,6.1713,6.1708,6.1698,6.1691,6.1725,6.1722,6.172,6.1725,6.1691,6.1699,6.1707,6.1714,6.1717,6.1718,6.1718,6.1718,6.1718,6.1718,6.1717,6.1715,6.1716,6.1717,6.1717,6.1718,6.1719,6.1719,6.1719,6.1717,6.1719,6.1719,6.1719,6.1718,6.1718,6.1718,6.1718,6.1716,6.1712,6.1712,6.6874,6.6874,6.6872,6.6874,6.6914,6.6874,6.6874,6.6874,6.6875,6.6868,6.6817,6.6803,6.6796,6.6796,6.6798,6.6799,6.6801,6.6801,6.6799,6.68,6.6801,6.6796,6.6796,6.6798,6.68,6.6791,6.679,6.679,6.6822,6.6778,6.6777,6.6774,6.6772,6.6777,6.6799,6.6796,6.6796,6.6801,6.673,6.6579,6.5946,6.5532,6.515,6.3723,6.3309,6.2726,6.2176,6.1944,6.171,6.171,6.171,6.1712,6.1714,6.1715,6.1716,6.1717,6.1718,6.1718,6.1718,6.1719,6.1719,6.1719,6.1719,6.1719,6.1719,6.1719,6.1719,6.1719,6.1719,6.1719,6.1719,6.1719,6.1719,6.1718,6.1718,6.1717,6.1711,6.1706,6.17,6.1692,6.1725,6.172,6.172,6.1719,6.172,6.1726,6.1696,6.1704,6.1711,6.1716,6.1718,6.1718,6.1718,6.1717,6.1715,6.1716,6.1717,6.1718,6.1718,6.1717,6.1716,6.1712,6.1711,6.1716,6.1717,6.1715,6.1716,6.1717,6.1718,6.1719,6.1719,6.1718,6.1718,6.1717,6.1716,6.6787,6.6824,6.6809,6.6861,6.6874,6.683,6.6826,6.6824,6.681,6.6799,6.6796,6.6791,6.6788,6.6788,6.6781,6.6781,6.6781,6.6786,6.6786,6.6783,6.6778,6.6788,6.6788,6.6783,6.6772,6.6813,6.6805,6.6794,6.6785,6.6734,6.6724,6.6716,6.6716,6.673,6.679,6.6795,6.6795,6.6795,6.6794,6.6714,6.6476,6.5978,6.5517,6.4846,6.3996,6.3376,6.2671,6.2207,6.1936,6.1741,6.1705,6.1707,6.1709,6.1709,6.171,6.1711,6.1711,6.171,6.171,6.1717,6.1719,6.1719,6.1719,6.1719,6.1719,6.1719,6.1719,6.1719,6.1719,6.1719,6.1719,6.1719,6.1719,6.1717,6.1716,6.1713,6.1706,6.1698,6.1691,6.1727,6.1722,6.1719,6.1719,6.1719,6.1719,6.1723,6.1692,6.1701,6.1709,6.1711,6.1715,6.1715,6.1715,6.1713,6.1711,6.1717,6.1718,6.1718,6.1718,6.1714,6.1714,6.1712,6.1713,6.1716,6.1714,6.171,6.1713,6.1717,6.1718,6.1719,6.1719,6.1719,6.1719,6.1719,6.1718,6.6808,6.6807,6.68,6.6806,6.6817,6.6811,6.6808,6.6803,6.682,6.6803,6.6796,6.6777,6.6722,6.6722,6.6728,6.6767,6.6726,6.6722,6.6722,6.6726,6.673,6.6722,6.6726,6.6732,6.6724,6.6752,6.6748,6.6752,6.6736,6.6729,6.6724,6.6719,6.6719,6.6729,6.6713,6.6722,6.6722,6.6767,6.6783,6.6792,6.6695,6.6418,6.6076,6.5537,6.4821,6.4051,6.3108,6.2613,6.2231,6.1804,6.169,6.1697,6.1701,6.1702,6.1704,6.1707,6.1709,6.1709,6.1709,6.1714,6.1717,6.1718,6.1718,6.1718,6.1719,6.1719,6.1719,6.1718,6.1718,6.1718,6.1719,6.1719,6.1716,6.1712,6.1709,6.1705,6.1698,6.1691,6.1722,6.1721,6.1719,6.1719,6.1719,6.1719,6.1719,6.1719,6.1726,6.1694,6.1702,6.1703,6.1705,6.1705,6.1705,6.1704,6.1705,6.1712,6.1713,6.1711,6.1707,6.17,6.1702,6.1709,6.1708,6.1708,6.1705,6.1702,6.1707,6.1712,6.1717,6.1718,6.1718,6.1718,6.1719,6.1719,6.1719,6.6819,6.6819,6.6767,6.6762,6.6764,6.6775,6.6775,6.6761,6.6773,6.6761,6.6755,6.6724,6.6712,6.6712,6.6709,6.6709,6.6709,6.6709,6.6712,6.6709,6.6712,6.6719,6.6717,6.6709,6.6722,6.6709,6.6709,6.6712,6.6714,6.6712,6.6712,6.6712,6.6709,6.6714,6.6717,6.6719,6.6719,6.6729,6.6748,6.675,6.6704,6.6605,6.6465,6.5979,6.5439,6.4833,6.3735,6.3044,6.2634,6.2014,6.1711,6.1721,6.169,6.1693,6.1696,6.1699,6.1701,6.1702,6.1705,6.1697,6.1705,6.1714,6.1715,6.1716,6.1717,6.1719,6.1719,6.1716,6.1717,6.1715,6.1711,6.1713,6.1711,6.1705,6.1702,6.1697,6.1691,6.1721,6.172,6.1719,6.1719,6.1719,6.1719,6.1719,6.1719,6.1719,6.1719,6.1688,6.1694,6.1696,6.1697,6.1699,6.1701,6.1702,6.1702,6.1704,6.1702,6.1694,6.1691,6.169,6.1695,6.1705,6.17,6.1697,6.1701,6.1703,6.1701,6.1706,6.1711,6.1713,6.1712,6.1716,6.1718,6.1719,6.1719,6.682,6.6775,6.6732,6.6714,6.6722,6.6765,6.6759,6.6717,6.6712,6.6712,6.6712,6.6712,6.6709,6.6709,6.6709,6.6709,6.6709,6.6709,6.6709,6.6709,6.6709,6.6709,6.6709,6.6709,6.6709,6.6709,6.6709,6.6709,6.6709,6.6709,6.6709,6.6709,6.6709,6.6709,6.6709,6.6709,6.6709,6.6714,6.6717,6.6722,6.6722,6.6719,6.6619,6.6344,6.5968,6.5238,6.4347,6.3627,6.2779,6.2164,6.1746,6.1713,6.1677,6.1718,6.1718,6.1718,6.1679,6.1686,6.1689,6.1675,6.1675,6.1692,6.1699,6.1705,6.1709,6.167,6.171,6.1707,6.1668,6.1707,6.1706,6.1704,6.1701,6.1697,6.1695,6.169,6.1722,6.1719,6.1719,6.1719,6.1719,6.1719,6.1719,6.1719,6.1672,6.1668,6.1667,6.1672,6.1681,6.1692,6.1695,6.1699,6.1702,6.1705,6.1703,6.1697,6.1696,6.169,6.1695,6.1696,6.17,6.1698,6.1695,6.1695,6.1703,6.1704,6.17,6.1696,6.1694,6.1697,6.1706,6.1712,6.1717,6.1718,6.1719,6.6734,6.6732,6.6717,6.6709,6.6712,6.6688,6.6722,6.6712,6.6709,6.6709,6.6709,6.6709,6.6709,6.6709,6.6709,6.6709,6.6709,6.6709,6.6709,6.6709,6.6709,6.6709,6.6709,6.6709,6.6709,6.6709,6.6709,6.6709,6.6709,6.6709,6.6709,6.6709,6.6709,6.6709,6.6709,6.6709,6.6709,6.6709,6.6709,6.6709,6.6709,6.6709,6.6717,6.6566,6.6454,6.5757,6.4987,6.4189,6.3378,6.2678,6.1953,6.1649,6.1649,6.1649,6.1649,6.1649,6.1612,6.1615,6.1616,6.161,6.1604,6.1602,6.1609,6.1621,6.1638,6.1652,6.1657,6.1649,6.1643,6.1643,6.1638,6.1635,6.1633,6.1671,6.1672,6.1676,6.1671,6.1677,6.1677,6.1718,6.1718,6.1672,6.1674,6.1668,6.1661,6.1615,6.1613,6.1616,6.1664,6.1677,6.1689,6.1694,6.1696,6.1697,6.1693,6.1726,6.1727,6.1727,6.1693,6.1694,6.1691,6.1689,6.1727,6.169,6.1695,6.1697,6.1698,6.1694,6.1689,6.1697,6.1705,6.1711,6.1715,6.1715,6.1717,6.5657,6.5696,6.5657,6.5657,6.5657,6.5657,6.5657,6.5774,6.6359,6.6709,6.6709,6.6709,6.6709,6.6709,6.6709,6.6709,6.6709,6.6709,6.6709,6.6709,6.6709,6.6709,6.6709,6.6709,6.6709,6.6709,6.6709,6.6709,6.6709,6.6709,6.6709,6.6709,6.6709,6.6709,6.6709,6.6709,6.6709,6.6709,6.6709,6.6709,6.6709,6.6709,6.6709,6.6709,6.6709,6.6203,6.5467,6.467,6.3824,6.2968,6.2091,6.1634,6.1597,6.1597,6.159,6.159,6.1586,6.158,6.1576,6.1564,6.1552,6.1541,6.1575,6.1539,6.1564,6.1549,6.1558,6.1558,6.1561,6.1559,6.159,6.158,6.1623,6.1627,6.1641,6.1655,6.1664,6.1674,6.1676,6.1716,6.1672,6.1664,6.166,6.1654,6.1641,6.1582,6.1578,6.1588,6.16,6.1655,6.1672,6.1683,6.1683,6.1722,6.1718,6.1715,6.168,6.1682,6.1723,6.1723,6.1719,6.1719,6.1722,6.1721,6.1721,6.1726,6.1692,6.1691,6.169,6.1697,6.1699,6.1702,6.1707,6.1711,6.1715,6.414,6.4179,6.4101,6.4218,6.4101,6.4218,6.4218,6.4257,6.5696,6.6515,6.6515,6.6592,6.6592,6.667,6.6709,6.6709,6.6709,6.6709,6.6709,6.6709,6.6709,6.6709,6.6709,6.6709,6.6709,6.6709,6.6709,6.6709,6.6709,6.6709,6.6709,6.6709,6.6709,6.6709,6.6709,6.6709,6.6709,6.6709,6.6709,6.6709,6.6709,6.6709,6.6709,6.6709,6.6592,6.6322,6.5587,6.4783,6.3941,6.3128,6.2313,6.1855,6.1576,6.1575,6.1564,6.1558,6.1545,6.1539,6.1525,6.151,6.1497,6.1489,6.1484,6.1465,6.1481,6.1495,6.1515,6.1541,6.1541,6.1509,6.1541,6.1525,6.1522,6.1541,6.1562,6.1578,6.1591,6.1605,6.1657,6.1658,6.1654,6.1605,6.1588,6.1578,6.156,6.1536,6.1529,6.1543,6.1558,6.1576,6.1643,6.1663,6.1667,6.1667,6.1668,6.1667,6.1675,6.1677,6.1718,6.1719,6.1719,6.1719,6.1719,6.1719,6.1719,6.1719,6.1721,6.1722,6.1723,6.1725,6.1727,6.1727,6.1695,6.1704,6.1712,6.4101,6.4101,6.4101,6.4101,6.4101,6.4101,6.4062,6.4101,6.4491,6.5112,6.5618,6.5774,6.6086,6.6554,6.667,6.6709,6.6709,6.6709,6.6709,6.6709,6.6709,6.6709,6.6709,6.6709,6.6709,6.6709,6.6709,6.6709,6.6709,6.6709,6.6709,6.6709,6.6709,6.6709,6.6709,6.6709,6.6709,6.6709,6.6709,6.6709,6.6709,6.6709,6.6709,6.6709,6.6631,6.6631,6.605,6.5506,6.5122,6.4617,6.3239,6.2328,6.1567,6.157,6.1523,6.1515,6.1559,6.1515,6.1507,6.1492,6.1484,6.143,6.1418,6.1431,6.1415,6.1489,6.151,6.1481,6.1507,6.1481,6.1481,6.1462,6.1451,6.1484,6.1515,6.1532,6.1509,6.1573,6.1593,6.1591,6.159,6.1573,6.1552,6.1529,6.1507,6.1489,6.1512,6.1512,6.152,6.1544,6.1591,6.1617,6.1602,6.1605,6.1609,6.1655,6.1661,6.1672,6.1676,6.1677,6.1719,6.1719,6.1719,6.1719,6.1719,6.1719,6.1719,6.1719,6.1719,6.1719,6.1719,6.1722,6.1725,6.1695,6.1708,6.2971,6.301,6.2971,6.2971,6.301,6.301,6.2971,6.2971,6.2971,6.3672,6.4803,6.5229,6.5696,6.6242,6.6515,6.6709,6.6709,6.6709,6.6709,6.6709,6.6709,6.6709,6.6709,6.6709,6.6709,6.6709,6.6709,6.6709,6.6709,6.6709,6.6709,6.6709,6.6709,6.6709,6.6709,6.6709,6.6709,6.6709,6.6709,6.6709,6.6709,6.6709,6.6709,6.6709,6.6709,6.6709,6.6431,6.592,6.5522,6.5125,6.3982,6.3342,6.2705,6.2391,6.2142,6.1936,6.1774,6.1453,6.1486,6.1519,6.1512,6.1421,6.1411,6.1394,6.1394,6.1427,6.143,6.1438,6.1438,6.1447,6.1447,6.1431,6.1428,6.145,6.1501,6.1495,6.1522,6.1511,6.156,6.1558,6.1543,6.1512,6.1484,6.1487,6.1466,6.1457,6.1438,6.1466,6.1469,6.1469,6.1523,6.1559,6.1545,6.1567,6.1569,6.1588,6.1646,6.1658,6.1672,6.1677,6.1719,6.1719,6.1719,6.1719,6.1719,6.1719,6.1719,6.1719,6.1719,6.1719,6.1719,6.1719,6.1722,6.1726,6.1699,6.1646,6.1568,6.1607,6.1607,6.1607,6.1607,6.1646,6.1646,6.1646,6.2426,6.3711,6.4608,6.5112,6.5813,6.6125,6.6437,6.667,6.6709,6.6709,6.6709,6.6709,6.6709,6.6709,6.6709,6.6709,6.6709,6.6709,6.6709,6.6709,6.6709,6.6709,6.6709,6.6709,6.6709,6.6709,6.6709,6.6709,6.6709,6.6709,6.6707,6.6707,6.6707,6.6709,6.6709,6.6707,6.6704,6.6424,6.6096,6.5612,6.5247,6.4762,6.4121,6.3641,6.3165,6.3,6.2753,6.2439,6.2076,6.1786,6.1741,6.1582,6.1458,6.1416,6.1416,6.1416,6.1419,6.1423,6.1423,6.1419,6.1419,6.1423,6.1384,6.1384,6.1388,6.1447,6.1484,6.1479,6.1471,6.1476,6.1473,6.1487,6.1487,6.145,6.1447,6.1433,6.1419,6.143,6.146,6.1483,6.1477,6.1463,6.1487,6.1468,6.1492,6.1515,6.1552,6.158,6.1649,6.1664,6.1674,6.1719,6.1719,6.1719,6.1719,6.1719,6.1719,6.1719,6.1719,6.1719,6.1719,6.1719,6.1719,6.1719,6.1722,6.1689,6.1568,6.1568,6.1568,6.1568,6.1568,6.1568,6.1568,6.1568,6.1607,6.1841,6.2387,6.3166,6.4335,6.6359,6.5774,6.5891,6.6476,6.6554,6.667,6.6709,6.6709,6.6709,6.6709,6.6709,6.6709,6.6709,6.6709,6.6709,6.6709,6.6709,6.6709,6.6709,6.6709,6.6709,6.6709,6.6709,6.6709,6.6707,6.6702,6.6699,6.6688,6.6694,6.6707,6.6704,6.673,6.6724,6.6633,6.6492,6.6402,6.6114,6.5547,6.4817,6.4337,6.398,6.3818,6.3662,6.3344,6.291,6.2624,6.2352,6.2119,6.161,6.1532,6.1416,6.1416,6.1416,6.1416,6.1416,6.1416,6.1416,6.1416,6.1416,6.1416,6.1416,6.1415,6.1418,6.1434,6.1469,6.1487,6.1481,6.1469,6.1477,6.1408,6.1423,6.1423,6.1416,6.1416,6.1444,6.1444,6.1444,6.1444,6.1418,6.1434,6.1453,6.149,6.151,6.1547,6.1588,6.1658,6.1672,6.1719,6.1719,6.1719,6.1719,6.1719,6.1719,6.1719,6.1719,6.1719,6.1719,6.1719,6.1719,6.1719,6.172,6.1725]}]]